     2              OBSERVATION DATA    GPS                 RINEX VERSION / TYPE
teqc 1997Jul24 19970814                                     PGM / RUN BY / DATE
                                                            COMMENT
Original Marker Name: VAND                                  COMMENT
Campaign Name: HPGN 1991                                    COMMENT
4-Character Station Name: VAND                              COMMENT
6-Character Antenna Code: TRMSST                            COMMENT
Vertical Measurement Point: BPA                             COMMENT
Vertical Offset to Rinex Ref. Point: 0.0000                 COMMENT
Radial Measurement Point: RRP                               COMMENT
Radial Offset to Rinex Ref. Point: 0.0000                   COMMENT
Antenna Height from Field Measurement: 2.2200 m             COMMENT
Original XYZ: 0.0000 0.0000 0.0000                          COMMENT
New XYZ position is based on association with SCEC monument COMMENT
E1E9D3Y3+0011. Position of that monument is believed to be  COMMENT
valid to within 1 m horizontally; vertical accuracy         COMMENT
should be no worse than 3-times this value.                 COMMENT
                                                            COMMENT
Revised Rinex header created by UCSD GPS archive for        COMMENT
GSAC on 14-Apr-1999 (1999:104) 02:30:04 GMT                 COMMENT
For assistance contact dagnew@ucsd.edu or hjohnson@ucsd.edu COMMENT
                                                            COMMENT
VLBI STA 7223 1983                                          MARKER NAME
unknown NATIONAL GEODETIC SURVEY                            OBSERVER / AGENCY
486 TRIMBLE 4000 SST NP 4.30 / SP 4.20                      REC # / TYPE / VERS
17 TR 4000SST L1/L2 GEO                                     ANT # / TYPE
 -2678095.0000 -4525451.0000  3597410.0000                  APPROX POSITION XYZ
        2.2200        0.0000        0.0000                  ANTENNA: DELTA H/E/N
     1     1     0                                          WAVELENGTH FACT L1/2
     3    C1    L1    L2                                    # / TYPES OF OBSERV
     0                                                      INTERVAL
  1991     4    30    19    23   15.000000                  TIME OF FIRST OBS
  1991     4    30    22    32   30.000000                  TIME OF LAST OBS
     0                                                      # OF SATELLITES
                                                            END OF HEADER
 91  4 30 19 23 15.0000000  0  4G18G11G19G 2
  20683536.1414         -0.07958        -0.25172
  24039044.234          -0.03516        -0.22831
  20866927.859          -0.27717        -0.43132
  23783846.7424         -0.88756        -0.41471
 91  4 30 19 23 30.0000000  0  4G18G11G19G 2
  20685614.9224      10926.41348      8513.89262
  24031606.8284     -39083.87646    -30455.05361
  20865525.773       -7363.396 7     -5737.90622
  23773564.1414     -54031.94745    -42102.42161
 91  4 30 19 23 45.0000000  0  4G18G11G19G 2
  20687707.7114      21914.95748     17076.39262
  24024177.1804     -78128.10346    -60878.99661
  20864125.383      -14728.755 7    -11477.12922
  23763280.8364    -108064.00845    -84205.20361
 91  4 30 19 24  0.0000000  0  4G18G11G19G 2
  20689813.414       32983.121 8     25700.92122
  24016758.367     -117114.434 6    -91257.83121
  20862725.953      -22078.586 7    -17204.24522
  23753002.0864    -162079.18445   -126294.83061
 91  4 30 19 24 15.0000000  0  4G18G11G19G 2
  20691933.750       44125.891 8     34383.58322
  24009348.7664    -156047.28746   -121594.99861
  20861329.016      -29417.553 6    -22922.90222
  23742727.711     -216082.040 5   -168374.86521
 91  4 30 19 24 30.0000000  0  4G18G11G19G 2
  20694070.875       55356.753 8     43134.88822
  24001953.9144    -194912.88646   -151879.75761
  20859936.625      -36732.171 7    -28622.58422
  23732455.5704    -270059.00145   -210434.72361
 91  4 30 19 24 45.0000000  0  4G18G11G19G 2
  20696223.461       66672.788 8     51952.56422
  23994569.7504    -233713.84446   -182114.15561
  20858550.195      -44025.612 7    -34305.75922
  23722188.563     -324013.023 5   -252476.70321
 91  4 30 19 25  0.0000000  0  4G18G11G19G 2
  20698392.445       78070.553 8     60833.92422
  23987194.750     -272453.194 6   -212300.53421
  20857168.039      -51301.553 6    -39975.30222
  23711925.2274    -377947.25346   -294503.26361
 91  4 30 19 25 15.0000000  0  4G18G11G19G 2
  20700577.930       89554.905 8     69782.75522
  23979836.188     -311125.700 6   -242434.84421
  20855784.234      -58554.977 7    -45627.30022
  23701666.0864    -431856.50946   -336510.36161
 91  4 30 19 25 30.0000000  0  4G18G11G19G 2
  20702780.766      101128.000 8     78800.72622
  23972490.313     -349728.738 6   -272515.01021
  20854407.734      -65783.683 7    -51260.03922
  23691412.961     -485738.534 6   -378496.25321
 91  4 30 19 25 45.0000000  0  4G18G11G19G 2
  20705001.859      112799.102 8     87895.06822
  23965160.1254    -388252.69646   -302533.56961
  20853040.789      -72978.517 7    -56866.38322
  23681167.227     -539583.816 6   -420453.49621
 91  4 30 19 26  0.0000000  0  4G18G11G19G 2
  20707238.953      124558.230 8     97058.00622
  23957842.859     -426707.243 6   -332498.03121
  20851677.438      -80149.582 7    -62454.20422
  23670925.1954    -593402.30146   -462389.87861
 91  4 30 19 26 15.0000000  0  4G18G11G19G 2
  20709494.563      136408.958 8    106292.31122
  23950540.438     -465088.285 6   -362405.23221
  20850315.805      -87293.065 7    -68020.53222
  23660688.586     -647190.028 6   -504302.27821
 91  4 30 19 26 30.0000000  0  4G18G11G19G 2
  20711766.250      148346.675 8    115594.40822
  23943250.0704    -503400.14746   -392258.51661
  20848959.102      -94413.857 7    -73569.17722
  23650458.852     -700951.497 6   -546194.22621
 91  4 30 19 26 45.0000000  0  4G18G11G19G 2
  20714055.055      160372.496 8    124965.16522
  23935973.2034    -541641.23846   -422056.65061
  20847612.672     -101510.729 7    -79099.19022
  23640232.1024    -754685.21546   -588064.54261
 91  4 30 19 27  0.0000000  0  4G18G11G19G 2
  20716361.922      172491.940 8    134408.87223
  23928708.9844    -579805.60946   -451795.00761
  20846266.422     -108578.176 6    -84606.27222
  23630012.398     -808385.635 6   -629908.91321
 91  4 30 19 27 15.0000000  0  4G18G11G19G 2
  20718684.320      184702.039 8    143923.22222
  23921460.477     -617896.138 6   -481475.83321
  20844927.055     -115619.517 7    -90093.01222
  23619800.7274    -862055.84646   -671729.73461
 91  4 30 19 27 30.0000000  0  4G18G11G19G 2
  20721025.375      197003.052 8    153508.40722
  23914226.750     -655911.870 6   -511098.36821
  20843591.813     -122633.860 6    -95558.71622
  23609592.664     -915694.944 6   -713526.32621
 91  4 30 19 27 45.0000000  0  4G18G11G19G 2
  20723383.758      209396.262 8    163165.43422
  23907005.992     -693851.155 6   -540661.35321
  20842261.891     -129620.180 6   -101002.58722
  23599392.039     -969301.396 6   -755297.48021
 91  4 30 19 28  0.0000000  0  4G18G11G19G 2
  20725759.5554     221877.86948    172891.34763
  23899799.961     -731717.528 6   -570167.50021
  20840937.711     -136582.360 6   -106427.64322
  23589197.0864   -1022878.89946   -797046.05061
 91  4 30 19 28 15.0000000  0  4G18G11G19G 2
  20728152.414      234451.476 8    182688.95123
  23892608.516     -769506.860 6   -599613.62721
  20839617.328     -143516.756 6   -111831.05522
  23579007.805    -1076423.653 6   -838769.12621
 91  4 30 19 28 30.0000000  0  4G18G11G19G 2
  20730560.828      247113.125 8    192555.15122
  23885432.078     -807222.718 6   -629002.50821
  20838302.297     -150427.412 7   -117215.96622
  23568824.2274   -1129939.39046   -880469.57861
 91  4 30 19 28 45.0000000  0  4G18G11G19G 2
  20732988.375      259866.897 8    202493.13223
  23878267.3914    -844860.81246   -658330.80161
  20836994.563     -157310.283 6   -122579.22322
  23558647.563    -1183421.937 6   -922144.17821
 91  4 30 19 29  0.0000000  0  4G18G11G19G 2
  20735431.789      272706.150 8    212497.72023
  23871122.000     -882427.315 6   -687603.28921
  20835687.258     -164172.143 6   -127926.10922
  23548473.4534   -1236877.73246   -963797.91661
 91  4 30 19 29 15.0000000  0  4G18G11G19G 2
  20737890.680      285630.107 8    222568.31923
  23863986.6024    -919922.45746   -716820.19161
  20834384.742     -171013.580 6   -133257.08222
  23538307.2424   -1290307.20546  -1005431.15661
 91  4 30 19 29 30.0000000  0  4G18G11G19G 2
  20740367.602      298644.093 8    232709.06923
  23856867.3444    -957340.67246   -745977.14061
  20833085.258     -177829.304 7   -138568.02122
  23528147.2034   -1343705.09346  -1047039.77961
 91  4 30 19 29 45.0000000  0  4G18G11G19G 2
  20742860.734      311745.169 8    242917.67623
  23849761.1804    -994684.46546   -775076.10961
  20831795.094     -184622.265 6   -143861.22122
  23517991.0704   -1397074.00746  -1088625.82461
 91  4 30 19 30  0.0000000  0  4G18G11G19G 2
  20745370.516      324934.845 8    253195.32323
  23842669.4924   -1031951.79446   -804115.48961
  20830506.133     -191390.813 6   -149135.40022
  23507840.352    -1450411.935 6  -1130187.71521
 91  4 30 19 30 15.0000000  0  4G18G11G19G 2
  20747897.250      338211.682 8    263540.89323
  23835591.4454   -1069143.93146   -833096.28161
  20829223.805     -198136.594 6   -154391.83622
  23497694.883    -1503720.403 6  -1171726.66621
 91  4 30 19 30 30.0000000  0  4G18G11G19G 2
  20750440.313      351575.417 8    273954.16723
  23828527.4304   -1106260.38746   -862018.11461
  20827941.742     -204859.558 6   -159630.49522
  23487556.453    -1556999.205 6  -1213242.48821
 91  4 30 19 30 45.0000000  0  4G18G11G19G 2
  20752999.602      365025.775 8    284434.94523
  23821479.1094   -1143301.45146   -890881.18261
  20826668.711     -211560.311 6   -164851.84422
  23477423.3284   -1610248.65946  -1254735.44161
 91  4 30 19 31  0.0000000  0  4G18G11G19G 2
  20755576.336      378565.832 8    294985.61023
  23814442.375    -1180263.378 6   -919682.60521
  20825399.531     -218235.589 6   -170053.34722
  23467295.8834   -1663465.35146  -1296202.87361
 91  4 30 19 31 15.0000000  0  4G18G11G19G 2
  20758169.453      392191.710 8    305603.15423
  23807424.5314   -1217149.61046   -948425.03361
  20824132.273     -224889.169 6   -175237.93822
  23457175.3674   -1716653.06346  -1337647.71561
 91  4 30 19 31 30.0000000  0  4G18G11G19G 2
  20760778.438      405902.295 8    316286.70823
  23800420.922    -1253961.045 6   -977109.17021
  20822869.867     -231522.431 6   -180406.70022
  23447058.7034   -1769812.80746  -1379070.77061
 91  4 30 19 31 45.0000000  0  4G18G11G19G 2
  20763403.422      419701.968 8    327039.67823
  23793430.0234   -1290692.94546  -1005731.34261
  20821613.453     -238130.987 6   -185556.20922
  23436950.688    -1822939.953 6  -1420468.41621
 91  4 30 19 32  0.0000000  0  4G18G11G19G 2
  20766047.648      433590.739 8    337862.08323
  23786456.336    -1327344.659 6  -1034291.03621
  20820356.492     -244714.494 6   -190686.19722
  23426845.4614   -1876034.02146  -1461840.29161
 91  4 30 19 32 15.0000000  0  4G18G11G19G 2
  20768706.5864     447566.95348    348752.63163
  23779497.4224   -1363917.53646  -1062789.28661
  20819111.648     -251274.762 6   -195798.08122
  23416749.3984   -1929096.57546  -1503187.60861
 91  4 30 19 32 30.0000000  0  4G18G11G19G 2
  20771382.484      461628.633 8    359709.76523
  23772553.133    -1400413.294 6  -1091227.45721
  20817865.477     -257813.734 6   -200893.36622
  23406656.0784   -1982129.53946  -1544511.87261
 91  4 30 19 32 45.0000000  0  5G18G11G16G19G 2
  20774076.406      475781.725 8    370738.12323
  23765622.5084   -1436825.46646  -1119600.49261
  24276113.4614         -0.96255
  20816628.3524    -264325.44146   -205967.41562
  23396572.3754   -2035126.66746  -1585808.20261
 91  4 30 19 33  0.0000000  0  5G18G11G16G19G 2
  20776785.953      490022.384 8    381834.72023
  23758709.258    -1473157.489 6  -1147911.06721
  24268739.7344     -38748.37945
  20815391.469     -270813.900 6   -211023.34022
  23386493.5004   -2088091.51746  -1627079.39661
 91  4 30 19 33 15.0000000  0  5G18G11G16G19G 2
  20779512.953      504348.922 8    392998.22723
  23751808.672    -1509410.775 6  -1176160.30621
  24261383.9694     -77407.09945
  20814162.594     -277280.734 6   -216062.41522
  23376419.9774   -2141025.62146  -1668326.62461
 91  4 30 19 33 30.0000000  0  5G18G11G16G19G 2
  20782254.984      518761.838 8    404229.04923
  23744925.063    -1545584.338 6  -1204347.41621
  24254044.0314    -115976.61545
  20812936.000     -283725.293 6   -221084.13722
  23366351.7814   -2193928.24546  -1709549.32661
 91  4 30 19 33 45.0000000  0  5G18G11G16G19G 2
  20785014.953      533263.634 8    415529.12423
  23738057.1954   -1581675.29546  -1232470.15261
  24246719.9924    -154453.91545
  20811714.102     -290145.010 6   -226086.49222
  23356291.8284   -2246796.70046  -1750745.39561
 91  4 30 19 34  0.0000000  0  5G18G11G16G19G 2
  20787791.023      547855.823 8    426899.63323
  23731206.9384   -1617681.48846  -1260526.84161
  24239415.203     -192837.283 5        -0.13231
  20810496.750     -296538.336 6   -231068.29122
  23346238.2734   -2299628.99346  -1791913.29261
 91  4 30 19 34 15.0000000  0  5G18G11G16G19G 2
  20790584.578      562534.389 8    438337.45923
  23724371.063    -1653606.801 6  -1288520.50221
  24232131.516     -231130.477 5    -29838.97221
  20809286.391     -302909.649 6   -236032.93722
  23336191.2344   -2352429.16746  -1833056.16661
 91  4 30 19 34 30.0000000  0  5G18G11G16G19G 2
  20793395.945      577309.215 8    449850.29423
  23717550.555    -1689441.045 6  -1316443.20321
  24224863.7344    -269323.28045    -59599.58861
  20808077.273     -309248.920 6   -240972.61122
  23326150.5474   -2405187.31246  -1874166.29961
 91  4 30 19 34 45.0000000  0  5G18G11G16G19G 2
  20796224.008      592171.981 8    461431.64823
  23710748.6174   -1725191.92646  -1344300.94761
  24217613.344     -307423.788 5    -89288.25621
  20806877.406     -315564.088 6   -245893.50922
  23316117.281    -2457911.180 6  -1915249.71421
 91  4 30 19 35  0.0000000  0  5G18G11G16G19G 2
  20799068.5394     607117.53948    473077.51063
  23703959.5084   -1760864.26146  -1372097.49661
  24210381.8674    -345436.82845   -118908.80661
  20805678.031     -321860.266 6   -250799.60722
  23306090.4454   -2510605.75646  -1956310.30561
 91  4 30 19 35 15.0000000  0  5G18G11G16G19G 2
  20801929.0864     622150.86348    484791.75863
  23697188.4384   -1796452.88546  -1399828.79761
  24203165.1174    -383357.45045   -148457.31861
  20804486.906     -328132.677 6   -255687.17822
  23296067.5864   -2563265.99046  -1997344.13761
 91  4 30 19 35 30.0000000  0  5G18G11G16G19G 2
  20804807.8134     637277.78348    496578.93863
  23690431.0784   -1831951.38046  -1427489.88561
  24195964.0784    -421179.31745   -177928.90161
  20803299.938     -334375.346 6   -260551.58122
  23286054.688    -2615885.759 6  -2038346.44421
 91  4 30 19 35 45.0000000  0  5G18G11G16G19G 2
  20807703.0394     652492.86648    508434.81163
  23683691.883    -1867364.563 6  -1455084.49921
  24188786.148     -458907.323 5   -207327.32421
  20802114.641     -340593.667 6   -265397.01222
  23276050.000    -2668470.026 6  -2079321.09221
 91  4 30 19 36  0.0000000  0  5G18G11G16G19G 2
  20810615.7034     667797.68448    520360.61463
  23676970.547    -1902690.764 6  -1482611.32621
  24181625.0474    -496539.90745   -236651.40761
  20800933.547     -346786.246 6   -270222.37822
  23266050.352    -2721017.464 6  -2120267.02921
 91  4 30 19 36 15.0000000  0  5G18G11G16G19G 2
  20813544.859      683193.596 8    532357.41123
  23670266.2584   -1937928.43146  -1510069.15961
  24174477.8524    -534075.43245   -265899.86161
  20799762.852     -352951.918 6   -275026.77922
  23256058.172    -2773526.429 6  -2161182.99321
 91  4 30 19 36 30.0000000  0  5G18G11G16G19G 2
  20816490.758      698675.307 8    544421.06423
  23663575.0944   -1973082.04946  -1537461.50861
  24167354.172     -571518.710 5   -295076.40621
  20798591.5234    -359095.45646   -279813.93862
  23246071.1954   -2826001.70646  -2202072.71561
 91  4 30 19 36 45.0000000  0  5G18G11G16G19G 2
  20819453.570      714244.038 8    556552.51823
  23656902.4064   -2008150.28846  -1564787.31161
  24160249.922     -608868.864 5   -324180.39021
  20797429.992     -365215.976 6   -284583.16122
  23236092.7034   -2878442.34146  -2242935.43261
 91  4 30 19 37  0.0000000  0  5G18G11G16G19G 2
  20822433.1884     729899.99448    568751.92863
  23650245.836    -2043132.132 6  -1592045.81921
  24153157.125     -646124.825 5   -353211.00321
  20796267.883     -371312.802 6   -289333.91722
  23226119.508    -2930847.409 6  -2283770.44521
 91  4 30 19 37 15.0000000  0  5G18G11G16G19G 2
  20825429.6174     745645.83948    581021.38463
  23643605.1804   -2078024.71046  -1619234.74861
  24146088.266     -683283.566 5   -382165.84721
  20795113.031     -377383.343 6   -294064.19722
  23216155.328    -2983214.177 6  -2324575.60821
 91  4 30 19 37 30.0000000  0  5G18G11G16G19G 2
  20828442.4534     761478.18148    593358.24363
  23636984.023    -2112831.090 6  -1646356.53421
  24139036.2034    -720348.48245   -411047.57761
  20793965.008     -383430.968 6   -298776.61522
  23206196.9144   -3035545.79246  -2365353.38661
 91  4 30 19 37 45.0000000  0  5G18G11G16G19G 2
  20831472.258      777398.358 8    605763.55623
  23630376.3834   -2147549.83246  -1673410.01061
  24131998.1954    -757318.34545   -439855.25461
  20792815.875     -389454.617 6   -303470.35122
  23196246.352    -3087840.926 6  -2406102.73821
 91  4 30 19 38  0.0000000  0  5G18G11G16G19G 2
  20834519.367      793413.137 8    618242.58023
  23623786.6414   -2182173.50746  -1700389.42761
  24124983.0234    -794185.64245   -468582.98961
  20791673.0784    -395447.21346   -308139.89462
  23186301.2504   -3140092.29746  -2446817.99161
 91  4 30 19 38 15.0000000  0  5G18G11G16G19G 2
  20837584.1884     809517.99148    630791.78563
  23617214.875    -2216705.935 6  -1727297.73521
  24117988.945     -830954.333 5   -497233.89921
  20790540.8204    -401413.08046   -312788.61162
  23176366.6564   -3192304.13746  -2487502.43661
 91  4 30 19 38 30.0000000  0  5G18G11G16G19G 2
  20840666.2584     825713.53248    643411.64863
  23610659.281    -2251146.232 6  -1754134.24921
  24111009.1804    -867623.86745   -525807.54961
  20789410.875     -407351.644 6   -317416.04922
  23166439.3594   -3244475.67046  -2528155.46161
 91  4 30 19 38 45.0000000  0  5G18G11G16G19G 2
  20843763.2194     841992.33148    656096.38663
  23604123.328    -2285501.785 6  -1780904.73821
  24104044.680     -904201.762 5   -554309.80021
  20788284.508     -413270.709 6   -322028.28422
  23156515.867    -3296614.478 6  -2568783.00621
 91  4 30 19 39  0.0000000  0  5G18G11G16G19G 2
  20846878.3674     858359.11148    668849.68563
  23597601.3444   -2319767.21146  -1807604.98861
  24097106.516     -940682.474 5   -582736.31221
  20787159.969     -419165.090 6   -326621.29122
  23146602.2114   -3348715.15646  -2609380.82361
 91  4 30 19 39 15.0000000  0  5G18G11G16G19G 2
  20850010.2274     874815.30348    681672.66363
  23591100.1414   -2353940.59346  -1834233.50961
  24090183.2034    -977064.34445   -611085.78861
  20786047.445     -425033.275 6   -331193.89022
  23136694.8204   -3400776.06546  -2649947.66261
 91  4 30 19 39 30.0000000  0  5G18G11G16G19G 2
  20853159.289      891367.333 8    694570.32223
  23584615.211    -2388015.277 6  -1860785.13921
  24083280.3524   -1013340.94845   -639353.26161
  20784937.367     -430869.060 6   -335741.23922
  23126796.688    -3452790.648 6  -2690478.40321
 91  4 30 19 39 45.0000000  0  5G18G11G16G19G 2
  20856326.1724     908008.14748    707537.16563
  23578150.039    -2421998.075 6  -1887265.16221
  24076396.4304   -1049519.21745   -667544.10861
  20783829.336     -436679.458 6   -340268.80922
  23116907.180    -3504765.961 6  -2730978.54221
 91  4 30 19 40  0.0000000  0  5G18G11G16G19G 2
  20859510.563      924739.538 8    720574.58623
  23571700.0944   -2455886.48546  -1913671.62761
  24069526.352    -1085596.664 5   -695656.39121
  20782731.609     -442462.297 6   -344774.90622
  23107023.898    -3556699.659 6  -2771446.25221
 91  4 30 19 40 15.0000000  0  5G18G11G16G19G 2
  20862710.1094     941557.20848    733679.23763
  23565266.945    -2489684.530 6  -1940007.69421
  24062683.203    -1121577.343 5   -723693.24421
  20781633.133     -448221.983 6   -349262.95722
  23097147.0004   -3608595.92346  -2811884.79661
 91  4 30 19 40 30.0000000  0  5G18G11G16G19G 2
  20865927.633      958461.684 8    746851.53023
  23558851.883    -2523391.294 6  -1966272.62721
  24055853.672    -1157460.571 5   -751654.16821
  20780543.859     -453957.970 6   -353732.53922
  23087278.500    -3660454.144 6  -2852293.68821
 91  4 30 19 40 45.0000000  0  5G18G11G16G19G 2
  20869161.516      975454.079 8    760092.33323
  23552456.9694   -2557005.29946  -1992465.30261
  24049045.4924   -1193245.05145   -779538.15161
  20779455.664     -459669.236 6   -358182.86522
  23077418.906    -3712272.969 6  -2892671.89021
 91  4 30 19 41  0.0000000  0  5G18G11G16G19G 2
  20872410.9224     992531.66048    773399.50563
  23546078.383    -2590528.902 6  -2018587.50221
  24042252.391    -1228933.332 5   -807347.19021
  20778371.7274    -465358.43046   -362615.98962
  23067565.266    -3764054.875 6  -2933021.31821
 91  4 30 19 41 15.0000000  0  5G18G11G16G19G 2
  20875677.281     1009695.417 8    786773.83523
  23539716.727    -2623960.842 6  -2044638.27821
  24035480.570    -1264524.088 5   -835080.22721
  20777294.133     -471024.493 6   -367031.08722
  23057716.508    -3815798.755 6  -2973341.11821
 91  4 30 19 41 30.0000000  0  5G18G11G16G19G 2
  20878961.563     1026956.070 8    800223.66823
  23533374.227    -2657289.601 6  -2070608.66121
  24028727.7664   -1300005.99345   -862728.45761
  20776224.445     -476656.367 6   -371419.54622
  23047880.188    -3867493.255 6  -3013622.44021
 91  4 30 19 41 45.0000000  0  5G18G11G16G19G 2
  20882263.438     1044307.399 8    813744.15623
  23527050.664    -2690521.005 6  -2096503.18421
  24021995.1884   -1335385.07545   -890296.54961
  20775158.055     -482260.249 6   -375786.19322
  23038051.883    -3919144.468 6  -3053870.03221
 91  4 30 19 42  0.0000000  0  5G18G11G16G19G 2
  20885582.9924    1061749.96348    827335.73463
  23520745.141    -2723654.251 6  -2122321.21621
  24015283.492    -1370660.582 5   -917783.92521
  20774093.859     -487835.568 6   -380130.58022
  23028230.727    -3970751.751 6  -3094083.39221
 91  4 30 19 42 15.0000000  0  5G18G11G16G19G 2
  20888919.2034    1079282.83348    840997.67663
  23514457.117    -2756689.931 6  -2148063.22221
  24008588.883    -1405833.065 5   -945191.06321
  20773039.453     -493383.354 6   -384453.51322
  23018418.578    -4022315.744 6  -3134263.01621
 91  4 30 19 42 30.0000000  0  5G18G11G16G19G 2
  20892271.0234    1096899.23648    854724.71263
  23508189.148    -2789634.255 6  -2173734.04421
  24001916.0394   -1440908.94045   -972522.86761
  20771987.664     -498910.087 6   -388760.04822
  23008613.398    -4073842.937 6  -3174413.97021
 91  4 30 19 42 45.0000000  0  5G18G11G16G19G 2
  20895640.8204    1114606.37948    868522.45163
  23501939.711    -2822479.908 6  -2199327.98621
  23995262.0474   -1475881.31245   -999774.09261
  20770940.828     -504408.699 6   -393044.66622
  22998817.3914   -4125326.19546  -3214530.68861
 91  4 30 19 43  0.0000000  0  5G18G11G16G19G 2
  20899028.2974    1132406.28948    882392.47263
  23495708.016    -2855224.399 6  -2224843.09821
  23988624.680    -1510747.593 5  -1026942.58721
  20769900.242     -509876.961 6   -397305.63622
  22989027.727    -4176763.008 6  -3254611.21621
 91  4 30 19 43 15.0000000  0  5G18G11G16G19G 2
  20902432.8284    1150296.37848    896332.76663
  23489496.125    -2887869.811 6  -2250281.00021
  23982009.766    -1545510.020 5  -1054030.17621
  20768864.938     -515317.535 6   -401545.02922
  22979249.906    -4228155.798 6  -3294657.43521
 91  4 30 19 43 30.0000000  0  5G18G11G16G19G 2
  20905853.5864    1168273.97848    910341.25263
  23483301.9844   -2920418.28946  -2275643.37161
  23975416.2894   -1580170.90545  -1081038.65761
  20767836.711     -520732.834 6   -405764.73122
  22969477.078    -4279506.786 6  -3334671.08621
 91  4 30 19 43 45.0000000  0  5G18G11G16G19G 2
  20909292.5004    1186344.66948    924422.27863
  23477128.133    -2952864.272 6  -2300925.87421
  23968840.3984   -1614724.58145  -1107963.57661
  20766811.305     -526117.621 6   -409960.65022
  22959713.625    -4330810.423 6  -3374647.84521
 91  4 30 19 44  0.0000000  0  5G18G11G16G19G 2
  20912749.2504    1204508.15248    938575.60363
  23470972.664    -2985207.475 6  -2326128.29521
  23962285.9064   -1649171.08745  -1134804.98461
  20765792.180     -531471.900 6   -414132.79922
  22949959.078    -4382066.748 6  -3414587.72321
 91  4 30 19 44 15.0000000  0  5G18G11G16G19G 2
  20916222.6884    1222762.03048    952799.36763
  23464835.563    -3017449.508 6  -2351251.88721
  23955749.805    -1683512.441 5  -1161564.48821
  20764778.211     -536797.497 6   -418282.60022
  22940214.742    -4433277.648 6  -3454492.21621
 91  4 30 19 44 30.0000000  0  5G18G11G16G19G 2
  20919713.2734    1241105.60748    967093.02963
  23458720.844    -3049590.791 6  -2376296.96321
  23949232.9924   -1717749.19045  -1188242.45161
  20763767.789     -542095.360 6   -422410.79122
  22930478.297    -4484443.691 6  -3494361.75221
 91  4 30 19 44 45.0000000  0  5G18G11G16G19G 2
  20923221.7424    1259539.07148    981456.73163
  23452623.5084   -3081631.06046  -2401263.33861
  23942741.0234   -1751880.52545  -1214838.26661
  20762768.375     -547365.403 6   -426517.30722
  22920750.430    -4535564.698 6  -3534196.20021
 91  4 30 19 45  0.0000000  0  5G18G11G16G19G 2
  20926744.7344    1278056.38748    995885.77363
  23446544.844    -3113575.862 6  -2426155.31321
  23936265.633    -1785912.373 5  -1241356.57121
  20761766.930     -552613.388 6   -430606.63022
  22911030.781    -4586646.331 6  -3573999.96121
 91  4 30 19 45 15.0000000  0  5G18G11G16G19G 2
  20930286.1484    1296665.21948   1010386.12763
  23440486.508    -3145417.241 6  -2450966.70221
  23929806.5314   -1819836.82045  -1267791.18661
  20760776.6254    -557831.82346   -434672.93362
  22901318.703    -4637680.773 6  -3613766.94521
 91  4 30 19 45 30.0000000  0  6G18G11G16G 6G19G 2
  20933844.7664    1315368.74648   1024960.27263
  23434446.6884   -3177151.52246  -2475694.64861
  23923372.609    -1853650.624 5  -1294139.57621
  24365765.8364         -0.98554
  20759787.6024    -563017.38146   -438713.61462
  22891616.133    -4688664.451 6  -3653494.38921
 91  4 30 19 45 45.0000000  0  6G18G11G16G 6G19G 2
  20937421.6954    1334165.07848   1039606.73163
  23428427.1954   -3208780.10246  -2500340.22461
  23916958.375    -1887355.151 5  -1320402.82921
  24357849.4924     -41595.09744
  20758809.172     -568171.698 6   -442729.95522
  22881922.273    -4739598.998 6  -3693183.54321
 91  4 30 19 46  0.0000000  0  6G18G11G16G 6G19G 2
  20941016.0004    1353048.06048   1054320.71063
  23422428.9844   -3240308.79846  -2524907.97161
  23910564.766    -1920956.463 5  -1346585.63121
  24349935.5554     -83187.53144
  20757830.6024    -573300.89246   -446726.71562
  22872237.898    -4790490.307 6  -3732839.00321
 91  4 30 19 46 15.0000000  0  6G18G11G16G 6G19G 2
  20944625.7424    1372018.64748   1069102.94063
  23416446.859    -3271736.171 6  -2549396.76321
  23904192.7194   -1954453.24045  -1372686.96261
  24342021.961     -124777.200 4
  20756861.984     -578403.912 6   -450703.07922
  22862563.406    -4841337.213 6  -3772459.86121
 91  4 30 19 46 30.0000000  0  6G18G11G16G 6G19G 2
  20948252.6484    1391081.93848   1083957.41563
  23410487.1334   -3303056.80146  -2573802.38061
  23897838.2894   -1987840.14445  -1398702.73461
  24334108.766     -166359.202 4
  20755894.641     -583475.483 6   -454654.94522
  22852896.258    -4892134.386 6  -3812041.97321
 91  4 30 19 46 45.0000000  0  6G18G11G16G 6G19G 2
  20951898.2344    1410238.47848   1098884.55063
  23404548.031    -3334269.822 6  -2598124.15421
  23891507.4304   -2021116.79945  -1424632.55961
  24326197.1334    -207933.02644        -0.45671
  20754937.484     -588515.278 6   -458582.04122
  22843239.9454   -4942881.32746  -3851584.94561
 91  4 30 19 47  0.0000000  0  6G18G11G16G 6G19G 2
  20955561.820     1429488.567 8   1113884.57223
  23398628.1884   -3365374.56846  -2622361.56261
  23885194.719    -2054281.973 5  -1450475.52021
  24318287.625     -249498.208 4    -32388.80121
  20753982.6644    -593522.84746   -462484.03462
  22833591.0314   -4993577.32846  -3891088.22061
 91  4 30 19 47 15.0000000  0  6G18G11G16G 6G19G 2
  20959243.086     1448830.448 8   1128956.11823
  23392730.0084   -3396372.26046  -2646515.54261
  23878903.6724   -2087337.13745  -1476232.76861
  24310381.586     -291056.234 4    -64771.57921
  20753037.5164    -598499.62946   -466362.03662
  22823953.891    -5044223.703 6  -3930552.83221
 91  4 30 19 47 30.0000000  0  6G18G11G16G 6G19G 2
  20962940.2734    1468262.96448   1144098.30263
  23386850.6174   -3427263.62946  -2670586.68461
  23872635.2034   -2120283.32945  -1501905.08761
  24302471.906     -332608.288 4    -97149.71821
  20752092.5004    -603446.72546   -470216.90562
  22814325.1334   -5094821.55346  -3969979.63461
 91  4 30 19 47 45.0000000  0  6G18G11G16G 6G19G 2
  20966656.7424    1487789.91448   1159314.08063
  23380993.7664   -3458044.63046  -2694571.81261
  23866386.9304   -2153116.60245  -1527489.43161
  24294564.1174    -374150.57744   -129520.21961
  20751161.4144    -608360.24846   -474045.61762
  22804706.9924   -5145366.80846  -4009365.44761
 91  4 30 19 48  0.0000000  0  6G18G11G16G 6G19G 2
  20970389.3204    1507407.13748   1174600.19663
  23375156.641    -3488719.075 6  -2718473.92421
  23860160.5944   -2185840.93445  -1552988.88361
  24286662.141     -415687.296 4   -161886.40421
  20750231.992     -613244.393 6   -477851.43322
  22795098.5864   -5195863.33746  -4048713.29361
 91  4 30 19 48 15.0000000  0  6G18G11G16G 6G19G 2
  20974138.1954    1527111.14848   1189953.93363
  23369340.242    -3519289.837 6  -2742295.23321
  23853952.211    -2218459.411 5  -1578405.83221
  24278757.2274    -457221.92844   -194250.96661
  20749306.4614    -618102.52546   -481636.98462
  22785498.5634   -5246314.39546  -4088025.69961
 91  4 30 19 48 30.0000000  0  6G18G11G16G 6G19G 2
  20977906.0314    1546909.88148   1205381.48462
  23363543.5394   -3549748.68346  -2766029.34361
  23847770.586    -2250963.737 5  -1603733.84621
  24270857.383     -498746.489 4   -226607.67621
  20748387.0164    -622926.63346   -485396.02062
  22775908.3054   -5296711.81746  -4127296.32461
 91  4 30 19 48 45.0000000  0  6G18G11G16G 6G19G 2
  20981691.0164    1566795.86748   1220877.02563
  23357767.0164   -3580102.74846  -2789681.80261
  23841604.7344   -2283361.29745  -1628978.66661
  24262954.7814    -540268.29444   -258962.23261
  20747475.5944    -627723.99946   -489134.21962
  22766326.8284   -5347062.87946  -4166530.82261
 91  4 30 19 49  0.0000000  0  6G18G11G16G 6G19G 2
  20985492.117     1586772.671 8   1236443.31422
  23352009.703    -3610347.968 6  -2813249.44721
  23835459.6334   -2315647.82545  -1654136.96861
  24255054.6804    -581783.76444   -291311.86361
  20746567.1334    -632490.95746   -492848.72562
  22756755.141    -5397363.650 6  -4205726.13021
 91  4 30 19 49 15.0000000  0  6G18G11G16G 6G19G 2
  20989312.258     1606842.591 8   1252082.16522
  23346276.852    -3640481.920 6  -2836730.39721
  23829337.9614   -2347821.25045  -1679207.14661
  24247155.9304    -623290.67444   -323654.82661
  20745667.008     -637225.311 6   -496537.81822
  22747193.0704   -5447611.84246  -4244880.46861
 91  4 30 19 49 30.0000000  0  6G18G11G16G 6G19G 2
  20993148.781     1627007.248 8   1267794.84122
  23340562.352    -3670502.360 6  -2860122.89421
  23823234.016    -2379879.222 5  -1704187.34221
  24239258.234     -664787.320 4   -355989.79221
  20744772.3594    -641925.18646   -500200.05662
  22737639.164    -5497805.224 6  -4283992.09521
 91  4 30 19 49 45.0000000  0  6G18G11G16G 6G19G 2
  20997004.3204    1647270.73048   1283584.53062
  23334872.9614   -3700404.86346  -2883423.49161
  23817156.3834   -2411817.70045  -1729074.42261
  24231364.211     -706269.559 4   -388313.55521
  20743886.4844    -646586.46346   -503832.20962
  22728099.4534   -5547939.81646  -4323057.91161
 91  4 30 19 49 59.9990000  0  6G18G11G16G 6G19G 2
  21000876.9874    1667621.44548   1299442.18962
  23329205.4484   -3730197.13146  -2906638.19261
  23811100.8554   -2443644.46845  -1753874.48861
  24223474.0654    -747744.49544   -420631.58661
  20743005.9564    -651218.69146   -507441.73362
  22718568.8944   -5598021.96746  -4362082.87261
 91  4 30 19 50 14.9990000  0  6G18G11G16G 6G19G 2
  21004768.112     1688067.370 8   1315374.03223
  23323556.612    -3759877.532 6  -2929765.72821
  23805067.4404   -2475358.28845  -1778586.50661
  24215581.7764    -789212.56644   -452944.29061
  20742129.2374    -655817.00446   -511024.82962
  22709048.6284   -5648052.79546  -4401067.83861
 91  4 30 19 50 29.9990000  0  6G18G11G16G 6G19G 2
  21008675.3944    1708600.74148   1331374.00563
  23317929.0264   -3789450.22446  -2952809.32761
  23799053.331    -2506963.408 5  -1803213.86321
  24207693.0894    -830677.49944   -485254.54461
  20741257.4404    -660387.77846   -514586.46262
  22699536.9174   -5698035.29546  -4440015.14261
 91  4 30 19 50 44.9990000  0  6G18G11G16G 6G19G 2
  21012598.9564    1729220.03847   1347440.93062
  23312322.097    -3818916.381 6  -2975769.91521
  23793059.136    -2538460.583 5  -1827757.06621
  24199798.8784    -872140.66244   -517563.42561
  20740394.8154    -664932.42446   -518127.73962
  22690035.9174   -5747970.79346  -4478925.82661
 91  4 30 19 50 59.9990000  0  6G18G11G16G 6G19G 2
  21016540.870     1749932.674 7   1363580.59823
  23306736.4484   -3848267.94146  -2998641.20361
  23787086.8394   -2569842.79645  -1852210.74261
  24191914.300     -913594.612 4   -549865.14921
  20739537.7454    -669443.10646   -521642.55162
  22680542.5814   -5797851.52046  -4517793.82761
 91  4 30 19 51 14.9990000  0  6G18G11G16G 6G19G 2
  21020499.089     1770734.532 7   1379789.78722
  23301172.417    -3877508.548 6  -3021426.04421
  23781136.2614   -2601113.22145  -1876577.25361
  24184025.003     -955043.194 4   -582162.64421
  20738684.0344    -673923.98846   -525134.13962
  22671061.8394   -5847681.19946  -4556622.04661
 91  4 30 19 51 29.9990000  0  6G18G11G16G 6G19G 2
  21024475.1514    1791627.63348   1396070.08662
  23295629.542    -3906636.122 6  -3044122.80321
  23775206.4804   -2632270.10645  -1900855.32261
  24176138.9484    -996484.67444   -614454.65161
  20737833.8784    -678373.33947   -528601.15762
  22661589.1054   -5897457.97446  -4595409.04661
 91  4 30 19 51 44.9990000  0  6G18G11G16G 6G19G 2
  21028467.8784    1812611.92247   1412421.45163
  23290108.651    -3935650.406 6  -3066731.28621
  23769298.0814   -2663313.28645  -1925044.77961
  24168252.464    -1037919.083 4   -646741.10621
  20736997.8234    -682791.11146   -532043.56862
  22652127.1124   -5947181.63746  -4634154.65761
 91  4 30 19 51 59.9990000  0  6G18G11G16G 6G19G 2
  21032478.5194    1833686.30547   1428843.01563
  23284608.722    -3964551.954 6  -3089251.92421
  23763410.175    -2694243.129 5  -1949145.94721
  24160369.276    -1079347.194 4   -679022.68421
  20736163.7374    -687177.76146   -535461.73062
  22642674.3234   -5996852.69346  -4672859.28061
 91  4 30 19 52 14.9990000  0  6G18G11G16G 6G19G 2
  21036506.214     1854852.679 7   1445336.25023
  23279129.323    -3993338.496 6  -3111682.94521
  23757550.5424   -2725057.68045  -1973157.27061
  24152489.456    -1120767.139 4   -711297.89221
  20735333.9334    -691531.41346   -538854.17862
  22633232.206    -6046469.138 6  -4711521.34421
 91  4 30 19 52 29.9990000  0  6G18G11G16G 6G19G 2
  21040552.9334    1876113.57647   1461903.13963
  23273674.362    -4022007.348 6  -3134022.26821
  23751708.3864   -2755754.26345  -1997076.65261
  24144608.519    -1162176.516 4   -743564.88021
  20734511.6284    -695849.56746   -542218.96562
  22623801.2304   -6096028.39846  -4750138.84661
 91  4 30 19 52 44.9990000  0  6G18G11G16G 6G19G 2
  21044616.3084    1897466.96347   1478542.11062
  23268242.245    -4050560.080 6  -3156271.09921
  23745890.362    -2786334.865 5  -2020905.68421
  24136728.597    -1203577.350 4   -775825.17121
  20733696.2224    -700134.26346   -545557.68062
  22614383.097    -6145532.293 6  -4788713.20821
 91  4 30 19 52 59.9990000  0  6G18G11G16G 6G19G 2
  21048697.315     1918912.065 7   1495252.52423
  23262830.2534   -4078996.70146  -3178429.45061
  23740090.9804   -2816799.53845  -2044644.36561
  24128854.940    -1244970.006 4   -808079.09221
  20732888.4404    -704385.81946   -548870.57562
  22604970.6054   -6194980.94846  -4827244.53561
 91  4 30 19 53 14.9990000  0  6G18G11G16G 6G19G 2
  21052794.6204    1940446.10447   1512032.23363
  23257441.065    -4107319.816 6  -3200499.35421
  23734317.534    -2847150.759 5  -2068294.63921
  24120976.5194   -1286357.39344   -840328.93861
  20732084.7924    -708606.96546   -552159.77062
  22595571.5584   -6244377.12846  -4865734.96561
 91  4 30 19 53 29.9990000  0  6G18G11G16G 6G19G 2
  21056909.480     1962066.722 7   1528879.42123
  23252072.597    -4135531.404 6  -3222482.35721
  23728560.222    -2877390.654 5  -2091858.18221
  24113101.8944   -1327741.73144   -872576.39661
  20731284.5194    -712800.08246   -555427.13062
  22586181.9254   -6293722.96746  -4904186.17361
 91  4 30 19 53 44.9990000  0  6G18G11G16G 6G19G 2
  21061039.526     1983774.767 7   1545794.74323
  23246724.573    -4163630.211 6  -3244377.48521
  23722831.1594   -2907518.36845  -2115334.29161
  24105230.7224   -1369122.18144   -904820.82861
  20730495.5114    -716964.28146   -558671.94862
  22576800.3154   -6343017.29746  -4942597.24261
 91  4 30 19 53 59.9990000  0  6G18G11G16G 6G19G 2
  21065188.5584    2005572.79247   1562780.18063
  23241399.1834   -4191613.26646  -3266182.40561
  23717118.003    -2937530.952 5  -2138720.71521
  24097355.0894   -1410496.09944   -937060.15961
  20729708.4804    -721096.62346   -561891.94762
  22567430.6834   -6392257.16146  -4980965.86761
 91  4 30 19 54 14.9990000  0  6G18G11G16G 6G19G 2
  21069353.2924    2027459.73347   1579834.90263
  23236098.0654   -4219481.30946  -3287897.71461
  23711428.7144   -2967428.98345  -2162017.84361
  24089483.3864   -1451864.33844   -969295.05561
  20728927.9644    -725198.21846   -565087.98762
  22558071.081    -6441443.576 6  -5019292.84121
 91  4 30 19 54 29.9990000  0  6G18G11G16G 6G19G 2
  21073535.144     2049436.869 7   1596959.89423
  23230816.050    -4247232.750 6  -3309522.16721
  23705761.3154   -2997211.29145  -2185224.83261
  24081610.042    -1493225.744 4  -1001524.65721
  20728151.3084    -729267.58046   -568258.91462
  22548721.5504   -6490574.98446  -5057576.95861
 91  4 30 19 54 44.9990000  0  6G18G11G16G 6G19G 2
  21077733.8154    2071501.84447   1614153.31863
  23225555.6444   -4274869.56046  -3331057.29161
  23700116.6204   -3026880.01645  -2208343.29661
  24073739.3864   -1534582.55644  -1033750.65961
  20727384.7064    -733307.00446   -571406.51062
  22539381.3474   -6539653.55546  -5095819.89861
 91  4 30 19 54 59.9990000  0  6G18G11G16G 6G19G 2
  21081950.2304    2093658.63547   1631418.28862
  23220320.097    -4302387.176 6  -3352499.53621
  23694495.0504   -3056430.72045  -2231369.79161
  24065875.2374   -1575930.69344  -1065969.91661
  20726623.0344    -737312.23446   -574527.46262
  22530053.3394   -6588674.78546  -5134018.16562
 91  4 30 19 55 14.9990000  0  6G18G11G16G 6G19G 2
  21086184.995     2115909.525 7   1648756.59723
  23215105.972    -4329783.099 6  -3373846.95921
  23688891.417    -3085860.984 5  -2254302.44121
  24058005.831    -1617267.854 4  -1098180.60821
  20725866.4874    -741280.93346   -577619.95062
  22520735.9484   -6637636.22346  -5172169.83561
 91  4 30 19 55 29.9990000  0  6G18G11G16G 6G19G 2
  21090436.5654    2138250.27347   1666164.94263
  23209915.292    -4357061.051 6  -3395102.44721
  23683315.190    -3115174.440 5  -2277144.06821
  24050141.9094   -1658598.05044  -1130385.88361
  20725116.6364    -745217.11146   -580687.10462
  22511429.6904   -6686541.90046  -5210278.05961
 91  4 30 19 55 44.9990000  0  6G18G11G16G 6G19G 2
  21094704.300     2160678.880 7   1683641.73023
  23204747.269    -4384222.833 6  -3416267.42321
  23677755.980    -3144373.092 5  -2299896.25621
  24042278.847    -1699923.398 4  -1162587.38921
  20724374.5734    -749122.92546   -583730.58962
  22502132.8394   -6735393.66146  -5248344.27061
 91  4 30 19 55 59.9990000  0  6G18G11G16G 6G19G 2
  21098989.7844    2183199.83347   1701190.48563
  23199600.980    -4411263.704 6  -3437338.18721
  23672223.6984   -3173452.43045  -2322555.44261
  24034417.1204   -1741239.49044  -1194781.65661
  20723638.8314    -752993.83646   -586746.87562
  22492848.7304   -6784186.92746  -5286364.89661
 91  4 30 19 56 14.9990000  0  6G18G11G16G 6G19G 2
  21103292.4874    2205813.50147   1718811.49662
  23194479.183    -4438182.671 6  -3458313.95521
  23666712.620    -3202411.541 5  -2345120.95621
  24026556.323    -1782545.566 4  -1226968.10821
  20722909.4174    -756829.11946   -589735.40262
  22483574.823    -6832920.882 6  -5324339.30721
 91  4 30 19 56 29.9990000  0  6G18G11G16G 6G19G 2
  21107612.534     2228513.907 7   1736500.07323
  23189377.315    -4464985.315 6  -3479199.07421
  23661223.6984   -3231256.23945  -2367597.33161
  24018695.1834   -1823847.66345  -1259151.50161
  20722182.6444    -760634.47746   -592700.61262
  22474312.0114   -6881601.12646  -5362271.86861
 91  4 30 19 56 44.9990000  0  6G18G11G16G 6G19G 2
  21111948.808     2251301.506 7   1754256.59623
  23184299.855    -4491670.844 6  -3499992.94621
  23655755.878    -3259985.588 5  -2389983.81821
  24010837.8394   -1865145.19145  -1291331.29361
  20721466.5974    -764409.30546   -595642.03662
  22465058.683    -6930226.991 6  -5400162.04621
 91  4 30 19 56 59.9990000  0  6G18G11G16G 6G19G 2
  21116302.261     2274179.136 7   1772083.27023
  23179244.831    -4518236.132 6  -3520693.12121
  23650314.7064   -3288596.88445  -2412278.30561
  24002981.0584   -1906435.35145  -1323505.37561
  20720751.8784    -768150.71746   -598557.41562
  22455814.3394   -6978795.45046  -5438007.50461
 91  4 30 19 57 14.9990000  0  6G18G11G16G 6G19G 2
  21120673.511     2297146.655 7   1789979.98323
  23174212.597    -4544680.925 6  -3541299.39221
  23644892.8234   -3317090.00445  -2434480.71561
  23995122.9644   -1947718.16144  -1355673.72161
  20720047.7374    -771858.81646   -601446.83962
  22446584.151    -7027306.392 6  -5475808.13821
 91  4 30 19 57 29.9990000  0  6G18G11G16G 6G19G 2
  21125060.7694    2320201.33047   1807944.63463
  23169202.495    -4571007.450 6  -3561813.51421
  23639490.011    -3345467.345 5  -2456592.90721
  23987267.698    -1988996.204 5  -1387838.34721
  20719346.7304    -775536.10846   -604312.25562
  22437363.8554   -7075762.18646  -5513565.79661
 91  4 30 19 57 44.9990000  0  6G18G11G16G 6G19G 2
  21129465.3554    2343347.64947   1825980.70263
  23164215.8234   -4597210.94946  -3582231.77661
  23634113.487    -3373724.083 5  -2478611.12921
  23979416.3084   -2030265.04744  -1419995.81061
  20718655.6984    -779177.90746   -607150.01662
  22428154.4254   -7124158.14646  -5551276.83861
 91  4 30 19 57 59.9990000  0  6G18G11G16G 6G19G 2
  21133885.3474    2366579.59447   1844083.45963
  23159251.058    -4623297.115 6  -3602558.60121
  23628759.651    -3401865.875 5  -2500539.76921
  23971560.6204   -2071530.56144  -1452150.68761
  20717967.1984    -782790.23846   -609964.81762
  22418954.1514   -7172500.25046  -5588945.91761
 91  4 30 19 58 14.9990000  0  6G18G11G16G 6G19G 2
  21138322.901     2389899.096 7   1862254.42423
  23154311.417    -4649263.731 6  -3622792.27921
  23623425.3784   -3429890.41645  -2522377.05761
  23963708.386    -2112790.893 4  -1484301.48221
  20717286.1054    -786371.04846   -612755.05462
  22409765.8554   -7220786.42546  -5626571.40861
 91  4 30 19 58 29.9990000  0  6G18G11G16G 6G19G 2
  21142777.519     2413304.535 7   1880492.35123
  23149391.651    -4675111.585 6  -3642933.41821
  23618115.284    -3457799.144 5  -2544124.10821
  23955860.1834   -2154047.30544  -1516449.25061
  20716608.4334    -789921.54546   -615521.67362
  22400587.6054   -7269017.64246  -5664154.08261
 91  4 30 19 58 44.9990000  0  6G18G11G16G 6G19G 2
  21147248.0264    2436797.20447   1898798.25163
  23144495.730    -4700839.215 6  -3662980.87321
  23612827.105    -3485590.521 5  -2565779.69021
  23948007.745    -2195298.514 4  -1548592.98021
  20715940.8704    -793440.46546   -618263.68362
  22391420.7924   -7317192.43546  -5701692.78561
 91  4 30 19 58 59.9990000  0  6G18G11G16G 6G19G 2
  21151735.409     2460379.290 7   1917173.85823
  23139623.394    -4726444.093 6  -3682932.67821
  23607557.5894   -3513262.22245  -2587342.05261
  23940161.2304   -2236542.26444  -1580730.87161
  20715275.4094    -796925.45346   -620979.25662
  22382263.5114   -7365308.32846  -5739185.59461
 91  4 30 19 59 14.9990000  0  6G18G11G16G 6G19G 2
  21156239.6594    2484047.55547   1935616.60063
  23134774.253    -4751929.109 6  -3702791.10021
  23602316.1054   -3540817.38245  -2608813.57161
  23932313.3704   -2277781.75344  -1612865.44161
  20714620.9954    -800379.48546   -623670.70562
  22373117.7064   -7413368.23346  -5776634.77561
 91  4 30 19 59 29.9990000  0  6G18G11G16G 6G19G 2
  21160760.3314    2507803.66547   1954127.79162
  23129946.698    -4777292.382 6  -3722554.63221
  23597096.175    -3568254.292 5  -2630192.95621
  23924466.1364   -2319015.27544  -1644995.39161
  20713968.1674    -803801.07246   -626336.87062
  22363983.7374   -7461370.58246  -5814039.11161
 91  4 30 19 59 44.9990000  0  6G18G11G16G 6G19G 2
  21165298.628     2531650.549 7   1972709.73522
  23125145.573    -4802530.483 6  -3742220.63621
  23591897.0194   -3595569.36745  -2651477.43761
  23916621.612    -2360239.834 4  -1677118.33221
  20713325.4094    -807186.98846   -628975.24462
  22354860.7064   -7509311.91646  -5851395.89761
 91  4 30 19 59 59.9990000  0  6G18G11G16G 6G19G 2
  21169852.620     2555583.490 7   1991358.73223
  23120366.386    -4827647.541 6  -3761792.32121
  23586724.042    -3622766.813 5  -2672670.22821
  23908776.940    -2401459.799 4  -1709237.70421
  20712684.6674    -810541.47346   -631589.12662
  22345748.8314   -7557196.52246  -5888708.48961
 91  4 30 20  0 14.9990000  0  6G18G11G16G 6G19G 2
  21174423.1204    2579598.24647   2010071.46163
  23115608.245    -4852647.573 6  -3781272.81521
  23581568.534    -3649850.984 5  -2693774.76621
  23900933.917    -2442679.492 4  -1741356.85421
  20712052.7224    -813868.84246   -634181.88062
  22336647.2534   -7605028.61846  -5925980.15461
 91  4 30 20  0 29.9990000  0  6G18G11G16G 6G19G 2
  21179009.6674    2603702.16347   2028853.66662
  23110874.394    -4877523.129 6  -3800656.31521
  23576436.136    -3676814.510 5  -2714785.29221
  23893093.1444   -2483891.78244  -1773470.24361
  20711426.3704    -817161.95246   -636747.94162
  22327554.7694   -7652800.69646  -5963205.06061
 91  4 30 20  0 44.9990000  0  6G18G11G16G 6G19G 2
  21183613.886     2627897.037 7   2047706.76622
  23106164.3704   -4902271.90946  -3819941.04461
  23571332.1124   -3703655.10245  -2735700.01361
  23885251.8784   -2525094.51344  -1805576.16861
  20710806.0734    -820418.59446   -639285.58662
  22318476.3474   -7700510.48246  -6000381.42561
 91  4 30 20  0 59.9990000  0  6G18G11G16G 6G19G 2
  21188234.6054    2652180.78047   2066629.10562
  23101479.722    -4926895.599 6  -3839128.29121
  23566246.136    -3730374.607 5  -2756520.39421
  23877411.292    -2566289.749 4  -1837676.27321
  20710192.5114    -823640.89046   -641796.46462
  22309408.8864   -7748159.87446  -6037510.72861
 91  4 30 20  1 14.9990000  0  6G18G11G16G 6G19G 2
  21192873.105     2676554.380 7   2085621.44822
  23096816.589    -4951392.713 6  -3858216.90821
  23561185.425    -3756971.836 5  -2777245.46621
  23869575.558    -2607476.334 4  -1869769.61921
  20709587.3704    -826827.33646   -644279.40962
  22300353.1204   -7795747.65146  -6074592.02061
 91  4 30 20  1 29.9990000  0  6G18G11G16G 6G19G 2
  21197526.448     2701008.439 7   2104676.50622
  23092178.292    -4975772.528 6  -3877214.11821
  23556145.1984   -3783455.98245  -2797882.46661
  23861734.0974   -2648663.72744  -1901863.61761
  20708984.2614    -829987.46946   -646741.85562
  22291307.847    -7843283.154 6  -6111632.58721
 91  4 30 20  1 44.9990000  0  6G18G11G16G 6G19G 2
  21202196.683     2725550.718 7   2123800.31222
  23087563.464    -5000026.732 6  -3896113.45521
  23551125.9874   -3809819.01545  -2818425.05461
  23853901.7844   -2689843.87444  -1933951.95161
  20708391.1904    -833113.04546   -649177.36362
  22282273.3704   -7890758.13646  -6148625.98461
 91  4 30 20  1 59.9990000  0  6G18G11G16G 6G19G 2
  21206884.542     2750182.875 7   2142994.14122
  23082972.378    -5024153.379 6  -3914913.39821
  23546134.034    -3836058.963 5  -2838871.77221
  23846069.136    -2731015.073 5  -1966033.31321
  20707803.1054    -836202.47646   -651584.71062
  22273250.753    -7938170.703 6  -6185570.75621
 91  4 30 20  2 14.9990000  0  6G18G11G16G 6G19G 2
  21211589.065     2774905.641 7   2162258.58922
  23078403.862    -5048151.305 6  -3933613.04121
  23541166.394    -3862174.817 5  -2859221.75921
  23838235.776    -2772176.515 5  -1998107.10021
  20707222.5194    -839254.75646   -653963.10862
  22264241.1284   -7985519.83946  -6222466.09561
 91  4 30 20  2 29.9990000  0  6G18G11G16G 6G19G 2
  21216312.1834    2799723.67547   2181597.25562
  23073864.784    -5072015.506 6  -3952208.47821
  23536218.6984   -3888161.66645  -2879471.25161
  23830405.519    -2813323.300 5  -2030169.43621
  20706650.7694    -842264.92146   -656308.69462
  22255243.9804   -8032800.54147  -6259308.11261
 91  4 30 20  2 44.9990000  0  6G18G11G16G 6G19G 2
  21221050.675     2824629.328 7   2201004.20122
  23069345.7614   -5095753.03246  -3970705.21961
  23531298.042    -3914027.006 5  -2899626.04821
  23822575.550    -2854463.232 5  -2062226.45821
  20706083.2224    -845240.36946   -658627.22162
  22246257.0814   -8080019.98346  -6296102.39761
 91  4 30 20  2 59.9990000  0  6G18G11G16G 6G19G 2
  21225806.487     2849620.464 7   2220477.76222
  23064854.1754   -5119366.05246  -3989104.94361
  23526397.175    -3939773.090 5  -2919687.91421
  23814745.5734   -2895598.18245  -2094279.55861
  20705521.1674    -848183.55846   -660920.61762
  22237282.573    -8127180.756 6  -6332850.96721
 91  4 30 20  3 14.9990000  0  6G18G11G16G 6G19G 2
  21230578.370     2874696.108 7   2240017.17422
  23060383.315    -5142855.196 6  -4007408.12621
  23521522.284    -3965400.489 5  -2939657.31221
  23806919.144    -2936729.286 5  -2126329.68821
  20704969.0734    -851095.35346   -663189.54962
  22228319.995    -8174283.401 6  -6369554.24921
 91  4 30 20  3 29.9990000  0  6G18G11G16G 6G19G 2
  21235367.3234    2899858.95647   2259624.52762
  23055937.815    -5166217.102 6  -4025612.16421
  23516668.1204   -3990905.76645  -2959531.53661
  23799094.5114   -2977853.51545  -2158374.44961
  20704422.6904    -853972.38946   -665431.39862
  22219369.1984   -8221324.60446  -6406209.64361
 91  4 30 20  3 44.9990000  0  6G18G11G16G 6G19G 2
  21240172.276     2925112.083 7   2279302.21222
  23051516.0194   -5189448.53446  -4043714.53861
  23511836.245    -4016285.831 5  -2979308.19021
  23791271.7304   -3018967.78145  -2190411.46461
  20703881.1904    -856811.47046   -667643.67062
  22210428.964    -8268301.221 7  -6442814.71321
 91  4 30 20  3 59.9990000  0  6G18G11G16G 6G19G 2
  21244993.980     2950448.975 7   2299045.16422
  23047120.3394   -5212555.65546  -4061720.04661
  23507030.6834   -4041546.90045  -2998992.12261
  23783447.995    -3060078.478 5  -2222445.70021
  20703344.4874    -859619.16646   -669831.48762
  22201500.026    -8315219.532 6  -6479374.35421
 91  4 30 20  4 14.9990000  0  6G18G11G16G 6G19G 2
  21249831.4014    2975873.36647   2318856.31262
  23042746.6904   -5235534.17146  -4079625.35361
  23502247.0504   -4066684.82945  -3018580.11561
  23775623.073    -3101181.631 5  -2254474.04821
  20702819.3314    -862391.41746   -671991.68562
  22192584.448    -8362075.383 7  -6515885.32121
 91  4 30 20  4 29.9990000  0  6G18G11G16G 6G19G 2
  21254685.4404    3001381.41947   2338732.66162
  23038397.315    -5258387.815 6  -4097433.35721
  23497484.526    -4091703.696 5  -3038075.30321
  23767803.526    -3142281.299 5  -2286499.68121
  20702300.3624    -865132.09546   -674127.27862
  22183677.276    -8408872.692 6  -6552350.67421
 91  4 30 20  4 44.9990000  0  6G18G11G16G 6G19G 2
  21259556.808     3026977.800 7   2358677.81622
  23034073.2534   -5281111.46446  -4115140.06161
  23492748.948    -4116598.396 5  -3057473.77021
  23759986.956    -3183372.611 5  -2318518.80821
  20701783.8554    -867836.26646   -676234.42562
  22174786.464    -8455606.364 7  -6588766.44421
 91  4 30 20  4 59.9990000  0  6G18G11G16G 6G19G 2
  21264443.2844    3052657.14247   2378687.63162
  23029774.7614   -5303710.20446  -4132749.43261
  23488030.5734   -4141374.06145  -3076779.46461
  23752168.519    -3224460.842 5  -2350535.52921
  20701275.4874    -870509.22146   -678317.24662
  22165904.198    -8502281.525 7  -6625136.62121
 91  4 30 20  5 14.9990000  0  6G18G11G16G 6G19G 2
  21269346.737     3078423.855 7   2398765.51622
  23025498.651    -5326178.991 6  -4150257.52921
  23483343.487    -4166026.013 5  -3095988.75321
  23744350.683    -3265541.210 5  -2382546.13021
  20700772.9094    -873146.12946   -680371.97662
  22157033.448    -8548893.151 7  -6661457.29021
 91  4 30 20  5 29.9990000  0  6G18G11G16G 6G19G 2
  21274267.0264    3104281.58247   2418914.34962
  23021247.190    -5348514.021 6  -4167661.40521
  23478676.386    -4190550.326 5  -3115098.60721
  23736532.4644   -3306610.23645  -2414547.88661
  20700280.1674    -875743.33046   -682395.77462
  22148176.511    -8595437.674 7  -6697725.67321
 91  4 30 20  5 44.9990000  0  6G18G11G16G 6G19G 2
  21279204.8944    3130225.47847   2439130.31862
  23017023.042    -5370719.642 6  -4184964.44221
  23474032.933    -4214951.448 5  -3134112.44121
  23728718.2694   -3347672.46145  -2446544.32461
  20699790.8864    -878305.42846   -684392.21962
  22139330.550    -8641919.483 7  -6733945.18621
 91  4 30 20  5 59.9990000  0  6G18G11G16G 6G19G 2
  21284158.2844    3156257.46947   2459414.91062
  23012821.776    -5392793.597 6  -4202164.88221
  23469414.3784   -4239227.40845  -3153028.78161
  23720907.1364   -3388725.90645  -2478533.95561
  20699310.4954    -880830.42146   -686359.74462
  22130499.097    -8688336.475 7  -6770114.19421
 91  4 30 20  6 14.9990000  0  6G18G11G16G 6G19G 2
  21289128.675     3182374.867 7   2479766.05722
  23008647.073    -5414738.561 6  -4219264.80921
  23464816.4174   -4263381.02845  -3171849.75961
  23713095.792    -3429773.376 5  -2510518.90921
  20698837.2844    -883320.86146   -688300.34462
  22121677.011    -8734691.182 7  -6806234.66521
 91  4 30 20  6 29.9990000  0  6G18G11G16G 6G19G 2
  21294113.2844    3208576.83847   2500183.10562
  23004493.448    -5436554.701 6  -4236264.34921
  23460242.9724   -4287412.45845  -3190575.55261
  23705286.370    -3470815.384 5  -2542499.61821
  20698371.2764    -885777.18846   -690214.37062
  22112868.034    -8780983.920 7  -6842306.85221
 91  4 30 20  6 44.9990000  0  6G18G11G16G 6G19G 2
  21299117.480     3234865.352 7   2520667.58422
  23000366.9174   -5458239.57746  -4253161.61961
  23455692.0264   -4311319.79445  -3209204.62961
  23697478.7844   -3511849.76445  -2574474.35561
  20697909.1754    -888197.20146   -692100.10162
  22104070.042    -8827212.298 7  -6878328.88821
 91  4 30 20  6 59.9990000  0  6G18G11G16G 6G19G 2
  21304135.7064    3261240.14147   2541219.29962
  22996266.4484   -5479793.37546  -4269956.75161
  23451167.1054   -4335102.99845  -3227737.01261
  23689670.972    -3552876.984 5  -2606443.54021
  20697453.5034    -890581.24646   -693957.79962
  22095286.175    -8873376.835 7  -6914301.18121
 91  4 30 20  7 14.9990000  0  6G18G11G16G 6G19G 2
  21309170.4334    3287700.94747   2561838.04362
  22992188.745    -5501215.788 6  -4286649.49721
  23446664.4724   -4358761.92245  -3246172.51961
  23681862.5424   -3593896.93945  -2638407.06261
  20697008.9724    -892929.26346   -695787.42462
  22086513.972    -8919477.318 7  -6950223.56221
 91  4 30 20  7 29.9990000  0  6G18G11G16G 6G19G 2
  21314223.5424    3314251.93147   2582527.02862
  22988136.948    -5522502.285 6  -4303236.33021
  23442187.0344   -4382292.05045  -3264507.66961
  23674061.3864   -3634905.36645  -2670361.60061
  20696570.1904    -895236.73446   -697585.45962
  22077753.073    -8965509.201 7  -6986092.47621
 91  4 30 20  7 44.9990000  0  6G18G11G16G 6G19G 2
  21319293.839     3340892.079 7   2603285.50222
  22984112.706    -5543653.748 6  -4319717.95221
  23437735.1904   -4405694.44145  -3282743.28461
  23666261.120    -3675903.221 5  -2702307.88421
  20696136.5894    -897504.74246   -699352.74162
  22069007.440    -9011473.528 7  -7021908.76221
 91  4 30 20  7 59.9990000  0  6G18G11G16G 6G19G 2
  21324378.6124    3367615.03747   2624108.52662
  22980111.8314   -5564676.17146  -4336099.02361
  23433304.9094   -4428975.34245  -3300884.24061
  23658458.034    -3716896.894 5  -2734250.93821
  20695711.0894    -899739.56046   -701094.16462
  22060271.948    -9057376.376 7  -7057677.14321
 91  4 30 20  8 14.9990000  0  6G18G11G16G 6G19G 2
  21329481.8314    3394429.09647   2645002.53662
  22976137.8154   -5585560.74846  -4352372.68561
  23428897.7144   -4452125.93145  -3318923.64861
  23650657.862    -3757877.797 5  -2766184.02221
  20695295.1124    -901932.47146   -702802.93362
  22051551.386    -9103208.919 7  -7093390.73721
 91  4 30 20  8 29.9990000  0  6G18G11G16G 6G19G 2
  21334599.651     3421325.463 7   2665960.66622
  22972189.2374   -5606315.92246  -4368545.51161
  23424518.4094   -4475154.81045  -3336868.23161
  23642858.300    -3798854.636 5  -2798113.93321
  20694884.6514    -904092.18346   -704485.83062
  22042841.315    -9148979.745 7  -7129056.24221
 91  4 30 20  8 44.9990000  0  6G18G11G16G 6G19G 2
  21339734.956     3448312.041 7   2686989.09022
  22968264.3944   -5626933.42246  -4384611.05561
  23420160.534    -4498053.994 5  -3354711.74721
  23635062.6284   -3839819.34745  -2830034.40561
  20694481.3864    -906210.47046   -706136.45262
  22034143.644    -9194680.726 7  -7164667.32021
 91  4 30 20  8 59.9990000  0  6G18G11G16G 6G19G 2
  21344886.292     3475385.130 7   2708084.92022
  22964367.3004   -5647416.79746  -4400572.08661
  23415823.3784   -4520826.99145  -3372456.92061
  23627272.1364   -3880775.68045  -2861948.33161
  20694084.3784    -908291.08146   -707757.71262
  22025460.651    -9240315.392 7  -7200226.72821
 91  4 30 20  9 14.9990000  0  6G18G11G16G 6G19G 2
  21350054.800     3502540.729 7   2729245.04922
  22960494.8944   -5667769.65746  -4416431.42361
  23411514.417    -4543477.340 5  -3390106.56321
  23619477.237    -3921727.358 5  -2893858.66621
  20693696.5974    -910337.62246   -709352.43162
  22016786.917    -9285887.354 7  -7235737.27421
 91  4 30 20  9 29.9990000  0  6G18G11G16G 6G19G 2
  21355239.011     3529781.684 7   2750471.68922
  22956647.0424   -5687988.83646  -4432186.57761
  23407229.878    -4566002.186 5  -3407658.37721
  23611687.855    -3962671.523 5  -2925763.11421
  20693311.9724    -912347.04246   -710918.21762
  22008127.784    -9331393.559 7  -7271196.58221
 91  4 30 20  9 44.9990000  0  6G18G11G16G 6G19G 2
  21360438.784     3557110.182 7   2771766.54122
  22952825.1444   -5708071.75546  -4447835.57461
  23402967.9644   -4588398.93145  -3425110.38861
  23603899.003    -4003605.725 5  -2957659.83221
  20692939.2924    -914316.83846   -712453.12862
  21999481.3394   -9376831.48547  -7306602.68561
 91  4 30 20  9 59.9990000  0  6G18G11G16G 6G19G 2
  21365654.948     3584522.325 7   2793126.58222
  22949028.972    -5728022.136 6  -4463381.28621
  23398729.8084   -4610671.60145  -3442465.68761
  23596105.847    -4044534.058 5  -2989551.95821
  20692568.9404    -916251.05546   -713960.31762
  21990847.284    -9422204.952 7  -7341958.55621
 91  4 30 20 10 14.9990000  0  6G18G11G16G 6G19G 2
  21370887.855     3612016.786 7   2814550.76822
  22945258.5344   -5747840.63546  -4478824.24161
  23394512.9014   -4632820.89745  -3459724.89761
  23588323.144    -4085457.381 5  -3021440.18021
  20692209.9254    -918150.68546   -715440.55862
  21982224.612    -9467514.727 7  -7377264.79922
 91  4 30 20 10 29.9990000  0  6G18G11G16G 6G19G 2
  21376137.198     3639606.269 7   2836048.98422
  22941514.4874   -5767514.30246  -4494154.33161
  23390324.284    -4654834.045 5  -3476877.98021
  23580539.245    -4126362.910 5  -3053314.54221
  20691855.1834    -920002.72546   -716883.71062
  21973617.019    -9512748.013 7  -7412511.44122
 91  4 30 20 10 44.9990000  0  6G18G11G16G 6G19G 2
  21381403.737     3667277.385 7   2857610.81822
  22937796.2144   -5787056.32246  -4509381.84961
  23386159.7224   -4676723.95045  -3493935.05161
  23572755.464    -4167264.128 5  -3085185.52321
  20691510.9874    -921820.53446   -718300.19362
  21965021.1834   -9557918.04347  -7447708.79862
 91  4 30 20 10 59.9990000  0  6G18G11G16G 6G19G 2
  21386685.0424    3695032.75247   2879238.31462
  22934101.519    -5806463.714 6  -4524504.45121
  23382018.081    -4698488.189 5  -3510894.19921
  23564971.9014   -4208158.24145  -3117051.00261
  20691172.1834    -923601.34546   -719687.84262
  21956438.222    -9603021.818 7  -7482854.52222
 91  4 30 20 11 14.9990000  0  6G18G11G16G 6G19G 2
  21391982.7534    3722873.38447   2900932.25162
  22930435.1674   -5825734.96646  -4539520.97761
  23377899.9874   -4720125.04245  -3527754.08561
  23557192.183    -4249043.873 5  -3148909.86621
  20690840.6904    -925343.52546   -721045.39262
  21947868.894    -9648057.856 7  -7517947.46222
 91  4 30 20 11 29.9990000  0  6G18G11G16G 6G19G 2
  21397296.425     3750798.647 7   2922692.12522
  22926793.519    -5844870.438 6  -4554431.69821
  23373808.7694   -4741635.22045  -3544515.24861
  23549413.847    -4289921.637 5  -3180762.58021
  20690515.1364    -927047.69247   -722373.32162
  21939310.4174   -9693026.68147  -7552988.03262
 91  4 30 20 11 44.9990000  0  6G18G11G16G 6G19G 2
  21402627.292     3778803.612 7   2944514.10022
  22923177.3234   -5863874.92646  -4569240.35061
  23369739.1754   -4763023.61445  -3561181.50161
  23541634.159    -4330796.501 5  -3212613.04121
  20690198.0814    -928718.83346   -723675.51062
  21930764.081    -9737933.059 7  -7587979.94522
 91  4 30 20 11 59.9990000  0  6G18G11G16G 6G19G 2
  21407971.300     3806893.483 7   2966402.23722
  22919586.3624   -5882742.59746  -4583942.40361
  23365691.8704   -4784284.74645  -3577748.63061
  23533861.769    -4371662.886 5  -3244456.89221
  20689886.1054    -930351.33247   -724947.59262
  21922232.534    -9782771.394 7  -7622918.83722
 91  4 30 20 12 14.9990000  0  6G18G11G16G 6G19G 2
  21413333.105     3835070.850 7   2988358.54522
  22916022.0194   -5901470.67746  -4598535.67361
  23361668.6834   -4805415.72245  -3594214.33161
  23526084.4254   -4412518.17845  -3276292.11861
  20689585.4874    -931942.32546   -726187.33662
  21913713.870    -9827538.880 7  -7657802.51722
 91  4 30 20 12 29.9990000  0  6G18G11G16G 6G19G 2
  21418711.003     3863335.402 7   3010382.78622
  22912484.8004   -5920059.35746  -4613020.32661
  23357673.651    -4826416.745 5  -3610578.76221
  23518314.331    -4453362.786 5  -3308118.98921
  20689288.3864    -933492.17646   -727395.01762
  21905207.886    -9872235.813 7  -7692631.22722
 91  4 30 20 12 44.9990000  0  6G18G11G16G 6G19G 2
  21424107.409     3891685.032 7   3032473.32222
  22908974.870    -5938510.359 6  -4627397.68821
  23353704.3084   -4847290.06845  -3626843.68261
  23510538.784    -4494198.648 5  -3339939.07921
  20689002.5974    -935002.79146   -728572.12662
  21896715.917    -9916864.032 7  -7727406.38522
 91  4 30 20 12 59.9990000  0  6G18G11G16G 6G19G 2
  21429518.331     3920118.531 7   3054629.21922
  22905490.7064   -5956824.39746  -4641668.33761
  23349755.4804   -4868036.16245  -3643009.47261
  23502772.7144   -4535026.67745  -3371753.04461
  20688723.0654    -936475.14246   -729719.42362
  21888236.5814   -9961424.09847  -7762128.44762
 91  4 30 20 13 14.9990000  0  6G18G11G16G 6G19G 2
  21434944.886     3948637.052 7   3076851.36322
  22902029.4174   -5974999.82446  -4655830.97561
  23345833.1904   -4888653.41345  -3659074.86761
  23495001.9174   -4575845.42145  -3403559.76061
  20688450.2614    -937907.40046   -730835.47562
  21879770.753   -10005914.427 7  -7796796.15822
 91  4 30 20 13 29.9990000  0  6G18G11G16G 6G19G 2
  21440385.776     3977237.406 7   3099137.26922
  22898597.6594   -5993039.58946  -4669887.90361
  23341931.9644   -4909145.08045  -3675042.38561
  23487237.7374   -4616657.99245  -3435361.68761
  20688183.6204    -939302.63247   -731922.67662
  21871316.5424  -10050338.23247  -7831412.03962
 91  4 30 20 13 44.9990000  0  6G18G11G16G 6G19G 2
  21445847.2694    4005929.97147   3121495.02662
  22895190.8394   -6010933.00046  -4683830.78561
  23338060.2844   -4929500.33945  -3690903.62361
  23479477.1754   -4657454.05545  -3467150.73761
  20687928.3624    -940650.57746   -732973.02462
  21862877.5344  -10094685.02047  -7865967.91062
 91  4 30 20 13 59.9990000  0  6G18G11G16G 6G19G 2
  21451324.956     4034716.808 7   3143926.23922
  22891817.1124   -6028677.82846  -4697657.89561
  23334214.136    -4949717.403 5  -3706657.16521
  23471713.440    -4698231.503 5  -3498925.29021
  20687679.8084    -941948.99246   -733984.78062
  21854453.503   -10138952.417 7  -7900461.91322
 91  4 30 20 14 14.9990000  0  6G18G11G16G 6G19G 2
  21456821.042     4063594.544 7   3166428.29822
  22888467.167    -6046277.100 6  -4711371.58021
  23330390.9804   -4969799.18645  -3722305.29761
  23463958.448    -4738993.518 5  -3530687.81121
  20687441.9724    -943201.02246   -734960.39462
  21846044.261   -10183143.441 7  -7934896.40922
 91  4 30 20 14 29.9990000  0  6G18G11G16G 6G19G 2
  21462332.815     4092558.525 7   3188997.55822
  22885142.5424   -6063734.92646  -4724975.05461
  23326593.7064   -4989750.14045  -3737851.50061
  23456204.128    -4779744.300 5  -3562441.58421
  20687211.2614    -944410.83046   -735903.10662
  21837649.526   -10227262.224 7  -7969274.60922
 91  4 30 20 14 44.9990000  0  6G18G11G16G 6G19G 2
  21467861.120     4121608.946 7   3211634.18122
  22881849.3784   -6081050.91146  -4738467.99761
  23322821.9014   -5009569.92845  -3753295.48861
  23448451.956    -4820483.665 5  -3594186.46121
  20686989.6364    -945577.98046   -736812.58062
  21829267.1444  -10271308.49347  -8003596.30762
 91  4 30 20 14 59.9990000  0  6G18G11G16G 6G19G 2
  21473407.222     4150755.654 7   3234345.82222
  22878584.2304   -6098215.04146  -4751842.61761
  23319075.5424   -5029248.55145  -3768629.48361
  23440705.550    -4861201.891 5  -3625914.85721
  20686779.0654    -946692.74946   -737681.23562
  21820902.019   -10315272.169 7  -8037853.64622
 91  4 30 20 15 14.9990000  0  6G18G11G16G 6G19G 2
  21478970.612     4179993.941 7   3257128.82822
  22875344.190    -6115231.598 6  -4765102.24221
  23315356.7694   -5048790.31945  -3783856.81861
  23432958.8394   -4901903.31545  -3657630.18161
  20686574.8474    -947759.37146   -738512.37562
  21812549.8394  -10359157.66847  -8072050.06962
 91  4 30 20 15 29.9990000  0  6G18G11G16G 6G19G 2
  21484550.612     4209315.887 7   3279977.01622
  22872134.2454   -6132108.04046  -4778252.69161
  23311663.308    -5068202.699 5  -3798983.33621
  23425213.823    -4942595.661 5  -3689338.40021
  20686377.6054    -948785.56647   -739312.01162
  21804211.972   -10402972.748 7  -8106191.61422
 91  4 30 20 15 44.9990000  0  6G18G11G16G 6G19G 2
  21490149.5344    4238730.71347   3302897.57462
  22868948.0264   -6148835.05146  -4791286.69761
  23307996.058    -5087476.466 5  -3814001.87521
  23417473.2064   -4983269.73645  -3721032.41661
  20686193.6834    -949762.10546   -740072.95262
  21795889.9644  -10446707.90047  -8140270.88462
 91  4 30 20 15 59.9990000  0  6G18G11G16G 6G19G 2
  21495763.589     4268238.713 7   3325890.73322
  22865796.8314   -6165411.81446  -4804203.62561
  23304356.245    -5106611.184 5  -3828912.03321
  23409738.175    -5023924.939 5  -3752711.71921
  20686019.1364    -950688.27946   -740794.64962
  21787582.0814  -10490362.27047  -8174287.20862
 91  4 30 20 16 14.9990000  0  6G18G11G16G 6G19G 2
  21501396.136     4297835.543 7   3348953.11622
  22862669.800    -6181842.487 6  -4817006.72721
  23300740.3154   -5125611.17045  -3843717.21061
  23402003.753    -5064565.656 5  -3784379.71521
  20685849.8554    -951568.43746   -741480.49162
  21779289.808   -10533940.226 7  -8208243.98122
 91  4 30 20 16 29.9990000  0  6G18G11G16G 6G19G 2
  21507044.9954    4327525.35747   3372087.96362
  22859569.440    -6198122.414 6  -4829692.36421
  23297151.3234   -5144471.87545  -3858413.86361
  23394274.058    -5105187.535 5  -3816033.05221
  20685692.1904    -952398.21446   -742127.07262
  21771012.0194  -10577437.32847  -8242137.75962
 91  4 30 20 16 44.9990000  0  6G18G11G16G 6G19G 2
  21512712.8084    4357306.23547   3395293.78662
  22856501.620    -6214253.260 6  -4842261.83321
  23293585.5974   -5163195.26745  -3873003.51061
  23386546.8084   -5145792.37845  -3847673.10261
  20685544.4014    -953179.28846   -742735.70162
  21762749.722   -10620855.185 7  -8275969.78022
 91  4 30 20 16 59.9990000  0  6G18G11G16G 6G19G 2
  21518396.589     4387174.191 7   3418567.45022
  22853459.730    -6230238.842 6  -4854718.11221
  23290048.105    -5181785.175 5  -3887489.13821
  23378820.917    -5186384.002 5  -3879302.87121
  20685405.9174    -953915.29546   -743309.21662
  21754502.714   -10664197.493 7  -8309742.93922
 91  4 30 20 17 14.9990000  0  6G18G11G16G 6G19G 2
  21524098.855     4417139.427 7   3441916.90022
  22850447.425    -6246068.820 6  -4867053.13921
  23286538.7144   -5200231.27345  -3901862.74261
  23371103.0654   -5226952.14545  -3910914.31261
  20685273.7144    -954595.94446   -743839.59862
  21746270.628   -10707453.992 7  -8343449.23222
 91  4 30 20 17 29.9990000  0  6G18G11G16G 6G19G 2
  21529817.3704    4447192.07847   3465334.46662
  22847461.5584   -6261752.25646  -4879273.97761
  23283055.573    -5218542.600 5  -3916131.29221
  23363385.3084   -5267506.15545  -3942514.77461
  20685154.3474    -955230.28446   -744333.89562
  21738052.8624  -10750633.87847  -8377095.82662
 91  4 30 20 17 44.9990000  0  6G18G11G16G 6G19G 2
  21535553.628     4477334.874 7   3488822.27122
  22844509.026    -6277286.432 6  -4891378.51121
  23279596.1674   -5236716.37145  -3930292.67161
  23355668.776    -5308043.538 5  -3974102.25521
  20685042.5894    -955815.97446   -744790.28162
  21729852.448   -10793734.556 7  -8410680.69922
 91  4 30 20 17 59.9990000  0  6G18G11G16G 6G19G 2
  21541307.370     4507566.956 7   3512379.65722
  22841579.589    -6292671.749 6  -4903367.04521
  23276164.6284   -5254753.55045  -3944347.62261
  23347959.6444   -5348564.85645  -4005677.21961
  20684940.8084    -956353.53746   -745209.16562
  21721665.0504  -10836756.51847  -8444204.23762
 91  4 30 20 18 14.9990000  0  6G18G11G16G 6G19G 2
  21547077.3394    4537893.37147   3536010.53862
  22838681.495    -6307902.808 6  -4915235.38521
  23272760.1284   -5272648.70645  -3958291.89661
  23340252.8554   -5389064.84145  -4037235.56361
  20684847.0344    -956837.47846   -745586.26862
  21713494.3624  -10879694.31947  -8477662.19362
 91  4 30 20 18 29.9990000  0  6G18G11G16G 6G19G 2
  21552866.5264    4568312.11547   3559713.37362
  22835810.800    -6322981.500 6  -4926985.00021
  23269381.2144   -5290404.08245  -3972127.26661
  23332549.112    -5429545.417 5  -4068778.77121
  20684764.4804    -957269.85346   -745923.18662
  21705339.1754  -10922549.77647  -8511055.98662
 91  4 30 20 18 44.9990000  0  6G18G11G16G 6G19G 2
  21558670.0194    4598810.83247   3583478.52062
  22832969.300    -6337919.752 6  -4938625.17521
  23266023.6204   -5308031.36345  -3985862.79961
  23324848.4874   -5470018.92445  -4100316.48861
  20684690.3314    -957662.52146   -746229.17062
  21697196.2144  -10965334.83447  -8544394.92462
 91  4 30 20 18 59.9990000  0  6G18G11G16G 6G19G 2
  21564491.3084    4629399.96147   3607314.10962
  22830154.980    -6352706.656 6  -4950147.41721
  23262698.862    -5325519.783 5  -3999490.13121
  23317149.0734   -5510474.43745  -4131840.17261
  20684627.0584    -958004.70546   -746495.81562
  21689070.9644  -11008038.66847  -8577670.57162
 91  4 30 20 19 14.9990000  0  6G18G11G16G 6G19G 2
  21570328.6364    4660079.98447   3631220.52862
  22827369.7064   -6367341.52246  -4961551.19561
  23259397.8944   -5342868.78045  -4013008.82461
  23309453.5034   -5550911.44945  -4163349.44161
  20684571.6674    -958295.82346   -746722.66162
  21680959.698   -11050660.572 7  -8610882.37322
 91  4 30 20 19 29.9990000  0  6G18G11G16G 6G19G 2
  21576183.683     4690845.226 7   3655193.36122
  22824612.831    -6381829.931 6  -4972840.84921
  23256119.5814   -5360084.05345  -4026423.32061
  23301761.2144   -5591335.68045  -4194848.75261
  20684522.5034    -958541.65646   -746914.22662
  21672863.6904  -11093206.12447  -8644034.68362
 91  4 30 20 19 44.9990000  0  6G18G11G16G 6G19G 2
  21582054.550     4721699.372 7   3679235.47922
  22821884.534    -6396167.855 6  -4984013.23821
  23252872.3554   -5377161.56545  -4039730.47261
  23294072.480    -5631743.229 5  -4226335.06521
  20684485.3004    -958738.23046   -747067.40662
  21664783.0734  -11135671.49347  -8677124.51862
 91  4 30 20 19 59.9990000  0  6G18G11G16G 6G19G 2
  21587943.823     4752639.244 7   3703344.39622
  22819183.065    -6410358.058 6  -4995070.52021
  23249646.855    -5394104.461 5  -4052932.73421
  23286384.0654   -5672137.13045  -4257810.73261
  20684457.6124    -958888.31146
  21656717.8554  -11178059.57247  -8710154.12262
 91  4 30 20 20 14.9990000  0  6G18G11G16G 6G19G 2
  21593847.2224    4783664.58647   3727519.90462
  22816511.3084   -6424400.29846  -5006012.50961
  23246447.2694   -5410912.40745  -4066029.84161
  23278702.9174   -5712517.24645  -4289275.67161
  20684437.0734    -958991.76846
  21648664.5114  -11220370.04647  -8743123.25362
 91  4 30 20 20 29.9990000  0  6G18G11G16G 6G19G 2
  21599767.6984    4814774.13047   3751761.00462
  22813868.362    -6438295.758 6  -5016840.13121
  23243274.3004   -5427586.61145  -4079022.72761
  23271019.4014   -5752884.83245  -4320730.84361
  20684425.5974    -959049.80246
  21640628.6444  -11262604.05947  -8776032.80762
 91  4 30 20 20 44.9990000  0  6G18G11G16G 6G19G 2
  21605703.1674    4845970.27247   3776069.58662
  22811250.714    -6452041.573 6  -5027551.12821
  23240128.386    -5444124.509 5  -4091909.39521
  23263339.136    -5793237.271 5  -4352174.21021
  20684425.6514    -959059.58546
  21632606.5654  -11304758.97747  -8808880.73162
 91  4 30 20 20 59.9990000  0  6G18G11G16G 6G19G 2
  21611657.2534    4877252.21347   3800445.03062
  22808667.019    -6465638.364 6  -5038146.01821
  23237006.0584   -5460526.84245  -4104690.44261
  23255665.011    -5833575.312 5  -4383606.36121
  20684434.3314    -959021.94246
  21624601.0504  -11346835.35247  -8841667.45162
 91  4 30 20 21 14.9990000  0  6G18G11G16G 6G19G 2
  21617625.5584    4908619.13647   3824886.68962
  22806104.003    -6479086.910 6  -5048625.39421
  23233909.3474   -5476794.45345  -4117366.48361
  23247989.7304   -5873899.62945  -4415027.80161
  20684447.9174    -958937.41146
  21616608.2534  -11388833.76947  -8874393.42762
 91  4 30 20 21 29.9990000  0  6G18G11G16G 6G19G 2
  21623610.0654    4940073.00447   3849396.09662
  22803574.105    -6492384.449 6  -5058987.10321
  23230842.8314   -5492924.84345  -4129935.60861
  23240320.526    -5914207.990 5  -4446436.81621
  20684473.7144    -958803.59046
  21608630.3554  -11430751.63447  -8907056.62862
 91  4 30 20 21 44.9990000  0  6G18G11G16G 6G19G 2
  21629613.6364    4971615.00447   3873974.18562
  22801074.230    -6505530.126 6  -5069230.47221
  23227798.9874   -5508916.95045  -4142397.00661
  23232653.1364   -5954499.21945  -4477832.48161
  20684508.5894    -958619.41946
  21600669.6754  -11472588.02547  -8939656.34862
 91  4 30 20 21 59.9990000  0  6G18G11G16G 6G19G 2
  21635631.5894    5003245.33647   3898621.09362
  22798601.175    -6518523.206 6  -5079354.93121
  23224783.6444   -5524770.05745  -4154750.06161
  23224987.987    -5994772.860 5  -4509214.44221
  20684553.9724    -958384.28346   -746791.65962
  21592723.8704  -11514342.36047  -8972192.12762
 91  4 30 20 22 14.9990000  0  6G18G11G16G 6G19G 2
  21641669.7924    5034970.59347   3923341.98662
  22796158.776    -6531356.690 6  -5089355.02921
  23221794.5734   -5540477.84645  -4166989.90461
  23217327.159    -6035022.210 5  -4540577.47521
  20684609.0344    -958091.40646   -746563.45862
  21584795.0894  -11556007.76447  -9004658.61462
 91  4 30 20 22 29.9990000  0  6G18G11G16G 6G19G 2
  21647723.3784    5066782.46547   3948130.36862
  22793747.315    -6544038.669 6  -5099237.07021
  23218830.5264   -5556048.38545  -4179122.78061
  23209672.370    -6075255.496 5  -4571927.99221
  20684673.9334    -957748.94146   -746296.60862
  21576881.8004  -11597592.25847  -9037062.05362
 91  4 30 20 22 44.9990000  0  6G18G11G16G 6G19G 2
  21653792.1124    5098676.78747   3972983.00062
  22791361.948    -6556572.742 6  -5109003.86721
  23215892.534    -5571485.133 5  -4191151.40121
  23202021.792    -6115476.445 5  -4603268.90421
  20684748.4254    -957360.25846   -745993.74362
  21568983.1514  -11639099.36547  -9069405.19162
 91  4 30 20 22 59.9990000  0  6G18G11G16G 6G19G 2
  21659877.690     5130658.490 7   3997903.72122
  22789003.269    -6568953.454 6  -5118651.16521
  23212981.8624   -5586782.88945  -4203071.74161
  23194371.2614   -6155679.66645  -4634595.98361
  20684831.3864    -956920.09146   -745650.76462
  21561100.3474  -11680523.83547  -9101683.93862
 91  4 30 20 23 14.9990000  0  6G18G11G16G 6G19G 2
  21665980.792     5162728.474 7   4022893.23322
  22786677.675    -6581180.084 6  -5128178.38421
  23210095.4334   -5601941.01845  -4214883.25761
  23186720.901    -6195864.590 5  -4665908.81121
  20684926.9564    -956427.94046   -745267.27462
  21553233.4174  -11721865.15847  -9133897.89162
 91  4 30 20 23 29.9990000  0  6G18G11G16G 6G19G 2
  21672100.9174    5194885.31747   4047950.42362
  22784379.9644   -6593253.58246  -5137586.28161
  23207239.9014   -5616960.51445  -4226586.76261
  23179076.3394   -6236032.24645  -4697208.19061
  20685028.5814    -955884.79046   -744844.04762
  21545382.6754  -11763124.05147  -9166047.61862
 91  4 30 20 23 44.9990000  0  6G18G11G16G 6G19G 2
  21678237.0344    5227130.34647   4073076.31962
  22782114.651    -6605172.688 6  -5146873.86221
  23204408.1984   -5631840.29645  -4238181.40061
  23171438.331    -6276181.482 5  -4728493.20321
  20685143.5194    -955289.15446   -744379.91762
  21537546.9484  -11804299.12947  -9198132.03162
 91  4 30 20 23 59.9990000  0  6G18G11G16G 6G19G 2
  21684390.2454    5259461.35647   4098269.21362
  22779872.394    -6616939.201 6  -5156042.56021
  23201603.2064   -5646582.34645  -4249668.70161
  23163802.058    -6316314.158 5  -4759765.32321
  20685264.4404    -954642.86946   -743876.32262
  21529726.9484  -11845392.19347  -9230152.53862
 91  4 30 20 24 14.9990000  0  6G18G11G16G 6G19G 2
  21690557.6284    5291877.11547   4123528.15462
  22777663.1124   -6628553.92346  -5165092.96561
  23198823.2844   -5661187.51445  -4261049.36761
  23156166.573    -6356431.287 5  -4791025.31221
  20685397.3554    -953947.00146   -743334.09262
  21521923.5194  -11886404.16047  -9262109.85362
 91  4 30 20 24 29.9990000  0  6G18G11G16G 6G19G 2
  21696742.6904    5324381.73047   4148856.32762
  22775481.2064   -6640012.57946  -5174021.76561
  23196072.2844   -5675651.57345  -4272320.06661
  23148536.050    -6396528.820 5  -4822270.05521
  20685540.5814    -953197.35346   -742749.95462
  21514134.2534  -11927330.86047  -9294000.72962
 91  4 30 20 24 44.9990000  0  6G18G11G16G 6G19G 2
  21702944.7304    5356971.74247   4174251.05262
  22773328.7614   -6651318.23646  -5182831.33461
  23193344.8004   -5689977.92045  -4283483.44761
  23140909.401    -6436609.748 5  -4853501.83521
  20685692.3624    -952396.84946   -742126.19062
  21506361.8234  -11968175.36447  -9325827.55262
 91  4 30 20 24 59.9990000  0  6G18G11G16G 6G19G 2
  21709163.1204    5389642.96847   4199709.05162
  22771207.097    -6662474.695 6  -5191524.65921
  23190645.2924   -5704170.07945  -4294542.26761
  23133284.761    -6476678.026 5  -4884723.76921
  20685852.7304    -951549.41046   -741465.85562
  21498604.5344  -12008941.35347  -9357593.19862
 91  4 30 20 25 14.9990000  0  6G18G11G16G 6G19G 2
  21715396.0504    5422403.78847   4225236.86962
  22769113.480    -6673473.444 6  -5200095.09321
  23187971.573    -5718219.821 5  -4305490.14021
  23125664.026    -6516725.245 5  -4915929.30721
  20686026.0034    -950646.44946   -740762.25362
  21490863.5974  -12049620.41647  -9389291.10862
 91  4 30 20 25 29.9990000  0  6G18G11G16G 6G19G 2
  21721647.6204    5455253.91947   4250834.28661
  22767052.7304   -6684314.46646  -5208542.61261
  23185325.0734   -5732127.31445  -4316327.14961
  23118046.8154   -6556751.49445  -4947118.49061
  20686209.7064    -949687.95346   -740015.37862
  21483138.0194  -12090212.53447  -9420921.26762
 91  4 30 20 25 44.9990000  0  6G18G11G16G 6G19G 2
  21727915.5344    5488194.39947   4276502.09261
  22765018.120    -6694996.686 6  -5216866.39721
  23182705.925    -5745891.478 5  -4327052.47621
  23110434.4954   -6596755.66445  -4978290.44861
  20686401.4094    -948672.95646   -739224.47862
  21475430.8704  -12130716.68647  -9452482.88262
 91  4 30 20 25 59.9990000  0  6G18G11G16G 6G19G 2
  21734200.8784    5521226.89947   4302241.60761
  22763017.4874   -6705517.96046  -5225064.76761
  23180114.1124   -5759510.15145  -4337664.43061
  23102827.878    -6636735.884 5  -5009443.79121
  20686604.5584    -947599.27246   -738387.84162
  21467740.4954  -12171130.60847  -9483974.19162
 91  4 30 20 26 14.9990000  0  6G18G11G16G 6G19G 2
  21740505.0264    5554348.38747   4328050.46461
  22761043.6594   -6715881.09946  -5233139.90461
  23177548.5974   -5772986.27945  -4348165.29961
  23095220.026    -6676694.948 5  -5040580.62821
  20686819.8554    -946469.76946   -737507.71162
  21460066.847   -12211457.188 7  -9515397.44422
 91  4 30 20 26 29.9990000  0  6G18G11G16G 6G19G 2
  21746824.4484    5587555.58647   4353926.11161
  22759102.6364   -6726088.74046  -5241093.87461
  23175010.4404   -5786322.67445  -4358557.29161
  23087622.3154   -6716635.65945  -5071703.16661
  20687045.6754    -945287.27546   -736586.28862
  21452409.4174  -12251699.01747  -9546754.65362
 91  4 30 20 26 44.9990000  0  6G18G11G16G 6G19G 2
  21753160.5264    5620851.67046   4379871.01861
  22757188.7304   -6736137.71246  -5248924.21161
  23172501.9404   -5799516.21045  -4368837.97761
  23080025.737    -6756554.964 5  -5102809.01121
  20687281.0034    -944048.48746   -735621.00762
  21444767.792   -12291852.963 7  -9578043.38622
 91  4 30 20 26 59.9990000  0  6G18G11G16G 6G19G 2
  21759512.1054    5654230.36647   4405880.29661
  22755307.0034   -6746033.97046  -5256635.54461
  23170016.315    -5812572.954 5  -4379012.07821
  23072432.714    -6796459.062 5  -5133903.02121
  20687526.7454    -942759.34646   -734616.48062
  21437141.8084  -12331924.98147  -9609268.27662
 91  4 30 20 27 14.9990000  0  6G18G11G16G 6G19G 2
  21765879.300     5687692.586 7   4431954.64321
  22753452.401    -6755776.218 6  -5264226.88721
  23167558.7454   -5825491.88745  -4389078.76361
  23064842.800    -6836346.363 5
  20687781.7844    -941418.32746   -733571.53662
  21429532.2144  -12371913.76447
 91  4 30 20 27 29.9990000  0  6G18G11G16G 6G19G 2
  21772264.058     5721237.562 6   4458093.48621
  22751625.3474   -6765365.16446  -5271698.74961
  23165125.683    -5838273.827 5  -4399038.73321
  23057256.9724   -6876217.95445
  20688050.3554    -940026.23946   -732486.79162
  21421937.9874  -12411819.99547
 91  4 30 20 27 44.9990000  0  6G18G11G16G 6G19G 2
  21778662.323     5754866.085 6   4484297.42321
  22749831.9404   -6774799.89446  -5279050.45961
  23162717.6834   -5850918.05645  -4408891.39361
  23049669.6364   -6916072.87545
  20688321.9094    -938582.11746   -731361.50562
  21414360.3004  -12451642.93347
 91  4 30 20 27 59.9990000  0  6G18G11G16G 6G19G 2
  21785078.128     5788579.958 6   4510567.87021
  22748065.1594   -6784078.14246  -5286280.22861
  23160337.628    -5863422.180 5  -4418634.87221
  23042093.644    -6955908.979 5  -5258148.85321
  20688605.8474    -937084.05047   -730194.18262
  21406798.4334  -12491380.32947  -9733518.96062
 91  4 30 20 28 14.9990000  0  6G18G11G16G 6G19G 2
  21791509.878     5822377.044 6   4536903.16121
  22746329.5814   -6793201.76046  -5293389.50761
  23157985.7144   -5875788.17845  -4428270.71361
  23034511.0194   -6995728.28245  -5289176.77861
  20688902.4644    -935533.86446   -728986.25462
  21399253.4804  -12531034.00847  -9764417.87362
 91  4 30 20 28 29.9990000  0  6G18G11G16G 6G19G 2
  21797957.495     5856256.788 7   4563302.85821
  22744622.1984   -6802170.98946  -5300378.48061
  23155657.9644   -5888016.55145  -4437799.33261
  23026934.9804   -7035531.04445  -5320191.84861
  20689208.5504    -933931.59046   -727737.73262
  21391723.909   -12570603.997 7  -9795251.57622
 91  4 30 20 28 44.9990000  0  6G18G11G16G 6G19G 2
  21804419.706     5890217.280 7   4589765.46421
  22742947.4174   -6810987.62946  -5307248.56061
  23153357.9014   -5900108.87445  -4447221.92261
  23019363.9804   -7075319.09045  -5351195.42561
  20689520.8474    -932279.13446   -726450.11162
  21384208.8784  -12610092.16347  -9826021.51662
 91  4 30 20 28 59.9980000  0  6G18G11G16G 6G19G 2
  21810898.076     5924258.505 7   4616290.98721
  22741298.100    -6819648.456 6  -5313997.21621
  23151084.6934   -5912061.95145  -4456536.01261
  23011795.404    -7115087.156 5  -5382183.44621
  20689843.2094    -930573.90347   -725121.36262
  21376711.209   -12649493.379 7  -9856723.70922
 91  4 30 20 29 14.9980000  0  6G18G11G16G 6G19G 2
  21817391.350     5958381.008 7   4642879.83921
  22739679.2324   -6828158.34846  -5320628.26661
  23148836.3114   -5923881.08445  -4465745.73461
  23004233.256    -7154844.303 5  -5413162.96821
  20690181.0844    -928819.31446   -723754.15262
  21369228.131   -12688816.301 7  -9887364.89122
 91  4 30 20 29 29.9980000  0  6G18G11G16G 6G19G 2
  21823900.4594    5992587.17647   4669533.87861
  22738087.5924   -6836511.87046  -5327137.46961
  23146612.6474   -5935560.77045  -4474846.80261
  22996669.7174   -7194583.13545  -5444128.20961
  20690526.7644    -927010.77646   -722344.90062
  21361761.5924  -12728053.52547  -9917939.29362
 91  4 30 20 29 44.9980000  0  6G18G11G16G 6G19G 2
  21830425.084     6026877.398 7   4696253.41121
  22736528.6544   -6844708.48846  -5333524.40661
  23144412.4124   -5947100.82645  -4483839.06061
  22989110.420    -7234303.325 5  -5475078.91121
  20690878.7724    -925147.56346   -720893.04562
  21354311.350   -12767204.514 7  -9948446.50522
 91  4 30 20 29 59.9980000  0  6G18G11G16G 6G19G 2
  21836967.0454    6061250.62747   4723037.64561
  22734998.8034   -6852748.91046  -5339789.63861
  23142244.5374   -5958501.92945  -4492723.03461
  22981561.0764   -7274005.48545  -5506015.55061
  20691243.6544    -923230.47946   -719399.21262
  21346876.0924  -12806269.98847  -9978887.07862
 91  4 30 20 30 14.9980000  0  6G18G11G16G 6G19G 2
  21843523.4904    6095707.85546   4749887.33661
  22733499.9124   -6860631.86146  -5345932.15861
  23140102.881    -5969762.988 5  -4501497.88821
  22974006.3974   -7313688.58545  -5536937.37461
  20691618.4754    -921258.33646   -717862.47862
  21339460.5534  -12845248.56647 -10009259.93362
 91  4 30 20 30 29.9980000  0  6G18G11G16G 6G19G 2
  21850095.7094    6130243.18147   4776797.88261
  22732029.029    -6868362.789 6  -5351956.23821
  23137986.623    -5980889.462 5  -4510167.87521
  22966456.4904   -7353358.11645  -5567848.59261
  20692005.4204    -919236.64846   -716287.13962
  21332056.5764  -12884145.97447 -10039569.54262
 91  4 30 20 30 44.9980000  0  6G18G11G16G 6G19G 2
  21856681.865     6164854.767 6   4803767.84621
  22730583.8734   -6875943.36446  -5357863.15261
  23135894.1784   -5991883.36645  -4518734.56261
  22958907.6394   -7393015.67845  -5598750.51461
  20692397.0684    -917166.93746   -714674.37862
  21324670.5294  -12922963.79347 -10069817.13362
 91  4 30 20 30 59.9980000  0  6G18G11G16G 6G19G 2
  21863283.1934    6199545.75246   4830799.69161
  22729170.381    -6883370.328 6  -5363650.37021
  23133827.3184   -6002741.37445  -4527195.34861
  22951364.0144   -7432658.14645  -5629640.66861
  20692800.3504    -915045.88046   -713021.60662
  21317299.5454  -12961698.64547 -10100000.07662
 91  4 30 20 31 14.9980000  0  6G18G11G16G 6G19G 2
  21869900.3894    6234313.69946   4857891.50461
  22727786.9044   -6890645.90146  -5369319.62161
  23131786.8264   -6013465.67445  -4535551.94361
  22943826.8504   -7472287.76845  -5660520.79561
  20693214.7724    -912875.59546   -711330.47962
  21309943.8034  -13000352.63247 -10130120.00562
 91  4 30 20 31 29.9980000  0  6G18G11G16G 6G19G 2
  21876530.990     6269163.979 6   4885047.46221
  22726433.709    -6897764.143 6  -5374866.28821
  23129773.5924   -6024050.47745  -4543799.85961
  22936284.3264   -7511898.72345  -5691386.39461
  20693639.8264    -910650.14746   -709596.36362
  21302605.5614  -13038919.92947 -10160172.38562
 91  4 30 20 31 44.9980000  0  6G18G11G16G 6G19G 2
  21883177.029     6304089.260 6   4912261.85721
  22725107.326    -6904732.454 6  -5380296.11921
  23127784.6934   -6034503.40045  -4551944.98561
  22928751.732    -7551498.353 5  -5722243.17021
  20694070.4284    -908377.19846   -707825.23662
  21295279.6474  -13077408.13847 -10190163.13462
 91  4 30 20 31 59.9980000  0  6G18G11G16G 6G19G 2
  21889839.725     6339093.243 7   4939537.58521
  22723809.0294   -6911546.78946  -5385605.95861
  23125818.4824   -6044820.40845  -4559984.21261
  22921219.842    -7591082.789 5  -5753088.09421
  20694512.0144    -906052.52546   -706013.80262
  21287972.2564  -13115813.05547 -10220088.98662
 91  4 30 20 32 14.9980000  0  6G18G11G16G 6G19G 2
  21896515.607     6374173.296 6   4966872.58421
  22722542.4044   -6918209.59546  -5390797.72061
  23123882.529    -6055003.798 5  -4567919.33421
  22913690.3184   -7630654.43545  -5783923.04961
  20694963.7094    -903678.31146   -704163.76962
  21280679.7254  -13154137.07247 -10249951.79862
 91  4 30 20 32 29.9980000  0  6G18G11G16G 6G19G 2
  21903205.139     6409327.635 6   4994265.47121
  22721301.7724   -6924722.29946  -5395872.52061
  23121969.2014   -6065055.50445  -4575751.83561
  22906157.897    -7670214.786 5  -5814749.22121
  20695424.9984    -901255.96646   -702276.22562
  21273402.5454  -13192381.49047 -10279752.58462
 91  4 30 20 32 44.9980000  0  6G18G11G16G 6G19G 2
  21909908.529     6444560.208 6   5021719.31621
  22720095.0534   -6931080.79746  -5400827.17661
  23120082.6154   -6074971.46945  -4583478.56661
  22898634.514    -7709759.762 5  -5845563.40821
  20695895.4204    -898781.59246   -700348.14162
  21266140.5924  -13230542.32347 -10309488.23562
 91  4 30 20 32 59.9980000  0  6G18G11G16G 6G19G 2
  21916628.053     6479872.128 6   5049234.99021
  22718913.061    -6937283.846 6  -5405660.69721
  23118219.537    -6084750.412 5  -4591098.53021
  22891112.670    -7749288.206 5  -5876364.72121
  20696376.3814    -896253.82046   -698378.45562
  21258895.4824  -13268618.11047 -10339157.61862
 91  4 30 20 33 14.9980000  0  6G18G11G16G 6G19G 2
  21923362.397     6515257.339 6   5076807.77421
  22717761.756    -6943337.258 6  -5410377.62021
  23116387.3424   -6094398.34845  -4598616.41861
  22883592.3814   -7788805.98645  -5907157.69761
  20696866.7484    -893678.60346   -696371.79362
  21251664.3184  -13306614.93747 -10368765.47662
 91  4 30 20 33 29.9980000  0  6G18G11G16G 6G19G 2
  21930110.857     6550722.095 6   5104442.53921
  22716636.6314   -6949234.30146  -5414972.69361
  23114575.912    -6103908.793 5  -4606027.15621
  22876075.225    -7828306.374 5  -5937937.14421
  20697369.7564    -891049.26946   -694322.96362
  21244450.9204  -13344526.01047 -10398306.51362
 91  4 30 20 33 44.9980000  0  6G18G11G16G 6G19G 2
  21936873.506     6586258.514 6   5132133.14921
  22715544.795    -6954982.504 6  -5419451.78321
  23112790.4044   -6113288.92745  -4613336.34661
  22868560.4674   -7867797.02245  -5968708.98761
  20697876.3344    -888373.07246   -692237.61362
  21237250.584   -13382358.763 7 -10427786.52422
 91  4 30 20 33 59.9980000  0  6G18G11G16G 6G19G 2
  21943650.459     6621866.005 6   5159879.14021
  22714479.154    -6960582.347 6  -5423815.26721
  23111032.693    -6122539.519 5  -4620544.61521
  22861051.4124   -7907278.38845  -5999473.60061
  20698395.0684    -885650.41046   -690116.06062
  21230065.3344  -13420113.48647 -10457205.73062
 91  4 30 20 34 14.9980000  0  6G18G11G16G 6G19G 2
  21950438.943     6657547.908 6   5187683.11321
  22713444.475    -6966030.301 6  -5428060.40021
  23109294.6784   -6131657.04445  -4627649.18961
  22853538.9284   -7946746.87945  -6030228.18361
  20698921.5844    -882877.61746   -687955.44362
  21222896.7094  -13457786.54447 -10486561.30162
 91  4 30 20 34 29.9980000  0  6G18G11G16G 6G19G 2
  21957242.740     6693297.074 6   5215539.49321
  22712432.7874   -6971333.48146  -5432192.72661
  23107584.7254   -6140648.78745  -4634655.75761
  22846029.0374   -7986209.71745  -6060978.35861
  20699457.8264    -880061.76646   -685761.27462
  21215741.4674  -13495385.15447 -10515858.86162
 91  4 30 20 34 44.9980000  0  6G18G11G16G 6G19G 2
  21964060.717     6729123.993 6   5243456.46621
  22711452.686    -6976480.928 6  -5436203.70121
  23105899.498    -6149504.103 5  -4641556.01221
  22838520.7724   -8025656.00045  -6091715.63461
  20700004.3264    -877192.05046   -683525.13562
  21208603.6394  -13532898.31347 -10545089.83862
 91  4 30 20 34 59.9980000  0  6G18G11G16G 6G19G 2
  21970891.467     6765023.899 6   5271430.30921
  22710501.9124   -6981477.23846  -5440096.90561
  23104239.904    -6158227.567 5  -4648353.53821
  22831018.4904   -8065090.23045  -6122443.53361
  20700559.7724    -874272.95546   -681250.51562
  21201480.6704  -13570330.76347 -10574257.92462
 91  4 30 20 35 14.9980000  0  6G18G11G16G 6G19G 2
  21977737.139     6800994.177 6   5299458.98421
  22709580.2644   -6986324.81946  -5443874.21361
  23102602.7644   -6166821.49345  -4655050.10661
  22823517.482    -8104514.990 5  -6153164.05021
  20701123.8344    -871306.85846   -678939.27162
  21194370.881   -13607684.896 7 -10603364.98722
 91  4 30 20 35 29.9980000  0  6G18G11G16G 6G19G 2
  21984595.365     6837038.831 6   5327545.62221
  22708685.850    -6991019.245 6  -5447532.18021
  23100994.0684   -6175281.77745  -4661642.55561
  22816013.936    -8143925.791 5  -6183873.68921
  20701699.2174    -868289.27946   -676587.91562
  21187280.0534  -13644956.16947 -10632407.47862
 91  4 30 20 35 44.9980000  0  6G18G11G16G 6G19G 2
  21991469.037     6873157.834 6   5355690.19621
  22707821.498    -6995560.583 6  -5451070.85421
  23099410.693    -6183608.433 5  -4668130.87021
  22808519.147    -8183322.482 5  -6214572.32721
  20702282.9824    -865220.12546   -674196.37362
  21180202.475   -13682144.353 7 -10661385.23022
 91  4 30 20 35 59.9980000  0  6G18G11G16G 6G19G 2
  21998356.092     6909345.144 6   5383887.99021
  22706987.7174   -6999954.66146  -5454494.78861
  23097847.498    -6191807.169 5  -4674519.51921
  22801021.303    -8222711.183 5  -6245264.74621
  20702874.8344    -862105.11946   -671769.09762
  21173140.3504  -13719255.35647 -10690302.83662
 91  4 30 20 36 14.9980000  0  6G18G11G16G 6G19G 2
  22005254.818     6945600.449 6   5412138.76521
  22706176.889    -7004201.341 6  -5457803.86221
  23096313.717    -6199878.173 5  -4680808.63821
  22793529.1004   -8262091.85245  -6275950.91261
  20703476.1864    -858944.30846   -669306.13162
  21166092.8574  -13756288.95347 -10719160.12862
 91  4 30 20 36 29.9980000  0  6G18G11G16G 6G19G 2
  22012167.334     6981927.655 6   5440445.57221
  22705399.4514   -7008296.67746  -5460994.99961
  23094801.545    -6207817.922 5  -4686995.46221
  22786037.170    -8301460.431 5  -6306627.64421
  20704087.2174    -855733.74546   -666804.39862
  21159062.1314  -13793241.28947 -10747954.10262
 91  4 30 20 36 44.9980000  0  6G18G11G16G 6G19G 2
  22019093.9284    7018323.64046   5468805.98261
  22704648.748    -7012243.423 6  -5464070.36221
  23093318.0294   -6215628.94745  -4693082.00761
  22778549.881    -8340819.649 5  -6337297.08521
  20704707.5684    -852475.83346   -664265.77162
  21152043.553   -13830115.063 7 -10776686.86122
 91  4 30 20 36 59.9980000  0  6G18G11G16G 6G19G 2
  22026033.264     7054789.437 6   5497220.77921
  22703924.8974   -7016040.48646  -5467029.08261
  23091853.8264   -6223310.01745  -4699067.25661
  22771061.5684   -8380168.38745  -6367958.36461
  20705336.1784    -849169.42446   -661689.35262
  21145042.389   -13866909.050 7 -10805357.44822
 91  4 30 20 37 14.9980000  0  6G18G11G16G 6G19G 2
  22032985.389     7091322.256 6   5525687.81221
  22703228.4824   -7019690.36746  -5469873.12261
  23090417.9124   -6230864.03245  -4704953.52961
  22763570.3504   -8419509.28445  -6398613.52661
  20705974.2174    -845817.00146   -659077.08262
  21138055.279   -13903625.767 7 -10833967.82222
 91  4 30 20 37 29.9980000  0  6G18G11G16G 6G19G 2
  22039949.186     7127923.910 6   5554208.46821
  22702565.4204   -7023190.96146  -5472600.82661
  23089001.803    -6238288.787 5  -4710739.05821
  22756089.537    -8458840.066 5  -6429260.81521
  20706621.3814    -842416.43546   -656427.28862
  21131083.904   -13940263.103 7 -10862516.34922
 91  4 30 20 37 44.9980000  0  6G18G11G16G 6G19G 2
  22046928.975     7164595.601 6   5582783.70021
  22701927.5534   -7026540.86146  -5475211.10661
  23087618.897    -6245583.218 5  -4716423.05821
  22748608.857    -8498159.452 5  -6459899.20721
  20707279.2724    -838966.28946   -653738.86762
  21124127.115   -13976819.579 7 -10891001.85723
 91  4 30 20 37 59.9980000  0  6G18G11G16G 6G19G 2
  22053918.857     7201330.651 6   5611408.30521
  22701318.5614   -7029746.69846  -5477709.12761
  23086252.5534   -6252754.04945  -4722010.73561
  22741124.904    -8537474.049 5  -6490533.88921
  20707942.8424    -835473.15646   -651016.94562
  21117185.670   -14013301.772 7 -10919429.48922
 91  4 30 20 38 14.9980000  0  6G18G11G16G 6G19G 2
  22060922.443     7238137.437 6   5640088.81221
  22700733.9754   -7032799.55246  -5480087.93761
  23084913.561    -6259792.283 5  -4727495.09421
  22733644.6624   -8576775.13445  -6521158.01861
  20708618.7874    -831927.97046   -648254.46662
  21110258.693   -14049700.905 7 -10947792.39723
 91  4 30 20 38 29.9980000  0  6G18G11G16G 6G19G 2
  22067941.756     7275019.599 6   5668828.04921
  22700183.701    -7035695.849 6  -5482344.76521
  23083599.443    -6266694.673 5  -4732873.60321
  22726168.100    -8616059.010 5  -6551768.76021
  20709301.8184    -828327.08646   -645448.58562
  21103348.951   -14086013.191 7 -10976087.63822
 91  4 30 20 38 44.9980000  0  6G18G11G16G 6G19G 2
  22074972.123     7311962.654 6   5697614.73221
  22699661.686    -7038449.678 6  -5484490.58721
  23082307.842    -6273475.357 5  -4738157.27521
  22718694.014    -8655339.576 5  -6582376.90521
  20709995.4754    -824684.34646   -642610.09262
  21096452.506   -14122252.458 7 -11004325.97922
 91  4 30 20 38 59.9980000  0  6G18G11G16G 6G19G 2
  22082014.881     7348972.117 6   5726453.16721
  22699163.357    -7041055.270 6  -5486520.90121
  23081041.9594   -6280128.58345  -4743341.62461
  22711222.7404   -8694611.15845  -6612978.06861
  20710696.8184    -820994.09146   -639734.57162
  21089571.740   -14158412.960 7 -11032502.94022
 91  4 30 20 39 14.9980000  0  6G18G11G16G 6G19G 2
  22089070.170     7386046.737 6   5755342.37121
  22698698.6314   -7043513.75746  -5488436.58461
  23079799.7014   -6286655.36345  -4748427.46061
  22703751.139    -8733874.885 5  -6643573.10321
  20711409.1544    -817257.37746   -636822.85362
  21082705.154   -14194495.942 7 -11060619.49922
 91  4 30 20 39 29.9980000  0  6G18G11G16G 6G19G 2
  22096138.037     7423191.546 6   5784286.26521
  22698261.389    -7045819.902 6  -5490233.55321
  23078583.428    -6293050.731 5  -4753410.87321
  22696282.1624   -8773125.58145  -6674157.99061
  20712129.1864    -813468.98646   -633870.86462
  21075853.725   -14230495.983 7 -11088671.42822
 91  4 30 20 39 44.9980000  0  6G18G11G16G 6G19G 2
  22103219.537     7460404.329 6   5813283.13521
  22697848.709    -7047975.781 6  -5491913.44121
  23077388.654    -6299316.907 5  -4758293.64121
  22688816.615    -8812365.234 5  -6704734.27121
  20712860.4364    -809630.93046   -630880.17762
  21069018.623   -14266415.286 7 -11116660.44822
 91  4 30 20 39 59.9980000  0  6G18G11G16G 6G19G 2
  22110313.607     7497683.271 6   5842331.55221
  22697464.857    -7049982.857 6  -5493477.37521
  23076224.4044   -6305455.44745  -4763076.93261
  22681350.6934   -8851595.31845  -6735303.08661
  20713603.6864    -805744.56346   -627851.83962
  21062198.420   -14302255.240 7 -11144587.63622
 91  4 30 20 40 14.9980000  0  6G18G11G16G 6G19G 2
  22117421.068     7535033.981 6   5871435.88921
  22697112.553    -7051835.575 6  -5494921.03721
  23075077.975    -6311460.424 5  -4767756.14521
  22673885.553    -8890810.144 5  -6765860.01821
  20714349.5224    -801804.02246   -624781.29162
  21055395.186   -14338010.081 7 -11172448.50322
 91  4 30 20 40 29.9980000  0  6G18G11G16G 6G19G 2
  22124540.3974    7572450.73246   5900591.68461
  22696790.7954   -7053539.13046  -5496248.45661
  23073961.686    -6317337.727 5  -4772335.88221
  22666427.967    -8930015.002 5  -6796409.18521
  20715107.1394    -797814.55446   -621672.61962
  21048606.592   -14373685.053 7 -11200247.13823
 91  4 30 20 40 44.9980000  0  6G18G11G16G 6G19G 2
  22131672.561     7609928.273 6   5929794.85121
  22696493.029    -7055098.654 6  -5497463.65221
  23072866.592    -6323092.561 5  -4776820.19621
  22658969.475    -8969215.116 5  -6826954.64421
  20715877.5764    -793781.25646   -618529.79662
  21041830.943   -14409285.356 7 -11227987.58722
 91  4 30 20 40 59.9980000  0  6G18G11G16G 6G19G 2
  22138818.725     7647474.351 6   5959051.42521
  22696222.381    -7056506.207 6  -5498560.41621
  23071797.3344   -6328717.06745  -4781202.94861
  22651507.529    -9008402.286 5  -6857490.02521
  20716655.4284    -789696.06946   -615346.53762
  21035073.303   -14444802.738 7 -11255663.42422
 91  4 30 20 41 14.9980000  0  6G18G11G16G 6G19G 2
  22145976.131     7685084.663 6   5988358.04721
  22695984.740    -7057766.183 6  -5499542.19621
  23070750.850    -6334215.364 5  -4785487.35921
  22644054.6624   -9047581.03145  -6888018.84961
  20717441.1154    -785563.27946   -612126.18862
  21028328.686   -14480241.770 7 -11283278.20423
 91  4 30 20 41 29.9980000  0  6G18G11G16G 6G19G 2
  22153145.350     7722761.177 6   6017716.25821
  22695773.178    -7058876.004 6  -5500406.97321
  23069727.2724   -6339585.27145  -4789671.72561
  22636601.420    -9086748.813 5  -6918539.11021
  20718234.1154    -781380.27246   -608866.70662
  21021600.522   -14515599.799 7 -11310829.86422
 91  4 30 20 41 44.9980000  0  6G18G11G16G 6G19G 2
  22160328.0534    7760504.04246   6047126.16661
  22695591.9204   -7059835.49446  -5501154.62061
  23068732.4124   -6344826.55745  -4793755.88261
  22629151.795    -9125905.250 6  -6949050.55521
  20719042.3654    -777146.65446   -605567.78962
  21014886.826   -14550876.346 7 -11338318.03522
 91  4 30 20 41 59.9980000  0  6G18G11G16G 6G19G 2
  22167522.0144    7798313.93046   6076588.30161
  22695436.709    -7060643.607 6  -5501784.30821
  23067758.600    -6349938.246 5  -4797739.04221
  22621698.818    -9165049.354 5  -6979552.37221
  20719860.1544    -772861.28046   -602228.54362
  21008190.272   -14586070.362 7 -11365741.89822
 91  4 30 20 42 14.9980000  0  6G18G11G16G 6G19G 2
  22174729.5454    7836182.17046   6106095.90561
  22695310.123    -7061308.938 6  -5502302.72921
  23066808.131    -6354928.933 5  -4801627.91221
  22614257.1544   -9204189.65046  -7010051.23061
  20720681.7954    -768532.49146   -598855.47062
  21001506.662   -14621190.406 7 -11393108.11822
 91  4 30 20 42 29.9980000  0  6G18G11G16G 6G19G 2
  22181950.1074    7874117.46646   6135655.75461
  22695213.6934   -7061822.66846  -5502703.00061
  23065884.490    -6359790.367 5  -4805416.06421
  22606806.0064   -9243317.34646  -7040540.27761
  20721517.0924    -764151.63246   -595441.81662
  20994839.693   -14656227.676 7 -11420409.83722
 91  4 30 20 42 44.9980000  0  6G18G11G16G 6G19G 2
  22189178.0224    7912111.22846   6165261.15361
  22695142.9824   -7062193.17246  -5502991.67861
  23064980.0924   -6364530.74445  -4809109.89761
  22599359.764    -9282440.567 5  -7071025.82921
  20722357.1234    -759727.06046   -591994.10262
  20988187.201   -14691190.346 7 -11447653.42722
 91  4 30 20 42 59.9980000  0  6G18G11G16G 6G19G 2
  22196420.2254    7950166.98346   6194914.87661
  22695101.826    -7062416.522 6  -5503165.70521
  23064103.4594   -6369146.20045  -4812706.38361
  22591919.537    -9321555.508 5  -7101504.92721
  20723210.6934    -755254.54446   -588509.02662
  20981548.607   -14726074.495 7 -11474835.83222
 91  4 30 20 43 14.9980000  0  6G18G11G16G 6G19G 2
  22203672.6004    7988279.07046   6224612.48461
  22695080.9904   -7062498.32346
  23063249.756    -6373642.035 5  -4816209.66021
  22584477.725    -9360667.754 6  -7131981.91121
  20724067.8894    -750739.51746   -584990.82462
  20974923.709   -14760885.610 7 -11501961.32722
 91  4 30 20 43 29.9980000  0  6G18G11G16G 6G19G 2
  22210936.9754    8026450.89046   6254356.63961
  22695099.7874   -7062435.26946
  23062416.834    -6378015.390 5  -4819617.48221
  22577033.381    -9399773.908 6  -7162454.17721
  20724935.1154    -746178.59546   -581436.86262
  20968314.147   -14795620.341 7 -11529027.30222
 91  4 30 20 43 44.9980000  0  6G18G11G16G 6G19G 2
  22218211.7874    8064684.33246   6284148.81061
  22695137.7174   -7062225.11446
  23061607.287    -6382264.213 5  -4822928.28921
  22569593.3114   -9438871.67546  -7192919.88961
  20725811.9044    -741569.38746   -577845.27662
  20961719.975   -14830276.367 7 -11556031.94622
 91  4 30 20 43 59.9980000  0  6G18G11G16G 6G19G 2
  22225498.326     8102978.391 6   6313988.21921
  22695206.264    -7061868.501 6
  23060822.467    -6386388.969 5  -4826142.40121
  22562151.1474   -9477961.69745  -7223379.58461
  20726700.2484    -736912.56146   -574216.58362
  20955139.717   -14864854.451 7 -11582975.85822
 91  4 30 20 44 14.9980000  0  6G18G11G16G 6G19G 2
  22232799.7014    8141342.27246   6343882.03161
  22695301.256    -7061356.104 6  -5502339.27821
  23060063.568    -6390380.434 5  -4829252.65821
  22554717.662    -9517034.606 6  -7253825.92521
  20727594.3574    -732198.61046   -570543.37962
  20948576.506   -14899345.039 7 -11609851.59022
 91  4 30 20 44 29.9980000  0  6G18G11G16G 6G19G 2
  22240111.990     8179769.774 6   6373825.41021
  22695429.482    -7060694.182 6  -5501823.47021
  23059324.7404   -6394244.95445  -4832264.01461
  22547285.576    -9556096.382 6  -7284263.59821
  20728502.2724    -727433.55746   -566830.35262
  20942028.076   -14933754.183 7 -11636663.85922
 91  4 30 20 44 44.9980000  0  6G18G11G16G 6G19G 2
  22247434.873     8218253.057 6   6403812.25121
  22695582.4514   -7059890.31446  -5501197.05761
  23058613.6314   -6397990.22945  -4835182.43861
  22539851.9824   -9595154.75446  -7314698.63561
  20729415.8114    -722624.99646   -563083.42462
  20935494.068   -14968089.577 7 -11663418.66122
 91  4 30 20 44 59.9980000  0  6G18G11G16G 6G19G 2
  22254768.2564    8256792.49746   6433842.86161
  22695758.334    -7058943.498 6  -5500459.26221
  23057922.8264   -6401615.70445  -4838007.50261
  22532422.2644   -9634208.59946  -7345130.13461
  20730341.9984    -717771.97746   -559301.85462
  20928974.326   -15002350.058 7 -11690115.09022
 91  4 30 20 45 14.9980000  0  6G18G11G16G 6G19G 2
  22262115.1074    8295393.67546   6463921.57161
  22695970.3424   -7057848.30846  -5499605.84261
  23057258.9364   -6405115.68945  -4840734.80661
  22524992.311    -9673252.454 6  -7375553.84121
  20731273.4824    -712868.69346   -555481.11562
  20922468.709   -15036529.992 7 -11716748.75622
 91  4 30 20 45 29.9980000  0  6G18G11G16G 6G19G 2
  22269471.5374    8334056.33846   6494048.18961
  22696205.193    -7056604.669 6  -5498636.75421
  23056617.2724   -6408490.43045  -4843364.50161
  22517562.904    -9712286.055 6  -7405969.56121
  20732216.8504    -707914.87446   -551620.99962
  20915980.482   -15070629.400 7 -11743319.67823
 91  4 30 20 45 44.9980000  0  6G18G11G16G 6G19G 2
  22276841.3034    8372781.69846   6524223.66961
  22696468.490    -7055211.452 6  -5497551.11821
  23055998.381    -6411738.750 5  -4845895.69021
  22510136.115    -9751308.390 6  -7436376.49621
  20733168.5764    -702909.31246   -547720.56462
  20909508.428   -15104647.094 7 -11769826.92222
 91  4 30 20 45 59.9980000  0  6G18G11G16G 6G19G 2
  22284223.162     8411566.478 6   6554445.44921
  22696765.5684   -7053671.78746  -5496351.36561
  23055401.295    -6414864.081 5  -4848331.04421
  22502714.9674   -9790322.35246  -7466776.91561
  20734131.2254    -697855.20446   -543782.30362
  20903050.600   -15138586.055 7 -11796272.81722
 91  4 30 20 46 14.9980000  0  6G18G11G16G 6G19G 2
  22291614.5224    8450412.48446   6584714.93561
  22697084.647    -7051983.642 6  -5495035.92221
  23054831.529    -6417864.057 5  -4850668.71821
  22495292.2954   -9829326.04246  -7497169.32361
  20735102.3974    -692750.32646   -539804.47962
  20896605.147   -15172444.178 7 -11822655.71822
 91  4 30 20 46 29.9980000  0  6G18G11G16G 6G19G 2
  22299016.7404    8489315.86246   6615029.13061
  22697431.4284   -7050150.36746  -5493607.38661
  23054285.0374   -6420742.24945  -4852911.51061
  22487869.857    -9868322.636 6  -7527556.20521
  20736083.2954    -687597.84746   -535789.56362
  20890178.357   -15206224.838 7 -11848978.26423
 91  4 30 20 46 44.9980000  0  6G18G11G16G 6G19G 2
  22306432.2404    8528280.07046   6645390.71661
  22697809.311    -7048168.538 6  -5492063.08721
  23053761.553    -6423495.395 5  -4855056.85621
  22480451.920    -9907308.690 6  -7557934.87921
  20737073.0144    -682394.16046   -531734.74762
  20883764.975   -15239924.331 7 -11875237.56422
 91  4 30 20 46 59.9980000  0  6G18G11G16G 6G19G 2
  22313858.482     8567300.888 6   6675796.41621
  22698211.850    -7046042.143 6  -5490406.14021
  23053260.8814   -6426127.55045  -4857107.91961
  22473035.1474   -9946288.13346  -7588308.40261
  20738073.5614    -677143.25546   -527643.14062
  20877366.342   -15273546.766 7 -11901436.81123
 91  4 30 20 47 14.9980000  0  6G18G11G16G 6G19G 2
  22321296.0064    8606385.81846   6706252.06961
  22698647.725    -7043763.493 6  -5488630.55621
  23052786.1314   -6428631.29945  -4859058.91661
  22465622.100    -9985253.172 6  -7618670.69321
  20739082.4904    -671837.28246   -523508.62062
  20870984.654   -15307084.286 7 -11927569.89723
 91  4 30 20 47 29.9980000  0  6G18G11G16G 6G19G 2
  22328742.451     8645523.952 6   6736749.18721
  22699109.1074   -7041343.22746  -5486744.62061
  23052333.6864   -6431017.15445  -4860918.07261
  22458201.3034  -10024214.35646  -7649029.99161
  20740100.4284    -666486.68646   -519339.33662
  20864617.475   -15340547.452 7 -11953645.04623
 91  4 30 20 47 44.9980000  0  6G18G11G16G 6G19G 2
  22336201.9434    8684719.27446   6767290.87361
  22699598.9434   -7038777.36146  -5484745.23861
  23051899.0764   -6433281.04645  -4862682.17361
  22450795.8114  -10063167.61346  -7679383.11661
  20741127.5454    -661087.38546   -515132.09162
  20858264.529   -15373932.085 7 -11979658.99823
 91  4 30 20 47 59.9980000  0  6G18G11G16G 6G19G 2
  22343672.357     8723976.300 6   6797880.63421
  22700116.1474   -7036061.25046  -5482628.78461
  23051494.6864   -6435418.43545  -4864347.69561
  22443378.4514  -10102108.12146  -7709726.29561
  20742163.7484    -655634.45946   -510883.06662
  20851927.568   -15407233.376 7 -12005608.01023
 91  4 30 20 48 14.9980000  0  6G18G11G16G 6G19G 2
  22351154.647     8763290.100 6   6828514.62721
  22700660.014    -7033199.803 6  -5480399.06921
  23051107.8974   -6437434.26445  -4865918.51461
  22435975.4674  -10141040.70646  -7740063.30761
  20743212.4754    -650132.74846   -506596.02362
  20845605.357   -15440456.199 7 -12031495.87723
 91  4 30 20 48 29.9980000  0  6G18G11G16G 6G19G 2
  22358646.7484    8802659.94946   6859192.30561
  22701231.1074   -7030193.16846  -5478056.23261
  23050747.998    -6439328.930 5  -4867394.92321
  22428567.147   -10179965.485 6  -7770394.22821
  20744269.3734    -644582.32046   -502271.02462
  20839297.920   -15473600.627 7 -12057322.66223
 91  4 30 20 48 44.9980000  0  6G18G11G16G 6G19G 2
  22366149.139     8842088.549 6   6889915.76321
  22701831.7254   -7027038.89846  -5475598.35061
  23050411.5374   -6441100.28845  -4868775.23861
  22421163.326   -10218879.863 6  -7800717.05121
  20745334.1074    -638980.47346   -497905.95862
  20833005.818   -15506664.149 7 -12083086.40023
 91  4 30 20 48 59.9980000  0  6G18G11G16G 6G19G 2
  22373662.693     8881573.017 6   6920682.75421
  22702456.256    -7023739.598 6  -5473027.45421
  23050096.4434   -6442750.82345  -4870061.40561
  22413758.857   -10257786.429 6  -7831033.78321
  20746409.5224    -633329.81446   -493502.85762
  20826728.881   -15539649.220 7 -12108789.00823
 91  4 30 20 49 14.9980000  0  6G18G11G16G 6G19G 2
  22381187.904     8921115.817 6   6951495.18821
  22703115.928    -7020292.641 6  -5470341.49421
  23049807.553    -6444277.857 5  -4871251.33821
  22406353.0534  -10296682.38046  -7861342.24861
  20747493.8114    -627627.30846   -489059.35262
  20820468.248   -15572553.054 7 -12134428.31323
 91  4 30 20 49 29.9980000  0  6G18G11G16G 6G19G 2
  22388721.631     8960710.538 6   6982348.08421
  22703796.904    -7016704.127 6  -5467545.23221
  23049537.139    -6445687.529 5  -4872349.82221
  22398953.4754  -10335573.78446  -7891647.16761
  20748587.5684    -621878.91446   -484580.09662
  20814221.420   -15605381.730 7 -12160009.05323
 91  4 30 20 49 44.9980000  0  6G18G11G16G 6G19G 2
  22396268.334     9000363.652 6   7013246.47521
  22704510.818    -7012967.374 6  -5464633.46421
  23049293.0614   -6446973.68145  -4873352.05461
  22391554.717   -10374453.897 5  -7921943.28921
  20749693.084     -616078.121 6   -480060.01022
  20807989.139   -15638128.790 7 -12185526.19923
 91  4 30 20 49 59.9980000  0  6G18G11G16G 6G19G 2
  22403824.889     9040076.734 6   7044191.59721
  22705250.217    -7009080.699 6  -5461604.87221
  23049073.811    -6448134.299 5  -4874256.46921
  22384159.022   -10413320.969 5  -7952229.24321
  20750805.014     -610223.018 6   -475497.60222
  20801773.170   -15670792.130 7 -12210978.11323
 91  4 30 20 50 14.9980000  0  6G18G11G16G 6G19G 2
  22411392.420     9079845.060 6   7075179.77221
  22706018.264    -7005048.983 6  -5458463.26221
  23048875.022    -6449174.349 5  -4875066.93221
  22376766.303   -10452179.675 5  -7982508.68121
  20751929.826     -604318.194 6   -470896.45222
  20795573.0294  -15703376.41347 -12236368.42463
 91  4 30 20 50 29.9980000  0  6G18G11G16G 6G19G 2
  22418972.654     9119670.315 6   7106212.30521
  22706810.264    -7000870.236 6  -5455207.08021
  23048700.2484   -6450091.89945  -4875781.93561
  22369375.0454  -10491027.81646  -8012779.88761
  20753066.7644    -598361.45446   -466254.85062
  20789387.006   -15735879.544 7 -12261695.49823
 91  4 30 20 50 44.9980000  0  6G18G11G16G 6G19G 2
  22426560.490     9159553.075 6   7137289.64121
  22707633.459    -6996543.472 6  -5451835.56821
  23048550.6074   -6450886.56745  -4876401.22361
  22361984.764   -10529864.624 5  -8043042.25621
  20754208.6314    -592351.84346   -461572.04662
  20783217.9204  -15768300.84847 -12286958.81363
 91  4 30 20 50 59.9980000  0  6G18G11G16G 6G19G 2
  22434162.295     9199493.988 6   7168412.29121
  22708485.670    -6992067.998 6  -5448348.16921
  23048420.811    -6451557.285 5  -4876923.89321
  22354594.443   -10568689.048 5  -8073294.97621
  20755362.693     -586288.483 6   -456847.36622
  20777064.264   -15800639.236 7 -12312157.51323
 91  4 30 20 51 14.9980000  0  6G18G11G16G 6G19G 2
  22441773.279     9239491.858 6   7199579.32321
  22709364.6004   -6987445.22746  -5444746.00061
  23048316.561    -6452105.631 5  -4877351.22321
  22347207.787   -10607502.364 6  -8103539.04521
  20756526.6864    -580172.42046   -452081.61262
  20770926.3734  -15832895.87647 -12337292.51763
 91  4 30 20 51 29.9980000  0  6G18G11G16G 6G19G 2
  22449395.092     9279544.851 6   7230789.31321
  22710271.459    -6982676.652 6  -5441030.21221
  23048237.264    -6452533.175 5  -4877684.40921
  22339823.756   -10646306.075 5  -8133775.62221
  20757699.178     -574004.982 6   -447275.82922
  20764803.7484  -15865072.44447 -12362365.12763
 91  4 30 20 51 44.9980000  0  6G18G11G16G 6G19G 2
  22457027.725     9319653.717 6   7262042.83221
  22711206.998    -6977761.280 6  -5437200.04721
  23048178.4284   -6452838.82745  -4877922.62261
  22332444.8034  -10685099.03246  -8164003.83361
  20758881.3114    -567784.97746   -442429.08762
  20758694.4674  -15897167.72347 -12387374.39563
 91  4 30 20 51 59.9980000  0  6G18G11G16G 6G19G 2
  22464671.0294    9359813.71446   7293336.18961
  22712169.287    -6972703.716 6  -5433259.07521
  23048140.7484   -6453027.21045
  22325058.154   -10723885.648 5  -8194227.10121
  20760074.490     -561516.946 6   -437544.92122
  20752602.9674  -15929186.15447 -12412323.78063
 91  4 30 20 52 14.9980000  0  6G18G11G16G 6G19G 2
  22472323.436     9400028.680 6   7324672.39221
  22713161.9284   -6967499.78346  -5429204.05661
  23048129.8114   -6453094.47545
  22317681.936   -10762661.654 5  -8224442.09321
  20761279.8034    -555196.56046   -432619.95762
  20746525.0924  -15961123.44247 -12437209.94063
 91  4 30 20 52 29.9980000  0  6G18G11G16G 6G19G 2
  22479985.9824    9440295.17046   7356048.73161
  22714179.3734   -6962152.91146  -5425037.67761
  23048139.7724   -6453044.11545
  22310302.7954  -10801430.43545  -8254651.46661
  20762492.9904    -548827.23746   -427656.86062
  20740462.4284  -15992983.08847 -12462035.59863
 91  4 30 20 52 44.9980000  0  6G18G11G16G 6G19G 2
  22487657.5064    9480611.12846   7387463.61261
  22715226.8974   -6956665.07846  -5420761.43861
  23048171.5224   -6452877.92945
  22302929.014   -10840193.849 5  -8284856.64421
  20763710.8184    -542410.85246   -422657.08962
  20734413.232   -16024766.908 7 -12486802.17123
 91  4 30 20 52 59.9980000  0  6G18G11G16G 6G19G 2
  22495340.772     9520982.185 6   7418921.43621
  22716292.1234   -6951030.32246  -5416370.72361
  23048227.779    -6452590.210 5
  22295553.2174  -10878945.74445  -8315052.85561
  20764942.2174    -535941.04346   -417615.69262
  20728381.3424  -16056468.85947 -12511504.94763
 91  4 30 20 53 14.9980000  0  6G18G11G16G 6G19G 2
  22503032.248     9561407.530 6   7450421.55821
  22717396.9044   -6945249.48746  -5411866.17261
  23048305.2404   -6452182.17445  -4877411.21461
  22288179.264   -10917686.903 5  -8345240.69321
  20766181.842     -529418.367 6   -412533.10322
  20722363.9124  -16088089.65247 -12536144.48963
 91  4 30 20 53 29.9980000  0  6G18G11G16G 6G19G 2
  22510736.592     9601890.664 6   7481966.71821
  22718523.1004   -6939319.20446  -5407245.17461
  23048403.1234   -6451650.33645  -4876996.81861
  22280813.1934  -10956413.68445  -8375417.33861
  20767437.8424    -522839.50546   -407406.72862
  20716362.7794  -16119625.71447 -12560718.00363
 91  4 30 20 53 44.9980000  0  6G18G11G16G 6G19G 2
  22518451.9434    9642430.30246   7513555.90561
  22719683.545    -6933240.512 6  -5402508.52121
  23048529.9594   -6450995.61345  -4876486.70661
  22273442.264   -10995127.092 5  -8405583.55021
  20768698.482     -516205.302 6   -402237.23522
  20710377.7254  -16151077.85847 -12585226.12763
 91  4 30 20 53 59.9980000  0  6G18G11G16G 6G19G 2
  22526175.6154    9683019.95746   7545184.05561
  22720866.9594   -6927019.37046  -5397660.87361
  23048676.107    -6450224.271 5  -4875885.70621
  22266082.514   -11033833.019 6  -8435743.93421
  20769967.811     -509521.303 6   -397028.94022
  20704407.443   -16182452.013 7 -12609673.48123
 91  4 30 20 54 14.9980000  0  6G18G11G16G 6G19G 2
  22533910.2404    9723668.96346   7576858.45661
  22722074.3574   -6920646.60746  -5392695.07761
  23048849.107    -6449327.136 5  -4875186.67121
  22258716.967   -11072522.081 6  -8465891.18321
  20771253.365     -502778.332 6   -391774.69622
  20698453.139   -16213738.861 7 -12634052.80023
 91  4 30 20 54 29.9980000  0  6G18G11G16G 6G19G 2
  22541656.7324    9764371.72246   7608574.74661
  22723315.3734   -6914127.72246  -5387615.43461
  23049042.357    -6448309.852 5  -4874394.01921
  22251357.3344  -11111199.72646  -8496029.55061
  20772549.3814    -495981.70746   -386478.63662
  20692514.7324  -16244943.91847 -12658368.38963
 91  4 30 20 54 44.9980000  0  6G18G11G16G 6G19G 2
  22549410.4434    9805123.12546   7640328.93361
  22724586.3734   -6907467.24446  -5382425.44661
  23049255.701    -6447176.727 5  -4873511.12421
  22243998.193   -11149870.294 6  -8526162.38921
  20773849.576     -489135.584 6   -381144.00522
  20686591.7794  -16276071.59147 -12682623.68063
 91  4 30 20 54 59.9980000  0  6G18G11G16G 6G19G 2
  22557176.826     9845930.071 6   7672126.41421
  22725880.7484   -6900658.56146
  23049495.6154   -6445921.30145  -4872532.91161
  22236643.4824  -11188526.98946  -8556284.42161
  20775163.756     -482233.239 6
  20680684.3734  -16307115.06847 -12706813.36763
 91  4 30 20 55 14.9980000  0  6G18G11G16G 6G19G 2
  22564951.8574    9886783.35946   7703959.98961
  22727203.529    -6893711.041 6
  23049756.2404   -6444553.18445  -4871466.89061
  22229287.553   -11227179.049 6  -8586402.84021
  20776485.256     -475283.970 6
  20674791.9754  -16338083.65348 -12730944.69463
 91  4 30 20 55 29.9980000  0  6G18G11G16G 6G19G 2
  22572735.0924    9927691.61246   7735836.40861
  22728552.0224   -6886615.31246  -5366177.18961
  23050038.748    -6443063.141 5  -4870305.87521
  22221933.5924  -11265817.02246  -8616510.28461
  20777820.990     -468278.254 6   -364891.58522
  20668914.4364  -16368967.90748 -12755010.30563
 91  4 30 20 55 44.9980000  0  6G18G11G16G 6G19G 2
  22580529.279     9968652.573 6   7767753.88021
  22729929.701    -6879373.668 6  -5360534.36321
  23050344.928    -6441453.712 5  -4869051.81121
  22214584.1154  -11304442.98346  -8646608.36861
  20779163.373     -461217.993 6   -359390.10422
  20663052.9514  -16399769.79148 -12779011.73463
 91  4 30 20 55 59.9980000  0  6G18G11G16G 6G19G 2
  22588335.6394   10009668.18546   7799713.94861
  22731337.6704   -6871984.16946  -5354776.31861
  23050675.342    -6439722.594 5  -4867702.94921
  22207239.654   -11343054.741 6  -8676695.38521
  20780515.701     -454101.112 6   -353844.50522
  20657207.5064  -16430487.36247 -12802947.46463
 91  4 30 20 56 14.9980000  0  6G18G11G16G 6G19G 2
  22596149.170    10050732.935 6   7831712.28921
  22732773.4824   -6864452.20946  -5348907.27061
  23051027.7404   -6437875.28745  -4866263.53661
  22199890.9754  -11381657.58646  -8706775.45161
  20781879.709     -446932.824 6   -348258.84522
  20651376.7324  -16461125.87547 -12826821.59363
 91  4 30 20 56 29.9980000  0  6G18G11G16G 6G19G 2
  22603973.1234   10091846.73646   7863748.85961
  22734229.9044   -6856777.80246  -5342927.21661
  23051400.732    -6435912.157 5  -4864733.87021
  22192546.4124  -11420251.46446  -8736848.54061
  20783256.381     -439713.102 6   -342633.11122
  20645562.1934  -16491685.17547 -12850634.00063
 91  4 30 20 56 44.9980000  0  6G18G11G16G 6G19G 2
  22611804.865    10133007.140 6   7895821.73121
  22735716.3264   -6848963.08646  -5336837.82361
  23051794.607    -6433835.043 5  -4863115.38421
  22185203.4514  -11458838.38146  -8766916.20161
  20784638.607     -432443.758 6   -336968.70822
  20639761.6704  -16522167.35047 -12874386.30563
 91  4 30 20 56 59.9980000  0  6G18G11G16G 6G19G 2
  22619648.7094   10174221.02846   7927936.30361
  22737234.5294   -6841001.14346  -5330633.72461
  23052213.678    -6431637.275 5  -4861402.90021
  22177864.6004  -11497411.09546  -8796972.79061
  20786029.607     -425117.723 6   -331260.12522
  20633976.1624  -16552565.26447 -12898072.95063
 91  4 30 20 57 14.9980000  0  6G18G11G16G 6G19G 2
  22627499.4674   10215477.66646   7960084.17661
  22738774.5224   -6832902.57346  -5324323.15461
  23052651.100    -6429329.582 5  -4859604.72521
  22170521.9754  -11535980.17946  -8827026.55761
  20787436.834     -417745.461 6   -325515.52622
  20628205.8734  -16582889.59847 -12921702.26563
 91  4 30 20 57 29.9980000  0  6G18G11G16G 6G19G 2
  22635360.5454   10256787.46346   7992273.46361
  22740345.529    -6824656.914 6  -5317897.97421
  23053114.350    -6426901.505 5  -4857712.76021
  22163187.693   -11574535.110 6  -8857069.29021
  20788847.912     -410316.139 6   -319726.45922
  20622451.8264  -16613129.54547 -12945265.81763
 91  4 30 20 57 44.9980000  0  6G18G11G16G 6G19G 2
  22643232.279    10298149.342 6   8024503.34721
  22741938.100    -6816265.259 6  -5311359.04621
  23053599.4514   -6424354.52045  -4855728.15061
  22155850.936   -11613076.659 6  -8887101.59721
  20790273.662     -402830.687 6   -313893.66322
  20616712.7874  -16643286.03847 -12968764.34763
 91  4 30 20 57 59.9980000  0  6G18G11G16G 6G19G 2
  22651113.8114   10339559.64646   8056770.95661
  22743566.4514   -6807730.66046  -5304708.71861
  23054106.326    -6421691.563 5  -4853653.14021
  22148519.6934  -11651607.77746  -8917125.78061
  20791706.287     -395292.086 6   -308019.44622
  20610989.7874  -16673362.00847 -12992200.13163
 91  4 30 20 58 14.9980000  0  6G18G11G16G 6G19G 2
  22659000.4674   10381013.22146   8089072.28561
  22745216.1394   -6799058.43046  -5297951.13261
  23054634.748    -6418917.950 5  -4851491.92721
  22141187.8114  -11690133.63046  -8947145.85661
  20793151.701     -387705.381 6   -302107.74922
  20605280.1004  -16703362.97147 -13015577.46863
 91  4 30 20 58 29.9980000  0  6G18G11G16G 6G19G 2
  22666898.209    10422516.006 6   8121411.95721
  22746891.9434   -6790242.47346  -5291081.56961
  23055184.9754   -6416027.55845  -4849239.74661
  22133860.4434  -11728647.91146  -8977156.91661
  20794607.451     -380064.145 6   -296153.56422
  20599587.9204  -16733282.51447 -13038891.36163
 91  4 30 20 58 44.9980000  0  6G18G11G16G 6G19G 2
  22674805.787    10464067.670 6   8153789.70721
  22748596.4514   -6781283.14846  -5284100.28561
  23055756.0224   -6413020.92545  -4846896.94761
  22126533.2794  -11767150.71746  -9007159.03461
  20796070.272     -372368.456 6   -290156.93822
  20593910.3574  -16763120.66347 -13062141.82763
 91  4 30 20 58 59.9980000  0  6G18G11G16G 6G19G 2
  22682721.920    10505666.620 6   8186204.30821
  22750325.7484   -6772181.99946  -5277008.47561
  23056349.498    -6409899.411 5  -4844464.64321
  22119207.4754  -11805643.41846  -9037153.27961
  20797544.990     -364619.588 6   -284118.87522
  20588246.5534  -16792878.80247 -13085329.95063
 91  4 30 20 59 14.9980000  0  6G18G11G16G 6G19G 2
  22690647.107    10547317.451 6   8218659.34021
  22752087.881    -6762934.132 6  -5269802.36221
  23056966.0614   -6406658.38345  -4841939.23461
  22111885.4514  -11844120.96846  -9067135.71761
  20799030.186     -356812.759 6   -278035.64222
  20582599.9674  -16822552.17347 -13108452.01863
 91  4 30 20 59 29.9980000  0  6G18G11G16G 6G19G 2
  22698582.772    10589013.285 6   8251149.42521
  22753875.8894   -6753546.33846  -5262487.20861
  23057605.022    -6403304.685 5  -4839326.00421
  22104566.084   -11882590.067 6  -9097111.56721
  20800524.756     -348954.248 6   -271912.14522
  20576968.8184  -16852147.33347 -13131513.14563
 91  4 30 20 59 44.9980000  0  6G18G11G16G 6G19G 2
  22706526.084    10630755.213 6   8283675.44121
  22755685.7644   -6744017.73946  -5255062.33361
  23058266.334    -6399837.106 5  -4836624.03221
  22097247.1154  -11921049.52646  -9127079.91361
  20802031.451     -341043.027 6   -265747.57922
  20571351.0224  -16881663.20247 -13154512.48463
 91  4 30 20 59 59.9980000  0  6G18G11G16G 6G19G 2
  22714479.4124   10672548.75246   8316241.66961
  22757527.647    -6734342.288 6  -5247523.02821
  23058948.1394   -6396250.18745  -4833829.07661
  22089931.2324  -11959493.12346  -9157035.89461
  20803546.365     -333073.020 6   -259537.20622
  20565750.6154  -16911093.49347 -13177445.13763
 91  4 30 21  0 14.9980000  0  6G18G11G16G 6G19G 2
  22722440.928    10714388.197 6   8348843.66121
  22759396.2794   -6724525.69146  -5239873.74161
  23059653.936    -6392549.613 5  -4830945.56321
  22082617.3654  -11997926.44346  -9186983.86861
  20805074.084     -325049.596 6   -253285.20622
  20560165.0534  -16940443.89147 -13200315.54063
 91  4 30 21  0 29.9980000  0  6G18G11G16G 6G19G 2
  22730412.9514   10756273.93446   8381481.73461
  22761292.2174   -6714567.47846  -5232114.09361
  23060377.693    -6388735.066 5  -4827973.25421
  22075307.1704  -12036348.91546  -9216923.39661
  20806611.022     -316972.147 6   -246991.11222
  20554596.1934  -16969713.82247 -13223123.23963
 91  4 30 21  0 44.9980000  0  6G18G11G16G 6G19G 2
  22738391.475    10798208.347 6   8414157.73121
  22763216.3184   -6704465.27046  -5224242.25461
  23061125.3814   -6384804.20745  -4824910.30661
  22067997.3114  -12074757.88946  -9246852.39261
  20808159.154     -308838.050 6   -240652.87022
  20549041.123   -16998900.887 7 -13245866.36423
 91  4 30 21  0 59.9980000  0  6G18G11G16G 6G19G 2
  22746379.8264   10840185.58846   8446867.09161
  22765162.4904   -6694224.67946  -5216262.56861
  23061895.029    -6380762.683 5  -4821761.11621
  22060689.7564  -12113158.84346  -9276775.14661
  20809716.732     -300652.659 6   -234274.66422
  20543501.8264  -17028010.38847 -13268549.05363
 91  4 30 21  1 14.9980000  0  6G18G11G16G 6G19G 2
  22754376.076    10882204.355 6   8479608.82221
  22767139.7324   -6683847.02946  -5208176.09061
  23062686.889    -6376611.982 5  -4818526.83821
  22053385.5374  -12151552.88946  -9306692.52061
  20811284.529     -292417.026 6   -227857.31122
  20537976.4594  -17057043.48447 -13291172.21063
 91  4 30 21  1 29.9980000  0  6G18G11G16G 6G19G 2
  22762380.9364   10924269.24346   8512386.48361
  22769142.5764   -6673327.59046  -5199979.13361
  23063496.9364   -6372347.21345  -4815203.67861
  22046080.7484  -12189935.00746  -9336600.59361
  20812861.123     -284126.161 6   -221396.92022
  20532467.5844  -17085995.25947 -13313731.99563
 91  4 30 21  1 44.9980000  0  6G18G11G16G 6G19G 2
  22770393.920    10966377.376 6   8545197.83321
  22771171.1784   -6662669.07646  -5191673.80161
  23064331.4284   -6367971.30145  -4811793.95461
  22038775.6934  -12228307.63746  -9366501.28461
  20814448.5924    -275782.52046   -214895.40662
  20526973.7644  -17114868.35147 -13336230.47363
 91  4 30 21  1 59.9980000  0  6G18G11G16G 6G19G 2
  22778414.2794   11008532.52346   8578045.82961
  22773224.5224   -6651867.68846  -5183257.14361
  23065185.0374   -6363480.42345  -4808294.60361
  22031475.8264  -12266667.01546  -9396391.63761
  20816047.662     -267382.286 6   -208349.79422
  20521495.0534  -17143658.96447 -13358664.67763
 91  4 30 21  2 14.9980000  0  6G18G11G16G 6G19G 2
  22786445.9594   11050729.59146   8610926.48861
  22775308.3184   -6640928.36246  -5174733.00061
  23066061.0374   -6358879.51345  -4804709.49661
  22024181.1544  -12305017.76546  -9426275.27361
  20817654.857     -258930.085 6   -201763.68222
  20516030.365   -17172371.650 7 -13381038.15823
 91  4 30 21  2 29.9980000  0  6G18G11G16G 6G19G 2
  22794484.647    11092977.062 6   8643846.42221
  22777415.8654   -6629842.66846  -5166094.80561
  23066956.4124   -6354160.11345  -4801032.13961
  22016886.3114  -12343351.25946  -9456145.46061
  20819275.553     -250417.214 6   -195130.30322
  20510583.1314  -17200997.81347 -13403344.22363
 91  4 30 21  2 44.9980000  0  6G18G11G16G 6G19G 2
  22802532.2404   11135266.82346   8676799.29961
  22779548.6314   -6618618.59346  -5157348.77861
  23067877.3184   -6349330.50745  -4797268.84961
  22009591.5844  -12381675.32046  -9486008.30561
  20820906.162     -241851.455 6   -188455.70922
  20505150.5764  -17229545.41447 -13425589.06863
 91  4 30 21  2 59.9980000  0  6G18G11G16G 6G19G 2
  22810588.4284   11177592.47346   8709780.14561
  22781710.5374   -6607262.07346  -5148499.54361
  23068817.193    -6344396.572 5  -4793424.26321
  22002300.6234  -12419995.61346  -9515868.19861
  20822546.365     -233238.558 6   -181744.38222
  20499732.1934  -17258020.03147 -13447777.04263
 91  4 30 21  3 14.9980000  0  6G18G11G16G 6G19G 2
  22818648.6544   11219958.63246   8742792.55861
  22783902.4514   -6595768.64046  -5139543.63761
  23069774.7174   -6339354.11645  -4789495.13961
  21995007.7014  -12458307.57346  -9545721.60561
  20824193.529     -224573.798 6   -174992.64222
  20494328.7174  -17286417.35847 -13469904.79463
 91  4 30 21  3 29.9980000  0  6G18G11G16G 6G19G 2
  22826718.475    11262365.559 6   8775836.72921
  22786115.279    -6584138.067 6  -5130480.86821
  23070756.357    -6334203.060 5  -4785481.39021
  21987720.6314  -12496610.73246  -9575568.16361
  20825851.740     -215856.734 6   -168200.14822
  20488939.3344  -17314736.92247 -13491971.94963
 91  4 30 21  3 44.9980000  0  6G18G11G16G 6G19G 2
  22834797.3894   11304815.51146   8808914.43561
  22788352.943    -6572367.957 6  -5121309.37021
  23071759.107    -6328940.673 5  -4781380.89221
  21980433.7324  -12534902.34846  -9605405.72161
  20827522.178     -207084.666 6   -161364.79122
  20483565.5844  -17342976.13547 -13513976.49463
 91  4 30 21  3 59.9980000  0  6G18G11G16G 6G19G 2
  22842881.8114   11347302.47746   8842020.98161
  22790619.857    -6560464.216 6  -5112033.74721
  23072778.8264   -6323572.95945  -4777198.31061
  21973147.1934  -12573188.18246  -9635238.77261
  20829199.678     -198263.117 6   -154490.88022
  20478205.8114  -17371140.80147 -13535922.94963
 91  4 30 21  4 14.9980000  0  6G18G11G16G 6G19G 2
  22850975.709    11389831.948 6   8875160.63621
  22792909.5064   -6548421.25346  -5102649.63061
  23073819.107    -6318094.521 5  -4772929.43221
  21965863.3574  -12611462.52546  -9665062.87861
  20830889.4904    -189386.39246   -147573.97562
  20472861.7644  -17399225.13747 -13557806.80863
 91  4 30 21  4 29.9980000  0  6G18G11G16G 6G19G 2
  22859077.9754   11432399.47146   8908329.94161
  22795230.3654   -6536243.31746  -5093160.33361
  23074884.264    -6312509.674 5  -4768577.67221
  21958582.1074  -12649729.27046  -9694881.06061
  20832587.232     -180458.484 7   -140617.18722
  20467531.4124  -17427233.14847 -13579631.19563
 91  4 30 21  4 44.9980000  0  6G18G11G16G 6G19G 2
  22867184.990    11475006.788 6   8941530.25221
  22797571.2324   -6523928.91746  -5083564.69961
  23075967.7094   -6306817.07245  -4764141.94461
  21951305.584   -12687986.735 6  -9724692.01821
  20834297.123     -171477.710 6   -133619.20122
  20462216.1004  -17455163.25047 -13601394.87463
 91  4 30 21  4 59.9980000  0  6G18G11G16G 6G19G 2
  22875298.967    11517653.650 6   8974761.39121
  22799936.2874   -6511477.94146  -5073862.65361
  23077072.0534   -6301016.41645  -4759622.00061
  21944024.9204  -12726234.57346  -9754495.46661
  20836020.959     -162443.627 6   -126579.68422
  20456916.9124  -17483015.15447 -13623097.61763
 91  4 30 21  5 14.9980000  0  6G18G11G16G 6G19G 2
  22883422.889    11560337.994 6   9008021.71821
  22802332.3734   -6498892.35046  -5064055.70561
  23078196.514    -6295110.116 5  -4755019.74821
  21936746.2874  -12764474.54646  -9784292.79361
  20837747.4124    -153357.90746   -119499.92762
  20451631.4204  -17510790.73647 -13644740.89263
 91  4 30 21  5 29.9980000  0  6G18G11G16G 6G19G 2
  22891552.084    11603059.803 5   9041311.24921
  22804757.264    -6486172.268 6  -5054143.96321
  23079340.3974   -6289098.19445  -4750335.19361
  21929470.0614  -12802706.54346  -9814083.90261
  20839482.225     -144220.599 7   -112379.97122
  20446360.0064  -17538489.97347 -13666324.67663
 91  4 30 21  5 44.9980000  0  6G18G11G16G 6G19G 2
  22899688.514    11645819.707 5   9074630.46121
  22807201.795    -6473316.743 6  -5044126.68821
  23080503.7564   -6282979.47345  -4745567.42661
  21922198.873   -12840929.514 6  -9843867.98421
  20841234.3034    -135030.37246   -105218.78462
  20441104.2794  -17566111.76347 -13687848.11463
 91  4 30 21  5 59.9980000  0  6G18G11G16G 6G19G 2
  22907832.248    11688615.386 5   9107977.55621
  22809673.982    -6460328.028 6  -5034005.63221
  23081690.2484   -6276756.44245  -4740718.36561
  21914925.1544  -12879145.32346  -9873646.49061
  20842992.623     -125789.305 6    -98017.97722
  20435862.1624  -17593658.03747 -13709312.70463
 91  4 30 21  6 14.9980000  0  6G18G11G16G 6G19G 2
  22915984.3974   11731450.35845   9141355.26561
  22812171.4434   -6447202.84546  -5023778.22461
  23082892.397    -6270425.910 5  -4735785.55821
  21907657.1544  -12917350.50046  -9903416.69561
  20844761.7564    -116493.77946    -90774.73862
  20430635.1004  -17621125.37247 -13730715.78463
 91  4 30 21  6 29.9980000  0  6G18G11G16G 6G19G 2
  22924141.287    11774325.722 5   9174764.45221
  22814695.256    -6433940.087 6  -5013443.63021
  23084120.4364   -6263986.72045  -4730768.06161
  21900388.1394  -12955543.71646  -9933177.58561
  20846538.7644    -107142.48147    -83488.04062
  20425423.5924  -17648512.65347 -13752056.49263
 91  4 30 21  6 44.9970000  0  6G18G11G16G 6G19G 2
  22932309.243    11817236.211 5   9208200.99521
  22817243.829    -6420542.790 6  -5003004.19421
  23085361.524    -6257441.395 5  -4725667.86621
  21893121.2514  -12993724.28846  -9962928.62061
  20848331.009      -97737.989 6    -76159.88922
  20420227.1104  -17675819.82547 -13773334.77663
 91  4 30 21  6 59.9970000  0  6G18G11G16G 6G19G 2
  22940482.423    11860181.541 5   9241664.69221
  22819820.5174   -6407015.00446  -4992463.07261
  23086626.243    -6250794.951 5  -4720488.90221
  21885856.759   -13031902.851 6  -9992678.10421
  20850131.1034     -88284.48446    -68793.55262
  20415044.4314  -17703056.29647 -13794557.96763
 91  4 30 21  7 14.9970000  0  6G18G11G16G 6G19G 2
  22948661.2904   11903163.63545   9275157.03861
  22822419.3294   -6393352.80846  -4981817.21961
  23087914.8214   -6244043.68945  -4715228.23361
  21878593.9784  -13070071.95946 -10022420.20861
  20851938.8924     -78777.63746    -61385.64662
  20409875.8374  -17730215.40447 -13815720.87663
 91  4 30 21  7 29.9970000  0  6G18G11G16G 6G19G 2
  22956846.649    11946181.972 5   9308677.61421
  22825044.345    -6379556.667 6  -4971067.00221
  23089218.556    -6237187.909 5  -4709886.12921
  21871331.017   -13108231.740 6 -10052155.04321
  20853760.6894     -69217.67146    -53936.35062
  20404722.7514  -17757297.26247 -13836823.59163
 91  4 30 21  7 44.9970000  0  6G18G11G16G 6G19G 2
  22965042.134    11989238.286 5   9342227.79821
  22827692.017    -6365624.703 6  -4960210.94021
  23090544.993    -6230225.580 5  -4704460.98921
  21864074.298   -13146380.110 6 -10081880.99621
  20855588.3684     -59602.26246    -46443.85362
  20399584.3534  -17784299.76347 -13857864.47163
 91  4 30 21  7 59.9970000  0  6G18G11G16G 6G19G 2
  22973242.126    12032331.112 5   9375806.43321
  22830372.2284   -6351558.42546  -4949250.21261
  23091887.5404   -6223158.35945  -4698954.15261
  21856816.5874  -13184518.34346 -10111599.03961
  20857430.1184     -49932.84246    -38909.27562
  20394460.5874  -17811224.24747 -13878844.55363
 91  4 30 21  8 14.9970000  0  6G18G11G16G 6G19G 2
  22981448.235    12075456.352 5   9409410.31321
  22833072.0954   -6337361.87046  -4938187.98161
  23093252.0954   -6215990.26845  -4693368.68261
  21849557.939   -13222650.196 6 -10141312.10921
  20859276.2594     -40213.16946    -31335.53362
  20389351.7124  -17838074.67547 -13899766.93563
 91  4 30 21  8 29.9970000  0  6G18G11G16G 6G19G 2
  22989663.1494   12118620.11845   9443044.22061
  22835799.884    -6323028.860 6  -4927019.41921
  23094635.8534   -6208715.01745  -4687699.71561
  21842304.556   -13260769.296 6 -10171015.25221
  20861136.7204     -30436.91346    -23717.70062
  20384256.8064  -17864844.85647 -13920626.78363
 91  4 30 21  8 44.9970000  0  6G18G11G16G 6G19G 2
  22997882.353    12161817.552 5   9476704.35821
  22838553.235    -6308564.113 6  -4915748.20521
  23096039.6494   -6201337.47045  -4681951.03761
  21835051.4934  -13298880.04146 -10200711.87761
  20863007.1654     -20608.28346    -16059.05362
  20379177.4854  -17891539.25447 -13941427.58463
 91  4 30 21  8 59.9970000  0  6G18G11G16G 6G19G 2
  23006109.1264   12205052.93445   9510394.05561
  22841331.790    -6293963.449 6  -4904371.08021
  23097465.9544   -6193853.61345  -4676119.52761
  21827804.001   -13336977.973 6 -10230398.52421
  20864891.0324     -10722.83846     -8356.14662
  20374112.5644  -17918153.47647 -13962165.91063
 91  4 30 21  9 14.9970000  0  6G18G11G16G 6G19G 2
  23014342.0954   12248320.03645   9544108.47261
  22844135.0564   -6279232.89246  -4892892.73861
  23098908.509    -6186269.683 5  -4670210.03921
  21820553.7904  -13375068.92146 -10260079.73461
  20866780.4544       -786.34146      -613.45362
  20369062.0244  -17944693.42947 -13982846.36663
 91  4 30 21  9 29.9970000  0  6G18G11G16G 6G19G 2
  23022584.829    12291618.934 5   9577847.67921
  22846961.8534   -6264372.39246  -4881313.13361
  23100372.8214   -6178585.39845  -4664222.36961
  21813307.673   -13413152.510 6 -10289755.19721
  20868680.1894       9201.45046      7169.21062
  20364025.1344  -17971158.79847 -14003468.70163
 91  4 30 21  9 44.9970000  0  6G18G11G16G 6G19G 2
  23030829.657    12334947.131 5   9611609.69721
  22849817.118    -6249384.265 6  -4869634.08321
  23101849.5244   -6170803.07145  -4658158.29861
  21806062.3144  -13451230.84146 -10319426.56661
  20870591.4784      19238.58346     14990.32062
  20359002.6184  -17997551.66547 -14024034.54363
 91  4 30 21  9 59.9970000  0  6G18G11G16G 6G19G 2
  23039080.9784   12378312.11745   9645400.39361
  22852693.485    -6234261.104 6  -4857849.81321
  23103353.829    -6162915.570 5  -4652012.25621
  21798818.931   -13489296.276 6 -10349087.88821
  20872511.5014      29332.62946     22855.77662
  20353995.1184  -18023864.61047 -14044538.11063
 91  4 30 21 10 14.9970000  0  6G18G11G16G 6G19G 2
  23047337.6034   12421704.31045   9679212.28761
  22855596.790    -6219012.386 6  -4845967.71121
  23104871.181    -6154932.282 5  -4645791.59021
  21791573.0484  -13527357.96346 -10378746.28661
  20874441.8764      39474.41646     30758.43262
  20349002.407   -18050106.779 7 -14064986.52823
 91  4 30 21 10 29.9970000  0  6G18G11G16G 6G19G 2
  23055601.7904   12465128.75845   9713049.29961
  22858522.7044   -6203633.03546  -4833983.83461
  23106409.978    -6146848.554 5  -4639492.66821
  21784332.845   -13565410.587 6 -10408397.62921
  20876381.1964      49669.25446     38702.42462
  20344023.360   -18076272.945 7 -14085375.72523
 91  4 30 21 10 44.9970000  0  6G18G11G16G 6G19G 2
  23063872.064    12508586.589 5   9746912.36221
  22861475.524    -6188121.880 6  -4821897.24821
  23107966.7744   -6138662.80345  -4633114.23761
  21777093.814   -13603452.680 6 -10438040.76021
  20878331.1264      59918.50046     46688.82362
  20339059.462   -18102361.779 8 -14105704.66123
 91  4 30 21 10 59.9970000  0  6G18G11G16G 6G19G 2
  23072146.4394   12552073.14945   9780797.76261
  22864446.720    -6172483.312 6  -4809711.37921
  23109544.876    -6130379.460 5  -4626659.76821
  21769856.7284  -13641488.39646 -10467678.92361
  20880294.3994      70218.21546     54714.54462
  20334108.0404  -18128377.47548 -14125976.60563
 91  4 30 21 11 14.9970000  0  6G18G11G16G 6G19G 2
  23080427.470    12595592.470 5   9814708.71021
  22867449.696    -6156713.326 6  -4797423.09421
  23111139.446    -6121995.003 5  -4620126.49021
  21762620.087   -13679513.501 6 -10497308.82421
  20882263.1494      80572.65146     62782.89762
  20329171.759   -18154315.927 8 -14146188.36223
 91  4 30 21 11 29.9970000  0  6G18G11G16G 6G19G 2
  23088715.5564   12639141.42545   9848642.75361
  22870471.8374   -6140815.09446  -4785034.88761
  23112753.8374   -6113512.43145  -4613516.80761
  21755387.1894  -13717530.91346 -10526932.72061
  20884241.1264      90978.69946     70891.47462
  20324250.485   -18180180.152 8 -14166342.28023
 91  4 30 21 11 44.9970000  0  6G18G11G16G 6G19G 2
  23097009.259    12682718.081 5   9882598.39121
  22873524.040    -6124790.606 6  -4772548.29621
  23114386.1264   -6104933.83945  -4606832.25961
  21748149.985   -13755542.343 6 -10556551.97021
  20886231.6034     101434.71646     79038.98462
  20319341.360   -18205971.886 8 -14186439.70923
 91  4 30 21 11 59.9970000  0  6G18G11G16G 6G19G 2
  23105305.415    12726319.875 5   9916573.61421
  22876598.7674   -6108642.14246  -4759965.11161
  23116038.017    -6096261.715 5  -4600074.83721
  21740921.618   -13793549.800 6 -10586168.10921
  20888230.6344     111938.60646     87223.80862
  20314447.743   -18231693.098 8 -14206482.18823
 91  4 30 21 12 14.9970000  0  6G18G11G16G 6G19G 2
  23113608.462    12769956.192 5   9950575.70321
  22879695.298    -6092360.448 6  -4747278.10121
  23117707.2904   -6087486.67245  -4593237.21261
  21733689.642   -13831543.781 6 -10615773.75321
  20890241.6894     122499.96346     95453.40662
  20309567.610   -18257334.448 7 -14226462.43623
 91  4 30 21 12 29.9970000  0  6G18G11G16G 6G19G 2
  23121919.079    12813624.003 5   9984602.37521
  22882818.774    -6075948.276 6  -4734489.41121
  23119395.8064   -6078611.49845  -4586321.60161
  21726464.0174  -13869526.78946 -10645370.84661
  20892261.5794     133116.50246    103726.00362
  20304703.439   -18282898.587 7 -14246382.51823
 91  4 30 21 12 44.9970000  0  6G18G11G16G 6G19G 2
  23130233.2744   12857317.99345  10018649.43461
  22885962.9624   -6059411.01046  -4721603.24561
  23121103.1264   -6069641.74945  -4579332.26561
  21719236.587   -13907503.855 6 -10674963.31321
  20894290.1494     143783.16546    112037.66062
  20299851.423   -18308390.769 8 -14266246.53023
 91  4 30 21 12 59.9970000  0  6G18G11G16G 6G19G 2
  23138554.7674   12901043.77845  10052721.26861
  22889137.165    -6042742.938 6  -4708615.14521
  23122826.8064   -6060571.47345  -4572264.59161
  21712009.899   -13945468.910 6 -10704546.41921
  20896329.9314     154506.09846    120393.16462
  20295015.876   -18333804.953 8 -14286049.76623
 91  4 30 21 13 14.9970000  0  6G18G11G16G 6G19G 2
  23146879.4314   12944797.11145  10086814.55661
  22892332.485    -6025948.360 6  -4695528.48521
  23124572.134    -6051405.277 5  -4565122.20121
  21704787.204   -13983426.102 6 -10734123.39821
  20898382.2824     165280.92446    128789.10162
  20290193.649   -18359145.194 7 -14305795.38423
 91  4 30 21 13 29.9970000  0  6G18G11G16G 6G19G 2
  23155214.243    12988581.608 5  10120932.12521
  22895555.524    -6009023.643 6  -4682340.41021
  23126337.423    -6042139.386 5  -4557902.10821
  21697566.7984  -14021371.39846 -10763691.10661
  20900442.1104     176111.66746    137228.60862
  20285385.962   -18384407.886 7 -14325480.57423
 91  4 30 21 13 44.9970000  0  6G18G11G16G 6G19G 2
  23163551.3844   13032395.95145  10155072.96461
  22898795.8684   -5991970.11546  -4669051.95161
  23128116.673    -6032775.246 5  -4550605.46021
  21690346.4544  -14059305.86146 -10793250.37561
  20902514.6034     186997.36746    145710.93462
  20280593.8144  -18409593.86747 -14345105.98563
 91  4 30 21 13 59.9970000  0  6G18G11G16G 6G19G 2
  23171893.3214   13076235.10245  10189233.12961
  22902071.071    -5974792.655 6  -4655666.93321
  23129917.6964   -6023317.72145  -4543236.05361
  21683129.321   -14097234.103 6 -10822804.80021
  20904594.3214     197933.32646    154232.42662
  20275814.196   -18434708.084 7 -14364675.48023
 91  4 30 21 14 14.9970000  0  6G18G11G16G 6G19G 2
  23180238.7354   13120100.08645  10223413.41861
  22905363.892    -5957490.129 6  -4642184.46121
  23131733.8214   -6013765.67245  -4535792.99061
  21675915.5244  -14135154.80246 -10852353.33861
  20906687.1814     208920.96446    162794.19262
  20271050.079   -18459749.312 7 -14384188.10323
 91  4 30 21 14 29.9970000  0  6G18G11G16G 6G19G 2
  23188593.0644   13163990.47045  10257613.50861
  22908676.9784   -5940063.07646  -4628604.95561
  23133570.681    -6004119.779 5  -4528276.79321
  21668699.259   -14173068.149 6 -10881896.16121
  20908786.6814     219960.02646    171396.02762
  20266298.462   -18484717.788 7 -14403644.03123
 91  4 30 21 14 44.9970000  0  6G18G11G16G 6G19G 2
  23196949.017    13207907.939 5  10291834.69121
  22912018.814    -5922509.733 6  -4614927.04721
  23135423.196    -5994378.597 5  -4520686.33221
  21661488.103   -14210972.021 6 -10911431.59121
  20910898.2984     231052.48146    180039.46662
  20261561.4154  -18509611.51047 -14423041.70863
 91  4 30 21 14 59.9970000  0  6G18G11G16G 6G19G 2
  23205313.7744   13251851.18145  10326075.97161
  22915381.790    -5904831.472 6  -4601151.79621
  23137296.7124   -5984543.10745  -4513022.42061
  21654273.798   -14248867.412 6 -10940960.41921
  20913018.0644     242197.40146    188723.79362
  20256838.5094  -18534431.48947 -14442381.92563
 91  4 30 21 15 14.9970000  0  6G18G11G16G 6G19G 2
  23213681.7204   13295821.45145  10360338.30661
  22918766.7984   -5887026.94946  -4587278.16061
  23139187.259    -5974612.389 5  -4505284.28521
  21647065.5794  -14286752.75546 -10970481.41261
  20915149.4234     253396.42846    197450.27862
  20252129.7594  -18559176.30347 -14461663.57063
 91  4 30 21 15 29.9970000  0  6G18G11G16G 6G19G 2
  23222053.9934   13339827.21345  10394628.29661
  22922185.079    -5869087.736 6  -4573299.56821
  23141096.0174   -5964577.76545  -4497465.18161
  21639859.564   -14324619.271 6 -10999987.73821
  20917294.4074     264658.37246    206225.78462
  20247436.1814  -18583837.42647 -14480880.00063
 91  4 30 21 15 44.9970000  0  6G18G11G16G 6G19G 2
  23230434.290    13383859.785 5  10428939.18421
  22925620.548    -5851022.236 6  -4559222.56321
  23143021.845    -5954447.664 5  -4489571.67121
  21632655.087   -14362475.079 6 -11029485.72021
  20919448.3604     275975.15346    215044.02562
  20242757.970   -18608422.861 7 -14500037.45423
 91  4 30 21 15 59.9970000  0  6G18G11G16G 6G19G 2
  23238817.860    13427917.606 5  10463269.74121
  22929081.642    -5832832.263 6  -4545048.58021
  23144970.149    -5944224.154 5  -4481605.39821
  21625454.274   -14400321.798 6 -11058976.61521
  20921609.6034     287345.09546    223903.68562
  20238093.876   -18632934.389 7 -14519137.31823
 91  4 30 21 16 14.9970000  0  6G18G11G16G 6G19G 2
  23247208.470    13472004.347 5  10497622.84121
  22932567.532    -5814513.967 6  -4530774.60221
  23146930.642    -5933903.439 5  -4473563.37421
  21618252.243   -14438155.288 6 -11088457.20821
  20923784.1494     298772.12646    232807.83862
  20233444.407   -18657367.990 7 -14538176.46323
 91  4 30 21 16 29.9970000  0  6G18G11G16G 6G19G 2
  23255602.3144   13516118.46945  10531997.25861
  22936078.235    -5796068.903 6  -4516401.83121
  23148914.524    -5923487.043 5  -4465446.78321
  21611056.485   -14475976.592 6 -11117928.30021
  20925968.1734     310255.33946    241755.76862
  20228809.1894  -18681724.84447 -14557155.79963
 91  4 30 21 16 44.9970000  0  6G18G11G16G 6G19G 2
  23264000.2514   13560256.33745  10566390.17761
  22939606.204    -5777500.466 6  -4501932.94421
  23150913.6184   -5912978.47845  -4457258.38061
  21603861.696   -14513788.898 6 -11147392.39121
  20928166.485      321791.363 6    250744.85022
  20224188.0874  -18706008.29347 -14576077.94063
 91  4 30 21 16 59.9970000  0  6G18G11G16G 6G19G 2
  23272406.181    13604417.809 5  10600801.49321
  22943170.774    -5758808.873 6  -4487368.07921
  23152934.6104   -5902378.12845  -4448998.46061
  21596666.337   -14551592.281 6 -11176849.52521
  20930370.7594     333380.38846    259775.22462
  20219581.0564  -18730218.40247 -14594942.93363
 91  4 30 21 17 14.9970000  0  6G18G11G16G 6G19G 2
  23280814.235    13648605.685 5  10635233.40121
  22946749.798    -5739991.578 6  -4472705.27121
  23154968.3064   -5891683.36645  -4440664.96061
  21589475.860   -14589383.703 6 -11206297.33921
  20932586.6104     345025.41246    268849.23362
  20214988.0564  -18754352.41647 -14613748.63263
 91  4 30 21 17 29.9970000  0  6G18G11G16G 6G19G 2
  23289226.704    13692819.409 5  10669685.42721
  22950352.165    -5721048.862 6  -4457944.73421
  23157018.657    -5880894.632 5  -4432258.27121
  21582289.860   -14627163.243 6 -11235735.89521
  20934816.1894     356726.28546    277966.77162
  20210410.5014  -18778410.49647 -14632495.15963
 91  4 30 21 17 44.9970000  0  6G18G11G16G 6G19G 2
  23297647.931    13737062.329 5  10704160.21221
  22953979.149    -5701977.367 6  -4443083.85821
  23159090.462    -5870008.386 5  -4423775.56421
  21575101.485   -14664927.301 6 -11265162.37921
  20937050.876      368486.643 6    287130.65822
  20205846.6894  -18802389.10547 -14651179.76263
 91  4 30 21 17 59.9970000  0  6G18G11G16G 6G19G 2
  23306070.1574   13781328.43945  10738653.07761
  22957637.274    -5682782.898 6  -4428127.14521
  23161178.3214   -5859030.65345  -4415221.59361
  21567917.056   -14702681.266 6 -11294581.00421
  20939298.485      380300.982 7    296336.61022
  20201298.0484  -18826293.78147 -14669806.75663
 91  4 30 21 18 14.9970000  0  6G18G11G16G 6G19G 2
  23314497.509    13825614.728 5  10773161.65321
  22961310.157    -5663468.577 6  -4413077.04621
  23163286.6264   -5847964.34445  -4406598.58261
  21560733.0404  -14740427.76746 -11323993.81861
  20941557.0564     392166.56646    305582.49862
  20196762.384   -18850127.201 7 -14688378.22823
 91  4 30 21 18 29.9970000  0  6G18G11G16G 6G19G 2
  23322930.3144   13869927.12245  10807690.56561
  22965006.657    -5644028.453 6  -4397928.92221
  23165411.657    -5836803.786 5  -4397902.12321
  21553554.149   -14778160.659 6 -11353396.01721
  20943827.6344     404089.60846    314873.14762
  20192242.212   -18873883.301 7 -14706889.45023
 91  4 30 21 18 44.9970000  0  6G18G11G16G 6G19G 2
  23331369.1344   13914264.90345  10842239.26961
  22968734.446    -5624463.365 6  -4382683.42221
  23167554.1264   -5825549.66945  -4389132.77361
  21546376.696   -14815880.465 6 -11382788.02721
  20946105.5644     416069.55546    324208.14362
  20187736.282   -18897562.803 7 -14725340.98923
 91  4 30 21 18 59.9970000  0  6G18G11G16G 6G19G 2
  23339809.6574   13958629.20045  10876808.61361
  22972482.3844   -5604772.20246  -4367339.68861
  23169715.1494   -5814200.84945  -4380289.66861
  21539200.564   -14853585.668 6 -11412168.65721
  20948395.290      428107.964 7    333588.69722
  20183243.782   -18921164.323 7 -14743731.76023
 91  4 30 21 19 14.9970000  0  6G18G11G16G 6G19G 2
  23348259.978    14003026.289 5  10911403.52721
  22976252.071    -5584948.607 6  -4351892.75021
  23171893.149    -5802751.442 5  -4371368.14321
  21532030.235   -14891269.599 6 -11441532.70721
  20950700.9704     440211.52946    343020.02262
  20178769.2594  -18944681.31647 -14762056.66563
 91  4 30 21 19 29.9970000  0  6G18G11G16G 6G19G 2
  23356711.3454   14047447.72245  10946017.41261
  22980047.3294   -5565001.10446  -4336349.26761
  23174089.157    -5791209.915 5  -4362374.85221
  21524860.821   -14928940.531 6 -11470886.63421
  20953017.571      452371.943 6    352495.64122
  20174308.087   -18968122.132 7 -14780322.21123
 91  4 30 21 19 44.9970000  0  6G18G11G16G 6G19G 2
  23365170.345    14091893.944 5  10980650.59921
  22983866.7204   -5544929.11446  -4320708.75861
  23176301.673    -5779575.217 5  -4353308.93821
  21517695.360   -14966597.553 6 -11500229.72521
  20955339.610      464590.029 6    362016.20022
  20169862.337   -18991486.132 7 -14798527.90023
 91  4 30 21 19 59.9970000  0  6G18G11G16G 6G19G 2
  23373632.4624   14136354.12845  11015294.69261
  22987713.837    -5524743.400 6  -4304979.65321
  23178532.673    -5767858.533 5  -4344179.14821
  21510529.439   -15004251.156 6 -11529570.14121
  20957674.2594     476855.37846    371573.58462
  20165428.735   -19014783.795 7 -14816681.90323
 91  4 30 21 20 14.9970000  0  6G18G11G16G 6G19G 2
  23382096.993    14180837.871 5  11049957.13421
  22991574.689    -5504434.263 6  -4289154.36421
  23180778.1184   -5756050.42345  -4334978.13361
  21503367.103   -15041891.278 6 -11558900.05921
  20960017.2984     489178.05346    381175.64262
  20161010.103   -19038005.159 7 -14834776.45123
 91  4 30 21 20 29.9970000  0  6G18G11G16G 6G19G 2
  23390567.1264   14225348.70745  11084640.64861
  22995464.173    -5483998.300 6  -4273230.25821
  23183042.5644   -5744147.20545  -4325702.98461
  21496209.298   -15079514.059 6 -11588216.47221
  20962377.509      501561.765 6    390825.26022
  20156607.001   -19061146.595 7 -14852808.71223
 91  4 30 21 20 44.9970000  0  6G18G11G16G 6G19G 2
  23399041.501    14269882.964 5  11119342.44221
  22999379.0484   -5463439.09146  -4257210.10161
  23185328.6734   -5732152.53945  -4316356.58161
  21489050.446   -15117122.868 6 -11617521.97621
  20964742.4464     514003.27446    400519.91862
  20152217.368   -19084211.491 7 -14870781.33023
 91  4 30 21 20 59.9970000  0  6G18G11G16G 6G19G 2
  23407520.9394   14314438.92945  11154061.13761
  23003311.689    -5442758.415 6  -4241095.30721
  23187627.610    -5720068.229 5  -4306940.34121
  21481896.939   -15154719.085 6 -11646817.68521
  20967118.978      526501.094 6    410258.45422
  20147842.470   -19107201.432 7 -14888695.54723
 91  4 30 21 21 14.9970000  0  6G18G11G16G 6G19G 2
  23416005.7744   14359019.58745  11188799.07761
  23007263.814    -5421953.287 6  -4224883.53321
  23189942.603    -5707891.131 5  -4297451.78721
  21474744.649   -15192299.372 6 -11676100.98321
  20969509.8604     539058.41046    420043.34762
  20143482.735   -19130113.117 8 -14906548.78123
 91  4 30 21 21 29.9970000  0  6G18G11G16G 6G19G 2
  23424493.251    14403623.743 5  11223555.34221
  23011253.6654   -5401024.89946  -4208575.71561
  23192276.610    -5695622.888 5  -4287892.22521
  21467595.751   -15229864.598 6 -11705372.54521
  20971912.532      551674.521 6    429874.05722
  20139137.282   -19152947.644 8 -14924341.89723
 91  4 30 21 21 44.9970000  0  6G18G11G16G 6G19G 2
  23432985.720    14448253.485 5  11258331.53121
  23015256.814    -5379971.198 6  -4192170.25721
  23194630.3374   -5683261.39845  -4278260.00561
  21460453.079   -15267412.428 6 -11734630.54521
  20974323.3294     564351.73846    439752.38262
  20134807.478   -19175702.645 8 -14942073.04423
 91  4 30 21 21 59.9970000  0  6G18G11G16G 6G19G 2
  23441480.368    14492899.316 5  11293120.27421
  23019287.5644   -5358801.57046  -4175674.47461
  23197000.6964   -5670816.04645  -4268562.38261
  21453310.509   -15304951.794 6 -11763881.95021
  20976743.9784     577081.07746    449671.31762
  20130490.5644  -19198387.14748 -14959749.25163
 91  4 30 21 22 14.9970000  0  6G18G11G16G 6G19G 2
  23449982.6104   14537565.84645  11327925.11761
  23023339.892    -5337511.476 6  -4159084.80821
  23199383.274    -5658282.459 5  -4258796.05121
  21446167.071   -15342477.841 6 -11793122.97721
  20979178.4544     589867.31546    459634.58562
  20126188.290   -19220996.655 8 -14977367.02523
 91  4 30 21 22 29.9970000  0  6G18G11G16G 6G19G 2
  23458483.4784   14582253.03245  11362746.05261
  23027409.7284   -5316100.83346  -4142401.20261
  23201787.579    -5645660.458 5  -4248960.84421
  21439029.7204  -15379990.28646 -11822353.41661
  20981622.1034     602710.71946    469642.40562
  20121900.0174  -19243531.02648 -14994926.24963
 91  4 30 21 22 44.9970000  0  6G18G11G16G 6G19G 2
  23466992.0244   14626967.14245  11397588.00161
  23031509.204    -5294563.533 6  -4125618.92421
  23204207.2124   -5632943.85245  -4239051.89861
  21431893.517   -15417482.604 6 -11851568.16521
  20984079.9464     615617.75846    479699.81162
  20117627.524   -19265983.758 8 -15012421.86123
 91  4 30 21 22 59.9970000  0  6G18G11G16G 6G19G 2
  23475507.306    14671699.329 5  11432444.02721
  23035636.165    -5272908.167 6  -4108744.63021
  23206642.9544   -5620141.83545  -4229076.40861
  21424760.493   -15454962.953 6 -11880773.58821
  20986545.1344     628580.24346    489800.41362
  20113368.626   -19288363.225 8 -15029860.38323
 91  4 30 21 23 14.9970000  0  6G18G11G16G 6G19G 2
  23484022.399    14716453.733 5  11467317.38321
  23039778.579    -5251130.686 6  -4091775.17621
  23209095.6034   -5607249.78345  -4219030.75861
  21417632.743   -15492427.118 6 -11909966.39021
  20989024.4154     641602.33046    499947.46062
  20109125.2824  -19310665.32248 -15047238.61363
 91  4 30 21 23 29.9970000  0  6G18G11G16G 6G19G 2
  23492542.814    14761230.219 5  11502207.91021
  23043941.0794   -5229231.30946  -4074710.72961
  23211567.978    -5594268.099 5
  21410505.9544  -15529874.77346 -11939146.33261
  20991514.4934     654684.33546
  20104896.2744  -19332889.88548 -15064556.42963
 91  4 30 21 23 44.9970000  0  6G18G11G16G 6G19G 2
  23501067.610    14806019.657 5  11537108.54621
  23048135.4854   -5207219.37146  -4057558.60561
  23214052.470    -5581206.075 5
  21403379.5644  -15567314.89446 -11968320.41761
  20994012.1734     667817.35346
  20100679.548   -19355045.958 8 -15081820.87923
 91  4 30 21 23 59.9970000  0  6G18G11G16G 6G19G 2
  23509596.165    14850829.010 5  11572024.70721
  23052347.314    -5185087.922 6  -4040313.34421
  23216552.251    -5568056.937 5
  21396260.446   -15604740.159 6 -11997482.91321
  20996522.9234     681008.55246
  20096477.993   -19377126.311 8 -15099026.32823
 91  4 30 21 24 14.9970000  0  6G18G11G16G 6G19G 2
  23518125.782    14895655.729 5  11606954.40021
  23056577.220    -5162839.212 6  -4022976.70121
  23219072.8684   -5554822.90245
  21389140.751   -15642152.394 6 -12026635.25821
  20999042.9234     694256.10846
  20092290.353   -19399133.040 8 -15116174.40523
 91  4 30 21 24 29.9970000  0  6G18G11G16G 6G19G 2
  23526659.439    14940500.231 5  11641897.92921
  23060835.571    -5140472.777 6  -4005548.32421
  23221605.0794   -5541503.47745
  21382023.7434  -15679550.98346 -12055776.97461
  21001574.6574     707560.76746
  20088117.243   -19421065.465 8 -15133264.58023
 91  4 30 21 24 44.9970000  0  6G18G11G16G 6G19G 2
  23535196.970    14985365.578 5  11676857.69921
  23065112.571    -5117985.791 6  -3988026.01921
  23224158.751    -5528096.015 5
  21374909.282   -15716932.550 6 -12084905.42221
  21004119.6814     720925.52646
  20083958.079   -19442920.692 8 -15150294.60323
 91  4 30 21 24 59.9970000  0  6G18G11G16G 6G19G 2
  23543736.485    15030250.576 5  11711832.79021
  23069418.3534   -5095379.25746  -3970410.54361
  23226724.7284   -5514601.79745
  21367800.001   -15754298.000 6 -12114021.31121
  21006672.0174     734349.67146
  20079813.376   -19464699.354 8 -15167264.96623
 91  4 30 21 25 14.9970000  0  6G18G11G16G 6G19G 2
  23552280.767    15075149.432 5  11746818.64321
  23073738.4704   -5072658.96046  -3952706.44661
  23229309.8294   -5501026.21945  -4136259.99761
  21360693.540   -15791652.595 6 -12143128.74421
  21009237.4074     747827.79846    582720.27662
  20075682.657   -19486407.135 8 -15184180.09723
 91  4 30 21 25 29.9970000  0  6G18G11G16G 6G19G 2
  23560830.134    15120068.257 5  11781820.11521
  23078087.3294   -5049818.81346  -3934908.94161
  23231907.360    -5487363.285 5  -4125613.69221
  21353586.618   -15828989.833 6 -12172222.64321
  21011815.4544     761366.39446    593269.79862
  20071565.993   -19508037.650 8 -15201035.01923
 91  4 30 21 25 44.9970000  0  6G18G11G16G 6G19G 2
  23569383.110    15165003.222 5  11816834.10721
  23082452.923    -5026862.831 6  -3917021.18421
  23234523.9314   -5473617.25945  -4114902.59261
  21346485.407   -15866313.401 6 -12201305.89721
  21014402.6344     774961.70346    603863.51162
  20067463.454   -19529594.604 8 -15217832.62623
 91  4 30 21 25 59.9970000  0  6G18G11G16G 6G19G 2
  23577934.478    15209949.345 5  11851856.83021
  23086842.4934   -5003796.01646  -3899047.05261
  23237155.8374   -5459793.11545  -4104130.65761
  21339383.439   -15903627.942 6 -12230382.11921
  21016997.8684     788609.20546    614497.88862
  20063375.298   -19551082.844 8 -15234576.68623
 91  4 30 21 26 14.9970000  0  6G18G11G16G 6G19G 2
  23586492.189    15254915.366 5  11886895.06021
  23091258.2984   -4980609.55446  -3880979.69561
  23239803.017    -5445882.093 5  -4093291.00021
  21332287.360   -15940924.313 6 -12259444.18421
  21019606.868      802317.803 6    625179.87221
  20059300.907   -19572493.525 8 -15251260.31023
 91  4 30 21 26 29.9970000  0  5G11G16G 6G19G 2
  23095689.1494   -4957303.64446  -3862819.24561
  23242466.689    -5431884.384 5  -4082383.79621
  21325192.6344  -15978202.25846 -12288491.89361
  21022226.0714     816087.74046    635909.65062
  20055240.720   -19593826.512 8 -15267883.39223
 91  4 30 21 26 44.9970000  0  5G11G16G 6G19G 2
  23100145.259    -4933887.949 6  -3844573.27121
  23245145.6344   -5417809.86845  -4071416.76161
  21318100.196   -16015471.075 6 -12317532.47721
  21024858.6734     829909.68646    646679.96262
  20051194.767   -19615091.160 8 -15284453.23223
 91  4 30 21 26 59.9970000  0  5G11G16G 6G19G 2
  23104624.978    -4910359.140 6  -3826239.15521
  23247839.6034   -5403654.98245  -4060387.09661
  21311011.8144  -16052727.18746 -12346563.16861
  21027499.0404     843787.43246    657493.74962
  20047161.689   -19636283.970 8 -15300967.09123
 91  4 30 21 27 14.9970000  0  5G11G16G 6G19G 2
  23109124.7514   -4886716.74946  -3807816.52461
  23250545.2674   -5389419.30445  -4049294.45961
  21303922.2514  -16089969.65146 -12375583.23061
  21030150.407      857721.799 6    668351.65221
  20043143.306   -19657404.203 8 -15317424.39523
 91  4 30 21 27 29.9970000  0  5G11G16G 6G19G 2
  23113644.314    -4862961.846 6  -3789306.23421
  23253273.767    -5375103.825 5  -4038139.65621
  21296838.368   -16127199.148 6 -12404593.17821
  21032811.4464     871711.95946    679253.03362
  20039137.595   -19678452.773 8 -15333825.85923
 91  4 30 21 27 44.9970000  0  5G11G16G 6G19G 2
  23118185.1494   -4839095.18246  -3770708.84861
  23256014.6344   -5360709.48445  -4026923.42061
  21289754.931   -16164415.893 6 -12433593.19121
  21035484.7284     885757.43146    690197.52062
  20035146.181   -19699430.103 8 -15350171.80923
 91  4 30 21 27 59.9970000  0  5G11G16G 6G19G 2
  23122743.0244   -4815119.13846  -3752026.23961
  23258764.7594   -5346238.65945  -4015647.55061
  21282676.134   -16201622.142 6 -12462585.03021
  21038170.3994     899856.16446    701183.50962
  20031166.079   -19720338.393 8 -15366463.96423
 91  4 30 21 28 14.9970000  0  5G11G16G 6G19G 2
  23127328.931    -4791034.024 6  -3733258.63421
  23261532.868    -5331691.800 5  -4004312.44421
  21275599.790   -16238817.718 6 -12491568.54521
  21040861.8214     914008.19546    712211.02862
  20027201.899   -19741177.769 8 -15382702.41923
 91  4 30 21 28 29.9970000  0  5G11G16G 6G19G 2
  23131931.3454   -4766841.70746  -3714407.48761
  23264314.048    -5317070.792 5  -3992919.57121
  21268521.7674  -16276004.20846 -12520544.99161
  21043563.6034     928211.92146    723278.82562
  20023248.728   -19761949.838 8 -15398888.42823
 91  4 30 21 28 44.9970000  0  5G11G16G 6G19G 2
  23136557.337    -4742543.007 6  -3695473.45921
  23267114.142    -5302376.583 5  -3981469.65021
  21261448.0174  -16313181.89646 -12549514.57561
  21046278.189      942466.955 6    734386.60422
  20019307.032   -19782655.114 8 -15415022.38923
 91  4 30 21 28 59.9970000  0  5G11G16G 6G19G 2
  23141204.017    -4718134.263 6  -3676453.66321
  23269923.173    -5287605.433 5  -3969959.78621
  21254375.860   -16350346.771 6 -12578474.17221
  21049000.103      956777.333 6    745537.50022
  20015381.595   -19803289.830 8 -15431101.36823
 91  4 30 21 29 14.9970000  0  5G11G16G 6G19G 2
  23145869.4234   -4693615.09046  -3657347.82861
  23272746.642    -5272756.804 5  -3958389.53821
  21247304.095   -16387498.082 6 -12607423.20421
  21051734.4394     971143.78146    756732.10562
  20011468.259   -19823853.370 8 -15447124.88223
 91  4 30 21 29 29.9970000  0  5G11G16G 6G19G 2
  23150557.126    -4668984.462 6  -3638155.14221
  23275588.485    -5257829.726 5  -3946758.14421
  21240238.524   -16424634.429 6 -12636360.57421
  21054477.3534     985567.63346    767971.43761
  20007568.454   -19844344.534 8 -15463092.00423
 91  4 30 21 29 44.9970000  0  5G11G16G 6G19G 2
  23155262.4394   -4644250.36746  -3618881.84161
  23278445.9154   -5242832.35545  -3935071.99861
  21233172.6964  -16461763.40246 -12665292.19561
  21057232.2514    1000041.26946    779249.56562
  20003682.079   -19864770.893 8 -15479008.62523
 91  4 30 21 29 59.9970000  0  5G11G16G 6G19G 2
  23159990.4784   -4619407.41046  -3599523.71761
  23281312.501    -5227759.477 4  -3923327.02121
  21226110.501   -16498879.227 6 -12694213.57321
  21060000.6184    1014570.38546    790570.90962
  19999808.290   -19885126.870 8 -15494870.40323
 91  4 30 21 30 14.9970000  0  5G11G16G 6G19G 2
  23164736.845    -4594455.928 6  -3580081.00521
  23284196.1964   -5212611.27144  -3911523.36161
  21219051.5874  -16535981.84446 -12723124.66161
  21062774.1654    1029154.95646    801935.47462
  19995947.876   -19905412.857 8 -15510677.64323
 91  4 30 21 30 29.9970000  0  5G11G16G 6G19G 2
  23169506.7984   -4569401.01646  -3560557.73661
  23287091.7354   -5197392.83245  -3899664.95161
  21211990.993   -16573075.861 6 -12752029.04621
  21065556.5014    1043790.19746    813339.52662
  19992100.485   -19925633.439 8 -15526433.92123
 91  4 30 21 30 44.9970000  0  5G11G16G 6G19G 2
  23174292.6654   -4544241.78446  -3540953.14461
  23290002.0324   -5182103.30445  -3887751.15761
  21204936.017   -16610160.034 6 -12780925.76021
  21068352.1964    1058477.33246    824784.00862
  19988264.657   -19945787.331 8 -15542138.23123
 91  4 30 21 30 59.9970000  0  5G11G16G 6G19G 2
  23179101.392    -4518978.962 6  -3521267.84321
  23292922.704    -5166743.516 4  -3875782.60921
  21197879.649   -16647234.726 6 -12809815.08021
  21071159.6574    1073216.04246    836268.68062
  19984442.649   -19965875.195 8 -15557791.09123
 91  4 30 21 31 14.9970000  0  5G11G16G 6G19G 2
  23183926.657    -4493618.496 6  -3501506.45621
  23295859.720    -5151319.614 4  -3863764.08121
  21190826.024   -16684305.478 6 -12838701.34221
  21073971.6574    1088000.80046    847789.23262
  19980630.962   -19985902.800 8 -15573396.99223
 91  4 30 21 31 29.9970000  0  5G11G16G 6G19G 2
  23188771.204    -4468153.122 6  -3481663.32821
  23298805.5484   -5135824.37144  -3851689.99161
  21183772.001   -16721364.662 6 -12867578.58521
  21076793.4854    1102839.16146    859351.55561
  19976832.853   -20005862.564 8 -15588950.03423
 91  4 30 21 31 44.9970000  0  5G11G16G 6G19G 2
  23193639.2984   -4442581.40346  -3461737.32161
  23301768.017    -5120256.258 4  -3839559.09821
  21176722.821   -16758410.365 6 -12896445.32321
  21079629.7824    1117732.66246    870956.83962
  19973048.478   -20025752.876 8 -15604448.95523
 91  4 30 21 31 59.9970000  0  5G11G16G 6G19G 2
  23198522.5094   -4416905.30246  -3441729.99961
  23304747.384    -5104617.236 4  -3827372.98321
  21169675.0324  -16795444.14246 -12925302.77061
  21082475.0484    1132679.73046    882603.86762
  19969275.923   -20045575.414 8 -15619895.06523
 91  4 30 21 32 14.9970000  0  5G11G16G 6G19G 2
  23203430.1894   -4391122.39046  -3421639.41961
  23307735.1964   -5088904.80145  -3815129.67261
  21162629.8374  -16832463.21446 -12954148.76061
  21085329.5094    1147683.37546    894294.98462
  19965516.642   -20065327.673 8 -15635286.41623
 91  4 30 21 32 29.9970000  0  5G11G16G 6G19G 2
  23208359.110    -4365239.841 6  -3401471.21521
  23310738.517    -5073126.000 5  -3802834.61521
  21155587.9784  -16869474.34446 -12982988.55662
  21088194.3924    1162736.72646    906024.83362
  19961769.884   -20085016.527 8 -15650628.36023
 91  4 30 21 32 44.9970000  0  5G11G16G 6G19G 2
  23213300.142    -4339253.868 6  -3381222.42421
  23313755.8064   -5057277.30445  -3790485.09461
  21148547.4934  -16906473.27746 -13011818.85461
  21091068.6964    1177843.98946    917796.69362
  19958036.368   -20104637.980 8 -15665917.78123
 91  4 30 21 32 59.9970000  0  4G11G 6G19G 2
  23218266.665    -4313167.117 6  -3360895.09921
  21141508.290   -16943462.329 6 -13040641.45021
  21093953.5644    1193002.73446    929608.66362
  19954315.212   -20124194.271 8 -15681156.43023
 91  4 30 21 33 14.9970000  0  4G11G 6G19G 2
  23223249.384    -4286981.707 6  -3340490.89621
  21134472.360   -16980443.043 6 -13069457.54522
  21096847.8764    1208211.21346    941459.38862
  19950605.610   -20143687.267 8 -15696345.75823
 91  4 30 21 33 29.9970000  0  4G11G 6G19G 2
  23228252.673    -4260694.048 6  -3320007.03321
  21127436.126   -17017411.623 6 -13098264.18322
  21099750.5174    1223473.39346    953351.96062
  19946908.634   -20163113.171 8 -15711482.80423
 91  4 30 21 33 44.9970000  0  4G11G 6G19G 2
  23233273.9154   -4234303.97046  -3299443.34461
  21120406.204   -17054367.446 7 -13127060.88521
  21102666.1964    1238789.58046    965286.61562
  19943224.954   -20182471.709 8 -15726567.35623
 91  4 30 21 33 59.9970000  0  4G11G 6G19G 2
  23238315.040    -4207818.848 6  -3278805.60521
  21113373.626   -17091317.439 6 -13155853.04421
  21105590.9394    1254152.86346    977257.96562
  19939552.532   -20201769.958 8 -15741604.93123
 91  4 30 21 34 14.9970000  0  4G11G 6G19G 2
  23243371.0794   -4181227.62646  -3258085.18961
  21106345.2284  -17128250.03846 -13184631.65562
  21108524.7984    1269574.79446    989275.01462
  19935894.204   -20220996.548 8 -15756586.67023
 91  4 30 21 34 29.9970000  0  4G11G 6G19G 2
  23248450.899    -4154537.953 6  -3237288.05221
  21099317.4934  -17165172.63946 -13213402.46862
  21111468.3214    1285047.86546   1001331.91162
  19932247.923   -20240159.137 8 -15771518.53523
 91  4 30 21 34 44.9970000  0  4G11G 6G19G 2
  23253552.0644   -4127747.93346  -3216412.74061
  21092295.4154  -17202082.84446 -13242163.62561
  21114423.9074    1300574.47246   1013430.53262
  19928613.720   -20259255.299 8 -15786398.64523
 91  4 30 21 34 59.9970000  0  4G11G 6G19G 2
  23258667.595    -4100861.418 6  -3195462.22221
  21085271.478   -17238984.022 6 -13270917.74622
  21117387.0404    1316151.17646   1025568.18662
  19924992.806   -20278288.758 8 -15801229.89723
 91  4 30 21 35 14.9970000  0  4G11G 6G19G 2
  23263802.9154   -4073877.23846  -3174435.59761
  21078253.3214  -17275874.60946 -13299663.61961
  21120360.7514    1331779.39946   1037745.99062
  19921382.407   -20297258.042 8 -15816011.13723
 91  4 30 21 35 29.9970000  0  4G11G 6G19G 2
  23268954.7124   -4046791.35946  -3153329.71661
  21071235.423   -17312750.183 6 -13328397.78721
  21123344.6894    1347463.56646   1049967.38262
  19917785.329   -20316159.009 8 -15830739.14423
 91  4 30 21 35 44.9970000  0  4G11G 6G19G 2
  23274129.6184   -4019604.75646  -3132145.36561
  21064219.8064  -17349611.21446 -13357120.62762
  21126342.6814    1363203.00346   1062231.84462
  19914201.532   -20334992.184 8 -15845414.32623
 91  4 30 21 35 59.9970000  0  4G11G 6G19G 2
  23279321.2514   -3992321.66346  -3110885.84661
  21057207.274   -17386461.653 6 -13385835.21622
  21129349.1494    1378993.74446   1074536.27862
  19910629.376   -20353761.629 8 -15860039.84823
 91  4 30 21 36 14.9970000  0  4G11G 6G19G 2
  23284534.478    -3964936.686 6  -3089546.91421
  21050200.0324  -17423295.64646 -13414536.98662
  21132362.5094    1394841.57146   1086885.19762
  19907070.462   -20372461.838 8 -15874611.41523
 91  4 30 21 36 29.9970000  0  4G11G 6G19G 2
  23289762.7904   -3937452.11446  -3068130.36161
  21043192.821   -17460114.966 6 -13443227.32722
  21135387.5244    1410744.57846   1099277.10562
  19903525.040   -20391094.695 8 -15889130.51723
 91  4 30 21 36 44.9970000  0  4G11G 6G19G 2
  23295010.439    -3909868.501 5  -3046636.64321
  21036187.759   -17496919.832 6 -13471906.39822
  21138424.751     1426702.491 6   1111711.80322
  19899992.360   -20409660.659 8 -15903597.48423
 91  4 30 21 36 59.9970000  0  3G11G 6G19
  23300274.1424   -3882196.30445  -3025073.91061
  21029183.384   -17533720.066 6 -13500581.86022
  21141470.0644    1442705.31446   1124181.49462
 91  4 30 21 37 14.9970000  0  4G11G 6G19G 2
  23305561.4624   -3854425.03745  -3003433.97561
  21022186.220   -17570504.788 6 -13529245.23522
  21144525.642     1458764.172 6   1136694.84522
  19892961.634          -0.38218
 91  4 30 21 37 29.9970000  0  4G11G 6G19G 2
  23310864.8064   -3826555.71345  -2981717.63361
  21015187.110   -17607274.779 6 -13557897.13221
  21147592.6034    1474878.13646   1149251.14162
  19889463.8214     -18375.17948
 91  4 30 21 37 44.9970000  0  4G11G 6G19G 2
  23316182.8764   -3798590.81145  -2959926.80961
  21008193.478   -17644031.949 6 -13586539.03622
  21150670.0714    1491045.01646   1161848.67162
  19885979.7354     -36685.42148
 91  4 30 21 37 59.9970000  0  4G11G 6G19G 2
  23321525.2984   -3770531.07945  -2938062.10061
  21001200.470   -17680776.596 6 -13615171.17722
  21153754.228     1507264.321 6   1174487.05122
  19882508.493      -54931.729 8        -0.31833
 91  4 30 21 38 14.9970000  0  4G11G 6G19G 2
  23326883.7204   -3742373.57945  -2916121.19561
  20994213.743   -17717505.559 6 -13643791.10322
  21156853.1574    1523539.34946   1187168.85161
  19879048.087      -73110.943 8    -14165.91823
 91  4 30 21 38 29.9970000  0  4G11G 6G19G 2
  23332260.4074   -3714112.90745  -2894099.90761
  20987228.478   -17754212.803 6 -13672394.10822
  21159959.6894    1539876.00346   1199898.67262
  19875603.439      -91217.311 8    -28274.75923
 91  4 30 21 38 44.9970000  0  4G11G 6G19G 2
  23337656.267    -3685758.841 5  -2872005.86121
  20980244.329   -17790907.655 6 -13700987.45122
  21163080.228     1556264.763 6   1212669.09322
  19872169.267     -109260.477 8    -42334.34823
 91  4 30 21 38 59.9970000  0  4G11G 6G19G 2
  23343075.2044   -3657311.44346  -2849839.04661
  20973264.1264  -17827589.83946 -13729570.93062
  21166207.353     1572705.841 6   1225480.27921
  19868748.087     -127240.111 8    -56344.43323
 91  4 30 21 39 14.9970000  0  4G11G 6G19G 2
  23348504.157    -3628764.464 5  -2827594.66021
  20966287.4934  -17864252.65746 -13758139.31962
  21169348.204     1589205.966 6   1238337.48121
  19865340.204     -145149.739 8    -70299.97323
 91  4 30 21 39 29.9970000  0  4G11G 6G19G 2
  23353955.821    -3600122.922 6  -2805276.57021
  20959311.282   -17900900.732 6 -13786696.22022
  21172498.2674    1605760.50746   1251237.08361
  19861943.431     -162994.255 8    -84204.77423
 91  4 30 21 39 44.9970000  0  4G11G 6G19G 2
  23359421.790    -3571391.045 6  -2782888.09821
  20952340.243   -17937537.752 6 -13815244.50322
  21175659.634     1622365.635 6   1264176.09621
  19858560.399     -180777.542 8    -98061.86223
 91  4 30 21 39 59.9970000  0  4G11G 6G19G 2
  23364907.314    -3542564.775 5  -2760426.08821
  20945372.892   -17974159.157 6 -13843780.61622
  21178827.329     1639025.691 6   1277157.91421
  19855188.798     -198495.367 8   -111867.93723
 91  4 30 21 40 14.9970000  0  3G11G 6G19
  23370408.939    -3513642.988 5  -2737889.59721
  20938406.829   -18010763.451 6 -13872303.39922
  21182011.142     1655741.994 6   1290183.56321
 91  4 30 21 40 29.9970000  0  4G11G 6G19G 2
  23375933.1654   -3484633.72446  -2715285.01461
  20931441.407   -18047358.150 6 -13900818.70022
  21185201.8144    1672506.96746   1303247.13861
  19848481.564          -0.88718
 91  4 30 21 40 44.9970000  0  4G11G 6G19G 2
  23381471.5874   -3455530.55346  -2692607.22361
  20924482.165   -18083936.414 6 -13929321.19722
  21188401.5564    1689327.47646   1316353.99261
  19845146.1894     -17526.89948
 91  4 30 21 40 59.9970000  0  4G11G 6G19G 2
  23387023.9154   -3426330.86746  -2669854.22161
  20917525.743   -18120495.141 7 -13957808.46222
  21191613.017     1706206.400 6   1329506.35721
  19841824.431      -34984.173 8        -0.27033
 91  4 30 21 41 14.9970000  0  4G11G 6G19G 2
  23392599.110    -3397040.224 5  -2647030.34421
  20910571.446   -18157039.590 7 -13986284.61022
  21194836.485     1723138.570 6   1342700.21121
  19838514.228      -52378.092 8    -13553.95323
 91  4 30 21 41 29.9970000  0  4G11G 6G19G 2
  23398191.829    -3367655.615 6  -2624133.26221
  20903620.954   -18193566.165 6 -14014746.83022
  21198067.759     1740127.567 6   1355938.35121
  19835217.267      -69705.308 8    -27055.66123
 91  4 30 21 41 44.9970000  0  4G11G 6G19G 2
  23403803.3684   -3338182.93146  -2601167.56261
  20896671.782   -18230080.292 6 -14043199.34722
  21201311.673     1757167.637 6   1369216.28321
  19831932.978      -86971.382 8    -40509.72623
 91  4 30 21 41 59.9970000  0  4G11G 6G19G 2
  23409424.1574   -3308620.22445  -2578131.67561
  20889726.892   -18266579.640 7 -14071640.35322
  21204563.524     1774261.008 6   1382535.74921
  19828657.939     -104174.373 8    -53914.63823
 91  4 30 21 42 14.9970000  0  4G11G 6G19G 2
  23415066.478    -3278967.533 5  -2555025.71221
  20882783.298   -18303063.874 7 -14100069.57522
  21207826.587     1791408.091 6   1395897.06821
  19825396.642     -121314.024 8    -67270.19423
 91  4 30 21 42 29.9970000  0  4G11G 6G19G 2
  23420728.8294   -3249222.63546  -2531847.86961
  20875843.899   -18339530.119 7 -14128484.78522
  21211103.6894    1808611.62146   1409302.38061
  19822146.767     -138387.770 8    -80574.39423
 91  4 30 21 42 44.9970000  0  4G11G 6G19G 2
  23426406.7904   -3219390.11945  -2508601.77961
  20868907.821   -18375982.447 7 -14156889.14922
  21214385.376     1825867.319 6   1422748.33321
  19818910.110     -155399.944 8    -93830.61423
 91  4 30 21 42 59.9970000  0  4G11G 6G19G 2
  23432098.2824   -3189468.83045  -2485286.48861
  20861972.501   -18412419.421 7 -14185281.54922
  21217676.251     1843176.531 6   1436235.99121
  19815684.868     -172349.156 8   -107037.77423
 91  4 30 21 43 14.9970000  0  4G11G 6G19G 2
  23437807.7904   -3159462.95345  -2461905.30761
  20855043.868   -18448844.831 7 -14213664.93922
  21220982.5014    1860535.43646   1449762.36961
  19812470.360     -189239.476 8   -120199.04323
 91  4 30 21 43 29.9960000  0  4G11G 6G19G 2
  23443535.512    -3129371.377 5  -2438457.35021
  20848113.106   -18485252.435 7 -14242034.45222
  21224296.3324    1877946.27046   1463329.21261
  19809268.645     -206066.217 8   -133310.77123
 91  4 30 21 43 44.9960000  0  4G11G 6G19G 2
  23449279.856    -3099188.503 5  -2414938.25921
  20841187.606   -18521645.137 7 -14270392.35322
  21227617.6454    1895413.33046   1476939.86661
  19806078.973     -222829.895 8   -146373.35923
 91  4 30 21 43 59.9960000  0  4G11G 6G19G 2
  23455041.371    -3068913.838 5  -2391347.61421
  20834266.840   -18558017.556 7 -14298734.45422
  21230951.027     1912938.491 6   1490595.79521
  19802901.629     -239526.472 8   -159383.66123
 91  4 30 21 44 14.9960000  0  4G11G 6G19G 2
  23460817.895    -3038553.948 5  -2367690.58121
  20827349.793   -18594375.751 7 -14327065.46821
  21234297.9184    1930515.55346   1504292.16961
  19799735.574     -256162.142 8   -172346.50523
 91  4 30 21 44 29.9960000  0  4G11G 6G19G 2
  23466611.981    -3008108.338 5  -2343966.75821
  20820433.707   -18630718.807 7 -14355384.69121
  21237655.6604    1948145.26246   1518029.56361
  19796581.598     -272736.546 8   -185261.60223
 91  4 30 21 44 44.9960000  0  4G11G 6G19G 2
  23472420.8634   -2977572.18045  -2320172.36361
  20813522.7704  -18667041.52747 -14383688.07061
  21241018.941     1965832.831 6   1531812.04521
  19793440.184     -289244.471 8   -198124.90323
 91  4 30 21 44 59.9960000  0  4G11G 6G19G 2
  23478254.090    -2946945.031 5  -2296307.10521
  20806612.754   -18703342.870 7 -14411974.79021
  21244398.7544    1983579.07046   1545640.24161
  19790312.051     -305685.111 8   -210935.77223
 91  4 30 21 45 14.9960000  0  4G11G 6G19G 2
  23484093.160    -2916229.142 5  -2272372.64021
  20799707.152   -18739624.662 7 -14440246.26521
  21247785.051     2001382.088 6   1559512.68621
  19787195.848     -322060.487 8   -223695.78723
 91  4 30 21 45 29.9960000  0  4G11G 6G19G 2
  23489953.5824   -2885429.64645  -2248373.04861
  20792808.629   -18775891.512 7 -14468506.10421
  21251183.410     2019237.083 6   1573425.62221
  19784091.410     -338375.542 8   -236408.79823
 91  4 30 21 45 44.9960000  0  4G11G 6G19G 2
  23495830.434    -2854552.535 5  -2224312.97721
  20785908.762   -18812149.014 7 -14496758.66021
  21254588.0204    2037138.40246   1587374.65762
  19780997.051     -354636.079 8   -249079.32823
 91  4 30 21 45 59.9960000  0  4G11G 6G19G 2
  23501725.176    -2823583.289 5  -2200181.11621
  20779012.949   -18848382.109 7 -14524992.19421
  21258004.7934    2055100.97146   1601371.43062
  19777915.598     -370827.145 8   -261695.72523
 91  4 30 21 46 14.9960000  0  4G11G 6G19G 2
  23507634.3954   -2792531.91245  -2175985.26461
  20772118.7464  -18884600.35047 -14553214.15361
  21261434.0274    2073114.93846   1615408.25062
  19774846.231     -386958.675 8   -274265.73223
 91  4 30 21 46 29.9960000  0  4G11G 6G19G 2
  23513556.379    -2761398.862 5  -2151725.77621
  20765228.699   -18920803.728 7 -14581424.53322
  21264873.2314    2091180.48546   1629485.26062
  19771787.426     -403030.771 8   -286789.42323
 91  4 30 21 46 44.9960000  0  4G11G 6G19G 2
  23519497.301    -2730180.798 5  -2127400.01521
  20758345.082   -18956988.437 7 -14609620.36021
  21268321.5434    2109301.13746   1643605.20962
  19768740.441     -419039.822 8   -299263.98823
 91  4 30 21 46 59.9960000  0  4G11G 6G19G 2
  23525456.7544   -2698875.91145  -2103006.63861
  20751466.027   -18993152.081 7 -14637799.77821
  21271780.1764    2127479.42646   1657770.06962
  19765706.410     -434983.607 8   -311687.69823
 91  4 30 21 47 14.9960000  0  4G11G 6G19G 2
  23531429.4884   -2667492.62845  -2078552.14161
  20744584.645   -19029302.628 7 -14665968.99522
  21275249.887     2145707.000 6   1671973.33122
  19762683.606     -450870.349 8   -324066.95723
 91  4 30 21 47 29.9960000  0  3G 6G19G 2
  20737707.941   -19065433.412 7 -14694122.80421
  21278728.9184    2163990.39746   1686220.09362
  19759672.871     -466693.799 8   -336396.89923
 91  4 30 21 47 44.9960000  0  3G 6G19G 2
  20730838.340   -19101540.887 7 -14722258.45222
  21282218.5044    2182333.15146   1700513.10261
  19756674.512     -482450.381 8   -348674.73623
 91  4 30 21 47 59.9960000  0  3G 6G19G 2
  20723971.254   -19137632.835 7 -14750382.00422
  21285717.637     2200727.055 6   1714845.97722
  19753687.106     -498148.348 8   -360906.90023
 91  4 30 21 48 14.9960000  0  3G 6G19G 2
  20717107.1684  -19173703.88047 -14778489.27162
  21289229.199     2219177.745 6   1729223.09722
  19750712.598     -513782.311 8   -373089.19023
 91  4 30 21 48 29.9960000  0  3G 6G19G 2
  20710243.457   -19209762.400 7 -14806586.77221
  21292751.066     2237676.563 6   1743637.71722
  19747748.121     -529360.971 8   -385228.38623
 91  4 30 21 48 44.9960000  0  3G 6G19G 2
  20703383.793   -19245799.953 7 -14834667.94122
  21296282.0664    2256231.90446   1758096.38662
  19744794.363     -544875.941 8   -397317.95423
 91  4 30 21 48 59.9960000  0  3G 6G19G 2
  20696533.145   -19281819.520 7 -14862735.08422
  21299822.0274    2274840.66846   1772596.68262
  19741853.457     -560330.597 8   -409360.52523
 91  4 30 21 49 14.9960000  0  3G 6G19G 2
  20689681.449   -19317819.721 7 -14890787.14922
  21303375.5204    2293503.91146   1787139.42562
  19738925.535     -575723.917 8   -421355.29523
 91  4 30 21 49 29.9960000  0  3G 6G19G 2
  20682833.465   -19353798.944 7 -14918822.86522
  21306935.488     2312223.333 6   1801725.94522
  19736006.512     -591054.252 8   -433300.99223
 91  4 30 21 49 44.9960000  0  3G 6G19G 2
  20675991.356   -19389761.321 7 -14946845.45122
  21310507.598     2330994.563 6   1816352.83422
  19733102.262     -606326.049 8   -445201.07723
 91  4 30 21 49 59.9960000  0  3G 6G19G 2
  20669151.957   -19425702.320 7 -14974851.37922
  21314088.566     2349822.111 6   1831023.61022
  19730207.606     -621534.810 8   -457052.03623
 91  4 30 21 50 14.9960000  0  3G 6G19G 2
  20662315.0514  -19461627.39947 -15002844.91062
  21317682.0514    2368700.45346   1845733.97762
  19727324.309     -636686.388 8   -468858.44023
 91  4 30 21 50 29.9960000  0  3G 6G19G 2
  20655483.332   -19497530.869 7 -15030821.59722
  21321285.2624    2387634.79946   1860487.97962
  19724453.371     -651775.420 8   -480616.10623
 91  4 30 21 50 44.9960000  0  3G 6G19G 2
  20648654.285   -19533415.376 7 -15058783.50322
  21324899.7314    2406622.50746   1875283.55862
  19721593.363     -666804.657 8   -492327.17523
 91  4 30 21 50 59.9960000  0  3G 6G19G 2
  20641829.1454  -19569280.11947 -15086730.01662
  21328523.0514    2425664.21646   1890121.21362
  19718743.496     -681773.738 8   -503991.37923
 91  4 30 21 51 14.9960000  0  3G 6G19G 2
  20635009.621   -19605123.974 7 -15114660.25322
  21332158.613     2444760.981 6   1905001.76722
  19715907.785     -696681.566 8   -515607.84723
 91  4 30 21 51 29.9960000  0  3G 6G19G 2
  20628194.340   -19640940.145 7 -15142568.90922
  21335801.981     2463919.510 6   1919930.44922
  19713083.145     -711521.571 8   -527171.46423
 91  4 30 21 51 44.9960000  0  3G 6G19G 2
  20621381.895   -19676731.971 7 -15170458.60622
  21339459.1764    2483136.10346   1934904.38062
  19710271.996     -726297.416 8   -538685.08923
 91  4 30 21 51 59.9960000  0  3G 6G19G 2
  20614574.418   -19712500.699 7 -15198330.29522
  21343126.0204    2502409.55546   1949922.61562
  19707471.988     -741010.553 8   -550149.85123
 91  4 30 21 52 14.9960000  0  3G 6G19G 2
  20607772.629   -19748254.398 7 -15226190.27622
  21346802.9184    2521731.73346   1964978.82262
  19704682.121     -755669.377 8   -561572.29223
 91  4 30 21 52 29.9960000  0  3G 6G19G 2
  20600972.020   -19783982.043 7 -15254029.95722
  21350489.7544    2541113.45346   1980081.42462
  19701904.926     -770262.945 8   -572943.88323
 91  4 30 21 52 44.9960000  0  3G 6G19G 2
  20594176.7464  -19819686.60847 -15281851.65362
  21354189.3794    2560551.57746   1995227.97562
  19699140.606     -784794.467 8   -584267.12523
 91  4 30 21 52 59.9960000  0  3G 6G19G 2
  20587387.6914  -19855368.51747 -15309655.69862
  21357900.6374    2580045.57146   2010418.06462
  19696386.184     -799264.677 8   -595542.59423
 91  4 30 21 53 14.9960000  0  3G 6G19G 2
  20580603.746   -19891029.781 7 -15337443.65522
  21361621.434     2599593.185 6   2025649.92622
  19693643.926     -813675.897 8   -606772.09423
 91  4 30 21 53 29.9960000  0  3G 6G19G 2
  20573820.777   -19926672.545 7 -15365217.19222
  21365348.6214    2619192.24746   2040921.88262
  19690911.754     -828030.424 8   -617957.41823
 91  4 30 21 53 44.9960000  0  3G 6G19G 2
  20567041.1214  -19962296.05647 -15392975.73362
  21369090.3954    2638843.34946   2056234.39662
  19688191.551     -842327.661 8   -629098.10123
 91  4 30 21 53 59.9960000  0  3G 6G19G 2
  20560266.856   -19997894.574 7 -15420714.79522
  21372839.551     2658552.045 6   2071591.77922
  19685483.246     -856562.257 8   -640189.97323
 91  4 30 21 54 14.9960000  0  3G 6G19G 2
  20553495.6994  -20033471.45947 -15448437.00362
  21376600.871     2678314.819 6   2086991.30222
  19682785.981     -870737.757 8   -651235.79523
 91  4 30 21 54 29.9960000  0  3G 6G19G 2
  20546730.2154  -20069028.10547 -15476143.44262
  21380370.1134    2698130.07446   2102431.72062
  19680099.527     -884855.742 8   -662236.80223
 91  4 30 21 54 44.9960000  0  3G 6G19G 2
  20539969.356   -20104558.924 7 -15503829.75222
  21384153.215     2718003.373 6   2117917.36622
  19677424.629     -898910.867 8   -673188.82623
 91  4 30 21 54 59.9960000  0  3G 6G19G 2
  20533212.1134  -20140069.50847 -15531500.29362
  21387948.4574    2737928.84046   2133443.66462
  19674760.606     -912908.921 8   -684096.38023
 91  4 30 21 55 14.9960000  0  3G 6G19G 2
  20526458.832   -20175553.890 7 -15559150.41822
  21391747.7624    2757912.43846   2149015.26162
  19672108.535     -926844.083 8   -694954.93123
 91  4 30 21 55 29.9960000  0  3G 6G19G 2
  20519710.5434  -20211011.61747 -15586779.77662
  21395560.020     2777954.291 6   2164632.24321
  19669468.777     -940716.390 8   -705764.49923
 91  4 30 21 55 44.9960000  0  3G 6G19G 2
  20512969.082   -20246445.444 7 -15614390.50722
  21399386.2774    2798051.68346   2180292.51161
  19666840.324     -954528.778 8   -716527.38223
 91  4 30 21 55 59.9960000  0  3G 6G19G 2
  20506228.668   -20281861.312 7 -15641987.24122
  21403220.090     2818198.441 6   2195991.24221
  19664222.340     -968287.560 8   -727248.49523
 91  4 30 21 56 14.9960000  0  3G 6G19G 2
  20499493.832   -20317253.450 7 -15669565.48622
  21407065.5594    2838400.01046   2211732.68261
  19661615.488     -981987.105 8   -737923.44523
 91  4 30 21 56 29.9960000  0  3G 6G19G 2
  20492764.676   -20352623.839 7 -15697126.78322
  21410917.496     2858654.270 6   2227515.18221
  19659019.012     -995629.479 8   -748553.84923
 91  4 30 21 56 44.9960000  0  3G 6G19G 2
  20486038.754   -20387963.306 7 -15724663.98722
  21414784.043     2878970.265 6   2243345.78521
  19656435.551    -1009205.794 8   -759132.77423
 91  4 30 21 56 59.9960000  0  3G 6G19G 2
  20479319.371   -20423276.548 7 -15752180.75122
  21418663.777     2899343.389 6   2259220.89921
  19653863.207    -1022721.128 8   -769664.18323
 91  4 30 21 57 14.9960000  0  3G 6G19G 2
  20472604.590   -20458566.635 7 -15779679.47422
  21422549.418     2919770.188 6   2275137.83821
  19651302.777    -1036178.878 8   -780150.72023
 91  4 30 21 57 29.9960000  0  3G 6G19G 2
  20465893.8014  -20493833.50747 -15807160.10962
  21426446.9574    2940250.56346   2291096.54261
  19648753.113    -1049579.134 8   -790592.45823
 91  4 30 21 57 44.9960000  0  3G 6G19G 2
  20459187.4414  -20529070.21047 -15834617.24062
  21430355.621     2960791.288 6   2307102.25621
  19646215.621    -1062915.186 8   -800984.16823
 91  4 30 21 57 59.9960000  0  3G 6G19G 2
  20452485.981   -20564286.279 7 -15862058.29022
  21434275.840     2981382.790 6   2323147.53921
  19643687.434    -1076196.787 8   -811333.44523
 91  4 30 21 58 14.9960000  0  3G 6G19G 2
  20445789.543   -20599475.254 7 -15889478.22222
  21438203.199     3002031.321 6   2339237.25621
  19641171.637    -1089417.564 8   -821635.32723
 91  4 30 21 58 29.9960000  0  3G 6G19G 2
  20439099.246   -20634632.999 7 -15916873.82622
  21442143.629     3022740.891 6   2355374.53621
  19638668.356    -1102573.763 8   -831886.89123
 91  4 30 21 58 44.9960000  0  3G 6G19G 2
  20432414.207   -20669761.493 7 -15944246.63122
  21446096.6844    3043509.16046   2371557.56161
  19636176.793    -1115667.646 8   -842089.89423
 91  4 30 21 58 59.9960000  0  3G 6G19G 2
  20425734.3324  -20704867.26847 -15971601.74062
  21450061.902     3064329.523 6   2387781.17621
  19633695.184    -1128706.021 8   -852249.64523
 91  4 30 21 59 14.9960000  0  3G 6G19G 2
  20419060.020   -20739946.180 7 -15998935.91322
  21454031.277     3085205.946 6   2404048.46721
  19631226.184    -1141685.125 8   -862363.21123
 91  4 30 21 59 29.9960000  0  3G 6G19G 2
  20412388.4964  -20774991.88347 -16026244.20962
  21458014.332     3106144.717 6   2420364.34021
  19628768.074    -1154598.652 8   -872425.67523
 91  4 30 21 59 44.9960000  0  3G 6G19G 2
  20405726.184   -20810012.209 7 -16053532.73222
  21462009.332     3127137.737 6   2436722.48521
  19626321.559    -1167454.618 8   -882443.28723
 91  4 30 21 59 59.9960000  0  3G 6G19G 2
  20399066.2704  -20845004.04647 -16080799.05962
  21466015.012     3148187.807 6   2453125.08821
  19623887.496    -1180250.291 8   -892413.92123
 91  4 30 22  0 14.9960000  0  3G 6G19G 2
  20392413.488   -20879969.689 7 -16108044.97322
  21470030.574     3169292.544 6   2469570.28621
  19621462.074    -1192988.371 8   -902339.67323
 91  4 30 22  0 29.9960000  0  3G 6G19G 2
  20385762.6994  -20914906.85647 -16135268.70162
  21474059.160     3190454.280 6   2486059.90421
  19619050.520    -1205666.840 8   -912218.97723
 91  4 30 22  0 44.9960000  0  3G 6G19G 2
  20379123.5044  -20949805.45047 -16162462.37262
  21478097.098     3211682.815 6   2502601.56421
  19616650.871    -1218275.683 8   -922044.02423
 91  4 30 22  0 59.9960000  0  3G 6G19G 2
  20372488.3324  -20984674.89247 -16189633.32962
  21482150.316     3232968.430 6   2519187.70421
  19614262.926    -1230824.436 8   -931822.25123
 91  4 30 22  1 14.9960000  0  3G 6G19G 2
  20365860.0824  -21019511.32547 -16216778.56162
  21486208.348     3254314.859 6   2535821.23021
  19611887.051    -1243309.612 8   -941550.93223
 91  4 30 22  1 29.9960000  0  3G 6G19G 2
  20359235.4104  -21054312.57847 -16243896.38062
  21490285.535     3275724.103 6   2552503.71321
  19609523.691    -1255729.358 8   -951228.63423
 91  4 30 22  1 44.9960000  0  3G 6G19G 2
  20352618.4414  -21089088.86847 -16270994.75162
  21494368.004     3297185.753 6   2569227.02821
  19607170.316    -1268094.085 8   -960863.46323
 91  4 30 22  1 59.9960000  0  3G 6G19G 2
  20346004.3634  -21123843.75547 -16298076.45162
  21498462.254     3318696.132 6   2585988.30421
  19604828.348    -1280407.482 8   -970458.29323
 91  4 30 22  2 14.9960000  0  3G 6G19G 2
  20339398.7934  -21158564.28147 -16325131.36662
  21502565.504     3340267.992 6   2602797.49721
  19602496.606    -1292656.968 8   -980003.32423
 91  4 30 22  2 29.9960000  0  3G 6G19G 2
  20332797.4964  -21193250.91047 -16352159.87662
  21506683.613     3361900.663 6   2619654.07321
  19600177.082    -1304843.469 8   -989499.27623
 91  4 30 22  2 44.9960000  0  3G 6G19G 2
  20326202.3094  -21227906.93347 -16379164.52562
  21510810.527     3383590.590 6   2636555.26321
  19597869.551    -1316970.564 8   -998948.93923
 91  4 30 22  2 59.9960000  0  3G 6G19G 2
  20319613.9654  -21262532.00747 -16406145.07062
  21514950.043     3405337.953 6   2653501.20921
  19595573.527    -1329038.095 8  -1008352.19023
 91  4 30 22  3 14.9960000  0  3G 6G19G 2
  20313032.4574  -21297124.75647 -16433100.42662
  21519099.777     3427144.108 6   2670492.96421
  19593288.449    -1341044.792 8  -1017708.03523
 91  4 30 22  3 29.9960000  0  3G 6G19G 2
  20306454.1214  -21331684.21447 -16460029.83162
  21523261.7774    3449009.89346   2687531.18061
  19591015.449    -1352989.826 8  -1027015.83523
 91  4 30 22  3 44.9960000  0  4G13G 6G19G 2
  22897431.7074         -0.18954
  20299882.7314  -21366213.21847 -16486935.51362
  21527432.340     3470931.999 6   2704613.28821
  19588753.559    -1364876.619 8  -1036278.24723
 91  4 30 22  3 59.9960000  0  4G13G 6G19G 2
  22883805.5204     -71617.23644
  20293319.5984  -21400713.26847 -16513818.63062
  21531613.832     3492908.929 6   2721738.11521
  19586502.309    -1376706.712 8  -1045496.48123
 91  4 30 22  4 14.9960000  0  4G13G 6G19G 2
  22870178.5124    -143213.35945
  20286760.8014  -21435181.11647 -16540676.65462
  21535805.2154    3514943.59246   2738907.92261
  19584262.949    -1388477.269 8  -1054668.32423
 91  4 30 22  4 29.9960000  0  4G13G 6G19G 2
  22856558.2154    -214791.59545
  20280204.4344  -21469619.80147 -16567511.95662
  21540010.3714    3537032.92146   2756120.33161
  19582032.848    -1400191.495 8  -1063796.27223
 91  4 30 22  4 44.9960000  0  4G13G 6G19G 2
  22842943.3634    -286341.93844
  20273660.4024  -21504019.35347 -16594316.76462
  21544225.691     3559186.449 6   2773382.76421
  19579815.738    -1411839.791 8  -1072872.84923
 91  4 30 22  4 59.9960000  0  4G13G 6G19G 2
  22829331.2934    -357866.82245
  20267121.2234  -21538382.52247 -16621093.21962
  21548454.184     3581401.341 6   2790693.01321
  19577611.926    -1423425.127 8  -1081900.36423
 91  4 30 22  5 14.9960000  0  4G13G 6G19G 2
  22815726.6524    -429366.82745
  20260588.9654  -21572710.33047 -16647842.11962
  21552692.0514    3603676.30246   2808050.07161
  19575418.535    -1434948.779 8  -1090879.81723
 91  4 30 22  5 29.9960000  0  4G13G 6G19G 2
  22802121.9184    -500840.87945
  20254061.1454  -21607002.08547 -16674562.92762
  21556944.723     3626011.955 6   2825454.42121
  19573238.356    -1446410.250 8  -1099810.81523
 91  4 30 22  5 44.9960000  0  4G13G 6G19G 2
  22788524.402     -572291.469 5
  20247543.051   -21641260.269 7 -16701257.57522
  21561203.7074    3648405.64846   2842903.98861
  19571067.871    -1457812.395 8  -1108695.58623
 91  4 30 22  5 59.9960000  0  4G13G 6G19G 2
  22774934.777     -643721.307 5
  20241030.5434  -21675487.65247 -16727928.22662
  21565478.4964    3670854.27446   2860396.35761
  19568908.668    -1469158.348 8  -1117536.57523
 91  4 30 22  6 14.9960000  0  4G13G 6G19G 2
  22761348.231     -715122.730 5
  20234524.1374  -21709676.91747 -16754569.17062
  21569758.9884    3693365.21346   2877937.29361
  19566761.699    -1480441.006 8  -1126328.23923
 91  4 30 22  6 29.9960000  0  4G13G 6G19G 2
  22747766.434     -786493.914 5        -0.16731
  20228024.3874  -21743826.40047 -16781179.12062
  21574055.824     3715939.814 6   2895527.82721
  19564627.496    -1491658.864 8  -1135069.40823
 91  4 30 22  6 44.9960000  0  4G13G 6G19G 2
  22734187.082     -857838.106 5
  20221535.4884  -21777939.49647 -16807760.71862
  21578361.910     3738574.391 6   2913165.10621
  19562504.223    -1502815.546 8  -1143762.90923
 91  4 30 22  6 59.9960000  0  4G13G 6G19G 2
  22720614.059     -929158.027 5
  20215048.0124  -21812019.26747 -16834316.34462
  21582680.2774    3761265.76845   2930846.63861
  19560392.199    -1513914.336 8  -1152411.29923
 91  4 30 22  7 14.9960000  0  4G13G 6G19G 2
  22707050.8954   -1000450.48745
  20208570.1214  -21846062.79247 -16860843.72662
  21587009.1994    3784016.52746   2948574.44161
  19558291.746    -1524952.777 8  -1161012.66523
 91  4 30 22  7 29.9960000  0  4G13G 6G19G 2
  22693488.8244   -1071712.61345        -0.01471
  20202099.1994  -21880067.35547 -16887340.74862
  21591353.6214    3806829.23345   2966350.51661
  19556202.723    -1535928.351 8  -1169565.04623
 91  4 30 22  7 44.9960000  0  4G13G 6G19G 2
  22679934.4024   -1142947.51945    -55507.48161
  20195636.1374  -21914036.27747 -16913810.00262
  21595703.4344    3829700.40746   2984172.14361
  19554126.106    -1546844.597 8  -1178071.19323
 91  4 30 22  7 59.9960000  0  4G13G 6G19G 2
  22666382.363    -1214154.440 5
  20189177.4734  -21947968.83347 -16940250.91762
  21600068.4024    3852630.63046   3002039.78561
  19552060.504    -1557701.169 8  -1186530.84323
 91  4 30 22  8 14.9960000  0  4G13G 6G19G 2
  22652836.074    -1285331.602 5
  20182729.3714  -21981863.61047 -16966662.39762
  21604441.8164    3875621.01646   3019954.30561
  19550005.965    -1568496.822 8  -1194943.02323
 91  4 30 22  8 29.9960000  0  4G13G 6G19G 2
  22639297.7624   -1356479.28745
  20176284.8794  -22015721.06347 -16993044.79162
  21608830.9654    3898670.81246   3037915.12361
  19547963.090    -1579232.275 8  -1203308.29423
 91  4 30 22  8 44.9960000  0  4G13G 6G19G 2
  22625764.645    -1427597.873 5        -0.48931
  20169847.9574  -22049541.86447 -17019398.62262
  21613226.6134    3921779.29546   3055921.66461
  19545931.184    -1589908.453 8  -1211627.37923
 91  4 30 22  8 59.9960000  0  4G13G 6G19G 2
  22612240.0124   -1498688.85745    -55395.81561
  20163419.301   -22083327.784 7 -17045725.27422
  21617634.3564    3944944.44646   3073972.37761
  19543911.090    -1600527.508 8  -1219901.95223
 91  4 30 22  9 14.9960000  0  4G13G 6G19G 2
  22598718.379    -1569747.161 5   -110765.67621
  20156998.6604  -22117073.87247 -17072020.89062
  21622054.457     3968171.001 6   3092070.91721
  19541900.902    -1611084.846 8  -1228128.43223
 91  4 30 22  9 29.9960000  0  4G13G 6G19G 2
  22585201.3164   -1640772.83545   -166110.11461
  20150585.4414  -22150780.26047 -17098285.57562
  21626488.9654    3991458.64445   3110217.06461
  19539903.684    -1621580.686 8  -1236306.99223
 91  4 30 22  9 44.9960000  0  4G13G 6G19G 2
  22571690.090    -1711767.309 5   -221430.21521
  20144176.9184  -22184448.58747 -17124520.59962
  21630928.9344    4014805.45846   3128409.32561
  19537917.824    -1632016.950 8  -1244439.13123
 91  4 30 22  9 59.9960000  0  4G13G 6G19G 2
  22558186.2624   -1782731.03945   -276726.41661
  20137779.5274  -22218079.62647 -17150726.56362
  21635385.6134    4038210.68146   3146647.09861
  19535943.215    -1642394.671 8  -1252525.64823
 91  4 30 22 10 14.9960000  0  4G13G 6G19G 2
  22544688.387    -1853663.283 5   -331998.05621
  20131384.4884  -22251672.84047 -17176903.05862
  21639846.0664    4061674.33046   3164930.39761
  19533980.551    -1652713.733 8  -1260566.46023
 91  4 30 22 10 29.9960000  0  4G13G 6G19G 2
  22531198.8634   -1924554.22445   -387237.54461
  20125003.4264  -22285218.50347 -17203042.50263
  21644326.9884    4085205.87146   3183266.60361
  19532028.371    -1662964.669 8  -1268554.18323
 91  4 30 22 10 44.9960000  0  4G13G 6G19G 2
  22517714.6684   -1995409.93445   -442449.49561
  20118625.1764  -22318722.99147 -17229149.86763
  21648814.0664    4108798.73746   3201650.59161
  19530089.777    -1673154.031 8  -1276493.92623
 91  4 30 22 10 59.9960000  0  4G13G 6G19G 2
  22504238.1454   -2066226.99145   -497631.38461
  20112257.1374  -22352183.18547 -17255222.71062
  21653316.9964    4132455.86546   3220084.65261
  19528163.160    -1683278.939 8  -1284383.45123
 91  4 30 22 11 14.9960000  0  4G13G 6G19G 2
  22490766.949    -2137012.191 5   -552788.42521
  20105899.5044  -22385605.82047 -17281266.28662
  21657829.3874    4156170.44446   3238563.47161
  19526247.402    -1693346.552 8  -1292228.32723
 91  4 30 22 11 29.9960000  0  4G13G 6G19G 2
  22477305.481    -2207763.878 5   -607919.37921
  20099545.1524  -22418989.72847 -17307279.68862
  21662356.590     4179943.454 6   3257087.84121
  19524342.793    -1703356.159 8  -1300028.00223
 91  4 30 22 11 44.9960000  0  4G13G 6G19G 2
  22463849.098    -2278473.076 5   -663017.22121
  20093201.6454  -22452325.89747 -17333255.88662
  21666890.5664    4203783.62246   3275664.53561
  19522449.856    -1713298.853 8  -1307775.53823
 91  4 30 22 11 59.9960000  0  4G13G 6G19G 2
  22450400.137    -2349146.588 5   -718087.22521
  20086866.4344  -22485621.53147 -17359200.50262
  21671438.824     4227683.456 6   3294287.71921
  19520569.723    -1723181.915 8  -1315476.60923
 91  4 30 22 12 14.9960000  0  4G13G 6G19G 2
  22436957.1844   -2419783.86145   -773129.02661
  20080537.1914  -22518876.26447 -17385113.24463
  21675997.6914    4251643.11746   3312957.52861
  19518700.887    -1733005.251 8  -1323131.14323
 91  4 30 22 12 29.9960000  0  4G13G 6G19G 2
  22423522.0434   -2490383.48445   -828141.48061
  20074218.4264  -22552088.59647 -17410992.94763
  21680570.5354    4275663.79246   3331674.86361
  19516842.699    -1742767.817 8  -1330738.31923
 91  4 30 22 12 44.9960000  0  4G13G 6G19G 2
  22410094.910    -2560945.925 5   -883124.93521
  20067906.8634  -22585259.47147 -17436840.34663
  21685150.1764    4299744.45646   3350438.95461
  19514996.410    -1752470.839 8  -1338299.09823
 91  4 30 22 12 59.9960000  0  4G13G 6G19G 2
  22396674.168    -2631467.868 5   -938076.89321
  20061602.8014  -22618385.69747 -17462652.95763
  21689746.6604    4323887.98246   3369252.03361
  19513161.113    -1762111.486 8  -1345811.27523
 91  4 30 22 13 14.9960000  0  4G13G 6G19G 2
  22383262.027    -2701946.805 5   -992995.31321
  20055306.0124  -22651465.06247 -17488429.05163
  21694352.8404    4348096.50846   3388115.74661
  19511340.293    -1771687.754 8  -1353273.28423
 91  4 30 22 13 29.9960000  0  4G13G 6G19G 2
  22369856.801    -2772388.142 5  -1047884.38721
  20049019.9814  -22684502.87547 -17514172.77363
  21698973.6294    4372364.27146   3407025.63461
  19509527.441    -1781205.257 8  -1360689.50623
 91  4 30 22 13 44.9960000  0  4G13G 6G19G 2
  22356461.7544   -2842785.22845  -1102739.03061
  20042742.7774  -22717492.77047 -17539879.15162
  21703600.9734    4396697.59446   3425986.59661
  19507729.371    -1790657.684 8  -1368055.01523
 91  4 30 22 13 59.9960000  0  4G13G 6G19G 2
  22343071.856    -2913140.587 5  -1157561.14421
  20036473.3484  -22750437.77747 -17565550.55363
  21708243.9414    4421093.15946   3444996.05861
  19505942.309    -1800048.465 8  -1375372.49523
 91  4 30 22 14 14.9960000  0  4G13G 6G19G 2
  22329691.9104   -2983463.33645  -1212357.86461
  20030210.1914  -22783347.04547 -17591194.10962
  21712895.6914    4445541.56946   3464046.70461
  19504165.488    -1809386.901 8  -1382649.18323
 91  4 30 22 14 29.9960000  0  4G13G 6G19G 2
  22316316.535    -3053747.429 5  -1267124.42621
  20023956.2314  -22816214.66647 -17616805.21162
  21717560.1454    4470048.39946   3483142.88061
  19502399.184    -1818667.612 8  -1389880.89023
 91  4 30 22 14 44.9960000  0  4G13G 6G19G 2
  22302948.2544   -3123991.94645  -1321860.15961
  20017709.7774  -22849040.22147 -17642383.53962
  21722233.3164    4494614.03646   3502284.87161
  19500643.645    -1827890.323 8  -1397067.40123
 91  4 30 22 14 59.9960000  0  4G13G 6G19G 2
  22289590.395    -3194191.194 5  -1376560.63021
  20011472.4574  -22881818.05147 -17667924.67562
  21726920.0824    4519243.80646   3521476.83061
  19498901.871    -1837049.963 8  -1404204.76823
 91  4 30 22 15 14.9960000  0  4G13G 6G19G 2
  22276239.1764   -3264346.30245  -1431226.66761
  20005244.3094  -22914549.30847 -17693429.51862
  21731619.668     4543936.363 6   3540717.71421
  19497168.910    -1846147.519 8  -1411293.75623
 91  4 30 22 15 29.9960000  0  4G13G 6G19G 2
  22262898.9884   -3334454.45745  -1485856.17361
  19999023.3324  -22947231.40147 -17718896.05562
  21736330.5274    4568693.90745   3560009.23561
  19495450.543    -1855180.902 8  -1418332.74123
 91  4 30 22 15 44.9960000  0  4G13G 6G19G 2
  22249564.973    -3404518.526 5  -1540451.26821
  19992814.2544  -22979867.14847 -17744326.47962
  21741053.1844    4593513.37646   3579349.01661
  19493744.207    -1864153.334 8  -1425324.23223
 91  4 30 22 15 59.9960000  0  4G13G 6G19G 2
  22236239.6524   -3474544.76945  -1595016.90261
  19986611.1524  -23012463.42447 -17769726.14762
  21745787.770     4618387.849 5   3598731.65221
  19492046.488    -1873071.599 8  -1432273.51323
 91  4 30 22 16 14.9960000  0  4G13G 6G19G 2
  22222923.145    -3544522.588 5  -1649544.82021
  19980416.5274  -23045009.69747 -17795086.84862
  21750532.746     4643327.599 5   3618165.15221
  19490361.340    -1881925.805 8  -1439172.87623
 91  4 30 22 16 29.9960000  0  4G13G 6G19G 2
  22209614.504    -3614460.051 5  -1704041.29921
  19974232.184   -23077514.146 7 -17820414.96622
  21755290.6684    4668324.15645   3637642.92161
  19488687.043    -1890724.438 8  -1446028.94023
 91  4 30 22 16 44.9960000  0  4G13G 6G19G 2
  22196313.5354   -3684351.50345  -1758501.87561
  19968054.9964  -23109971.44047 -17845706.33662
  21760058.4734    4693382.67845   3657168.98861
  19487024.316    -1899462.321 8  -1452837.66623
 91  4 30 22 16 59.9960000  0  4G13G 6G19G 2
  22183024.348    -3754198.582 5  -1812927.90921
  19961888.2074  -23142383.34847 -17870962.33662
  21764840.0904    4718501.05545   3676741.67861
  19485373.262    -1908141.646 8  -1459600.76023
 91  4 30 22 17 14.9960000  0  4G13G 6G19G 2
  22169740.7774   -3823995.78345  -1867315.07061
  19955728.7624  -23174744.83047 -17896179.04862
  21769632.106     4743684.150 5   3696364.79721
  19483733.043    -1916757.261 8  -1466314.21023
 91  4 30 22 17 29.9960000  0  4G13G 6G19G 2
  22156466.191    -3893752.549 5  -1921670.72721
  19949579.2314  -23207065.14547 -17921363.67962
  21774435.965     4768922.196 5   3716030.72821
  19482104.137    -1925319.077 8  -1472985.73623
 91  4 30 22 17 44.9960000  0  4G13G 6G19G 2
  22143198.8634   -3963465.19645  -1975991.98161
  19943438.5824  -23239340.98547 -17946513.65562
  21779248.8164    4794218.47646   3735742.05361
  19480486.324    -1933823.810 8  -1479612.78923
 91  4 30 22 17 59.9960000  0  4G13G 6G19G 2
  22129942.551    -4033128.107 5  -2030274.49521
  19937305.9344  -23271566.76447 -17971624.62362
  21784076.3324    4819578.18145   3755502.80161
  19478880.020    -1942266.375 8  -1486191.39523
 91  4 30 22 18 14.9950000  0  4G13G 6G19G 2
  22116695.616    -4102744.831 5  -2084521.02421
  19931181.1244  -23303749.05047 -17996701.69962
  21788908.515     4844991.116 5   3775305.01721
  19477282.327    -1950655.207 8  -1492728.12823
 91  4 30 22 18 29.9950000  0  4G13G 6G19G 2
  22103456.5074   -4172313.73945  -2138730.27961
  19925066.3274  -23335881.28947 -18021739.77662
  21793757.601     4870470.992 5   3795159.38921
  19475699.351    -1958980.870 8  -1499215.63923
 91  4 30 22 18 44.9950000  0  4G13G 6G19G 2
  22090226.1874   -4241832.66745  -2192900.60561
  19918961.6244  -23367963.61247 -18046738.95662
  21798618.796     4896013.472 5   3815062.54921
  19474125.116    -1967245.344 8  -1505655.47323
 91  4 30 22 18 59.9950000  0  4G13G 6G19G 2
  22077007.5774   -4311301.50445  -2247031.90961
  19912866.9134  -23399996.17947 -18071699.36762
  21803491.374     4921618.178 5   3835014.18821
  19472564.718    -1975449.051 8  -1512047.95523
 91  4 30 22 19 14.9950000  0  4G13G 6G19G 2
  22063797.0384   -4380725.56145  -2301128.30461
  19906778.7184  -23431984.76647 -18096625.50462
  21808374.273     4947279.300 5   3855009.78721
  19471014.413    -1983597.910 8  -1518397.69923
 91  4 30 22 19 29.9950000  0  4G13G 6G19G 2
  22050594.577    -4450103.948 5  -2355189.14221
  19900700.4764  -23463928.47347 -18121516.67262
  21813267.812     4972997.270 5   3875049.68721
  19469473.327    -1991691.532 8  -1524704.40023
 91  4 30 22 19 44.9950000  0  4G13G 6G19G 2
  22037402.5854   -4519430.60845  -2409209.65261
  19894631.7334  -23495821.44847 -18146368.31262
  21818173.249     4998777.556 5   3895138.14121
  19467945.608    -1999724.424 8  -1530963.77323
 91  4 30 22 19 59.9950000  0  4G13G 6G19G 2
  22024221.2494   -4588703.45045  -2463188.21061
  19888572.0694  -23527661.75447 -18171178.90463
  21823095.241     5024621.940 5   3915276.54621
  19466428.624    -2007694.885 8  -1537174.50423
 91  4 30 22 20 14.9950000  0  4G13G 6G19G 2
  22011046.9764   -4657931.88345  -2517132.21161
  19882521.5694  -23559459.42447 -18195956.27962
  21828020.257     5050520.312 5   3935457.01421
  19464921.515    -2015613.063 8  -1543344.49523
 91  4 30 22 20 29.9950000  0  4G13G 6G19G 2
  21997882.7024   -4727108.97345  -2571036.15161
  19876478.0694  -23591207.30547 -18220694.85163
  21832960.8354    5076479.35845   3955684.75461
  19463426.429    -2023472.295 8  -1549468.54823
 91  4 30 22 20 44.9950000  0  5G13G15G 6G19G 2
  21984728.3514   -4796235.71545  -2624900.89461
  22907696.3824         -0.83555
  19870444.7964  -23622906.52647 -18245395.51063
  21837910.1554    5102497.79845   3975958.79161
  19461941.335    -2031273.914 8  -1555547.71423
 91  4 30 22 20 59.9950000  0  5G13G15G 6G19G 2
  21971581.1484   -4865312.94445  -2678727.06561
  22901965.0304     -30137.96545
  19864423.0074  -23654558.22447 -18270059.13963
  21842876.7024    5128574.25045   3996278.02161
  19460467.937    -2039019.452 8  -1561583.18123
 91  4 30 22 21 14.9950000  0  5G13G15G 6G19G 2
  21958443.874    -4934347.154 5  -2732519.71821
  22896248.4764     -60178.12145
  19858408.9604  -23686169.12047 -18294690.96863
  21847846.0154    5154701.75045   4016637.01661
  19459003.093    -2046715.701 8  -1567580.23723
 91  4 30 22 21 29.9950000  0  5G13G15G 6G19G 2
  21945318.7804   -5003327.46345  -2786270.39861
  22890553.4294     -90110.37245
  19852403.2414  -23717728.57247 -18319282.71663
  21852828.3744    5180890.64445   4037043.86361
  19457549.265    -2054352.354 8  -1573530.85623
 91  4 30 22 21 44.9950000  0  5G13G15G 6G19G 2
  21932201.569    -5072254.002 5  -2839979.13321
  22884876.8904    -119934.85145
  19846406.8354  -23749236.96647 -18343834.68263
  21857824.8194    5207140.43945   4057498.15861
  19456108.593    -2061930.179 8  -1579435.63623
 91  4 30 22 21 59.9950000  0  5G13G15G 6G19G 2
  21919094.9834   -5141124.69945  -2893644.37161
  22879222.5384    -149649.57445        -0.47371
  19840419.0934  -23780692.02947 -18368345.08463
  21862832.827     5233452.918 5   4078001.30621
  19454677.733    -2069447.284 8  -1585293.10123
 91  4 30 22 22 14.9950000  0  5G13G15G 6G19G 2
  21906001.554    -5209935.278 5  -2947262.78621
  22873584.9524    -179250.40545    -23065.96761
  19834446.1794  -23812089.68847 -18392810.76063
  21867850.663     5259832.067 5   4098556.41121
  19453258.796    -2076899.563 8  -1591100.05223
 91  4 30 22 22 29.9950000  0  5G13G15G 6G19G 2
  21892915.780    -5278695.772 5  -3000842.17121
  22867971.319     -208747.901 5    -46050.96921
  19828479.1554  -23843440.47647 -18417239.91263
  21872884.241     5286267.134 5   4119155.08021
  19451851.163    -2084298.034 8  -1596865.07823
 91  4 30 22 22 44.9950000  0  5G13G15G 6G19G 2
  21879840.437    -5347403.784 5  -3054380.65321
  22862382.2104    -238139.44345    -68953.38561
  19822525.4294  -23874742.02847 -18441630.69963
  21877923.101     5312759.880 5   4139798.70121
  19450454.280    -2091640.748 8  -1602586.65723
 91  4 30 22 22 59.9950000  0  5G13G15G 6G19G 2
  21866776.1944   -5416061.07245  -3107879.61361
  22856808.9524    -267426.92545    -91774.74361
  19816575.5934  -23905996.25947 -18465984.61363
  21882979.007     5339308.285 5   4160485.68921
  19449066.999    -2098929.905 8  -1608266.50223
 91  4 30 22 23 14.9950000  0  5G13G15G 6G19G 2
  21853719.179    -5484662.111 5  -3161334.77221
  22851254.968     -296604.832 5   -114510.70421
  19810640.3664  -23937197.87147 -18490297.52563
  21888039.179     5365917.307 5   4181219.89921
  19447690.499    -2106160.535 8  -1613900.74523
 91  4 30 22 23 29.9950000  0  5G13G15G 6G19G 2
  21840674.468    -5553209.554 5  -3214748.14121
  22845722.9374    -325675.96145   -137163.46761
  19804712.0304  -23968349.66647 -18514571.61863
  21893113.812     5392584.105 5   4201999.15021
  19446326.382    -2113335.526 8  -1619491.63123
 91  4 30 22 23 44.9950000  0  5G13G15G 6G19G 2
  21827641.1944   -5621705.79345  -3268121.66561
  22840212.241     -354642.504 5   -159734.72921
  19798791.8194  -23999454.04947 -18538808.76863
  21898197.694     5419305.863 5   4222821.21221
  19444970.054    -2120457.708 8  -1625041.37023
 91  4 30 22 23 59.9950000  0  5G13G15G 6G19G 2
  21814618.319    -5690145.080 5  -3321450.76621
  22834718.054     -383499.265 5   -182220.42421
  19792883.0934  -24030505.69647 -18563004.82463
  21903298.9764    5446087.69445   4243690.07961
  19443625.273    -2127521.860 8  -1630545.89023
 91  4 30 22 24 14.9950000  0  5G13G15G 6G19G 2
  21801606.421    -5758523.066 5  -3374732.11421
  22829253.7884    -412241.74946   -204617.11361
  19786983.8194  -24061500.30547 -18587156.43363
  21908403.9764    5472933.68445   4264608.94061
  19442293.530    -2134524.097 8  -1636002.16523
 91  4 30 22 24 29.9950000  0  5G13G15G 6G19G 2
  21788605.3434   -5826845.73645  -3427970.35161
  22823801.101     -440876.170 5   -226929.53721
  19781097.5774  -24092444.03047 -18611268.38863
  21913523.749     5499837.426 5   4285572.81321
  19440971.194    -2141470.878 8  -1641415.22823
 91  4 30 22 24 44.9950000  0  5G13G15G 6G19G 2
  21775614.7734   -5895110.04845  -3481163.09561
  22818373.398     -469399.667 5   -249155.55821
  19775218.0624  -24123334.14247 -18635338.57163
  21918656.280     5526801.343 5   4306583.57921
  19439660.155    -2148359.696 8  -1646783.11923
 91  4 30 22 24 59.9950000  0  5G13G15G 6G19G 2
  21762634.491    -5963317.842 5  -3534311.83521
  22812967.632     -497814.465 6   -271296.89221
  19769350.9374  -24154172.59847 -18659368.50763
  21923798.7104    5553822.97145   4327639.30361
  19438360.038    -2155192.897 8  -1652107.67623
 91  4 30 22 25 14.9950000  0  5G13G15G 6G19G 2
  21749668.194    -6031464.507 5  -3587412.90921
  22807581.101     -526116.002 6   -293349.97021
  19763492.4604  -24184955.06847 -18683354.81363
  21928951.632     5580906.712 5   4348743.42921
  19437070.444    -2161966.341 8  -1657385.67323
 91  4 30 22 25 29.9950000  0  5G13G15G 6G19G 2
  21736709.3194   -6099553.78345  -3640469.29361
  22802215.023     -554307.804 5   -315317.53921
  19757643.3984  -24215685.22347 -18707300.36163
  21934117.023     5608048.446 5   4369892.75421
  19435793.632    -2168684.159 8  -1662620.32023
 91  4 30 22 25 44.9950000  0  5G13G15G 6G19G 2
  21723763.983    -6167584.520 5  -3693480.05321
  22796870.2414    -582388.69545   -337198.69161
  19751806.9134  -24246362.20947 -18731204.47463
  21939292.1554    5635248.71945   4391087.68361
  19434524.921    -2175345.809 8  -1667811.20323
 91  4 30 22 25 59.9950000  0  5G13G15G 6G19G 2
  21710830.155    -6235554.914 5  -3746443.81021
  22791550.3664    -610357.10146   -358992.18161
  19745980.2964  -24276984.41547 -18755065.90563
  21944482.077     5662508.933 5   4412329.32221
  19433267.3124   -2181949.93548  -1672957.26663
 91  4 30 22 26 14.9950000  0  5G13G15G 6G19G 2
  21697907.460    -6303466.840 5  -3799361.96121
  22786251.155     -638215.112 5   -380699.64821
  19740162.3514  -24307553.70747 -18778886.10363
  21949677.483     5689826.639 5   4433615.77121
  19432021.593    -2188498.717 8  -1678060.20023
 91  4 30 22 26 29.9950000  0  5G13G15G 6G19G 2
  21684993.390    -6371322.601 5  -3852236.39721
  22780969.835     -665965.304 5   -402323.08921
  19734355.0854  -24338072.82647 -18802667.20863
  21954888.3904    5717199.31545   4454945.03661
  19430786.0854   -2194995.14648  -1683122.34063
 91  4 30 22 26 44.9950000  0  5G13G15G 6G19G 2
  21672092.6944   -6439114.60545  -3905061.12761
  22775709.187     -693600.275 5   -423856.75321
  19728557.7264  -24368534.58247 -18826403.61363
  21960106.718     5744633.775 5   4476322.45421
  19429561.1484   -2201432.25648  -1688138.26263
 91  4 30 22 26 59.9950000  0  5G13G15G 6G19G 2
  21659206.2414   -6506840.01945  -3957833.97261
  22770471.608     -721117.053 5   -445298.31921
  19722773.483   -24398935.775 7 -18850092.82623
  21965341.624     5772132.756 5   4497750.14421
  19428347.429    -2207807.177 8  -1693105.71923
 91  4 30 22 27 14.9950000  0  5G13G15G 6G19G 2
  21646328.4134   -6574509.14545  -4010562.97561
  22765256.585     -748526.196 5   -466656.02521
  19716996.890   -24429286.900 7 -18873743.02923
  21970583.4604    5799685.17945   4519219.46861
  19427145.171    -2214130.977 8  -1698033.33323
 91  4 30 22 27 29.9950000  0  5G13G15G 6G19G 2
  21633461.171    -6642116.043 5  -4063243.45321
  22760059.6874    -775821.64545   -487925.12061
  19711232.7024  -24459582.23047 -18897349.75163
  21975837.890     5827296.873 5   4540734.98921
  19425952.5384   -2220397.94048  -1702916.67663
 91  4 30 22 27 44.9950000  0  5G13G15G 6G19G 2
  21620608.054    -6709662.430 5  -4115876.80421
  22754885.312     -803005.627 5   -509107.36021
  19705478.5464  -24489823.93247 -18920914.68663
  21981103.468     5854965.345 5   4562294.76521
  19424769.9054   -2226610.62848  -1707757.72263
 91  4 30 22 27 59.9950000  0  5G13G15G 6G19G 2
  21607768.4524   -6777141.58045  -4168457.73361
  22749733.171     -830071.458 5   -530197.53921
  19699732.390   -24520005.456 7 -18944432.73123
  21986380.155     5882696.964 5   4583903.74021
  19423599.6794   -2232762.57348  -1712551.43463
 91  4 30 22 28 14.9950000  0  5G13G15G 6G19G 2
  21594939.1404   -6844558.02446  -4220989.85061
  22744610.0304    -857023.56845   -551199.09861
  19694003.233   -24550131.379 7 -18967907.45323
  21991667.7964    5910486.81445   4605558.08561
  19422439.0624   -2238858.81048  -1717301.74063
 91  4 30 22 28 29.9950000  0  5G13G15G 6G19G 2
  21582122.523    -6911912.404 6  -4273473.57521
  22739502.515     -883862.936 5   -572112.82421
  19688279.398   -24580202.325 7 -18991339.33623
  21996966.702     5938333.812 5   4627256.95721
  19421289.1634   -2244900.43648  -1722009.48663
 91  4 30 22 28 44.9950000  0  5G13G15G 6G19G 2
  21569318.233    -6979196.747 6  -4325902.74621
  22734418.0934    -910581.34645   -592932.30261
  19682570.437   -24610210.325 7 -19014722.17023
  22002278.5624    5966245.71845   4649006.43161
  19420151.155    -2250879.746 8  -1726668.67623
 91  4 30 22 28 59.9950000  0  5G13G15G 6G19G 2
  21556527.6244   -7046409.15746  -4378275.84361
  22729359.179     -937176.989 5   -613656.10821
  19676871.523   -24640153.725 7 -19038054.66523
  22007603.312     5994224.075 5   4670807.66321
  19419025.866    -2256795.130 8  -1731278.05123
 91  4 30 22 29 14.9950000  0  5G13G15G 6G19G 2
  21543750.358    -7113559.434 6  -4430600.53321
  22724319.6324    -963660.01245   -634292.16861
  19671182.460   -24670042.820 7 -19061344.84623
  22012939.171     6022258.229 5   4692652.39321
  19417909.937    -2262657.133 8  -1735845.82923
 91  4 30 22 29 29.9950000  0  5G13G15G 6G19G 2
  21530984.4994   -7180641.29846  -4482871.89861
  22719298.671     -990024.352 5   -654835.73221
  19665508.374   -24699871.371 7 -19084587.85523
  22018284.7334    6050354.18145   4714545.25061
  19416805.046    -2268460.007 8  -1740367.53723
 91  4 30 22 29 44.9950000  0  5G13G15G 6G19G 2
  21518231.921    -7247655.236 6  -4535090.37821
  22714307.9214   -1016270.68845   -675287.36361
  19659842.905   -24729640.169 7 -19107784.29623
  22023643.8044    6078510.86645   4736485.44861
  19415712.515    -2274204.606 8  -1744843.83723
 91  4 30 22 29 59.9950000  0  5G13G15G 6G19G 2
  21505493.0854   -7314595.87246  -4587251.67861
  22709340.601    -1042393.792 5   -695642.95621
  19654188.085   -24759343.691 7 -19130929.87723
  22029013.4374    6106733.18245   4758476.77261
  19414631.280    -2279886.130 8  -1749270.98523
 91  4 30 22 30 14.9950000  0  5G13G15G 6G19G 2
  21492766.6874   -7381469.21046  -4639360.58061
  22704382.983    -1068399.861 5   -715907.34521
  19648549.101   -24788988.372 7 -19154029.60323
  22034396.312     6135014.650 5   4780514.19621
  19413561.5774   -2285511.06348  -1753654.04063
 91  4 30 22 30 29.9950000  0  5G13G15G 6G19G 2
  21480053.6404   -7448279.17546  -4691420.09461
  22699459.0154   -1094292.73545   -736083.54261
  19642917.726   -24818578.327 7 -19177086.68823
  22039790.218     6163350.953 5   4802594.35521
  19412500.468    -2291083.729 8  -1757996.36523
 91  4 30 22 30 44.9950000  0  5G13G15G 6G19G 2
  21467356.108    -7515012.483 6  -4743419.86721
  22694553.788    -1120059.279 5   -756161.27621
  19637300.624   -24848100.349 7 -19200090.83523
  22045194.3584    6191754.87945   4824727.20361
  19411452.0074   -2296591.30548  -1762287.97363
 91  4 30 22 30 59.9950000  0  5G13G15G 6G19G 2
  21454669.2024   -7581679.43946  -4795367.94261
  22689673.8274   -1145710.04445   -776148.80661
  19631693.733   -24877564.875 7 -19223050.18023
  22050610.171     6220215.808 5   4846904.46121
  19410414.882    -2302044.486 8  -1766537.19123
 91  4 30 22 31 14.9950000  0  5G13G15G 6G19G 2
  21441993.2024   -7648276.75646  -4847261.75461
  22684816.2264   -1171241.86645   -796043.67561
  19626098.437   -24906968.696 7 -19245962.22323
  22056033.2334    6248736.49545   4869128.29061
  19409388.0854   -2307440.60448  -1770741.94763
 91  4 30 22 31 29.9950000  0  5G13G15G 6G19G 2
  21429334.9764   -7714801.31946  -4899098.85661
  22679980.6874   -1196651.93345   -815843.67661
  19620513.8824  -24936308.79247 -19268824.61063
  22061474.7414    6277319.52045   4891400.68561
  19408371.976    -2312776.929 8  -1774900.11223
 91  4 30 22 31 44.9950000  0  5G13G15G 6G19G 2
  21416690.171    -7781252.537 6  -4950878.83521
  22675167.265    -1221939.518 5   -835548.23921
  19614942.991   -24965584.855 7 -19291637.10123
  22066925.952     6305965.327 5   4913722.01021
  19407368.6714   -2318053.21848  -1779011.49563
 91  4 30 22 31 59.9950000  0  5G13G15G 6G19G 2
  21404057.0464   -7847634.25746  -5002604.63261
  22670381.124    -1247108.662 5   -855160.47121
  19609384.140   -24994800.839 7 -19314402.77823
  22072389.1244    6334669.41345   4936088.74661
  19406374.093    -2323273.855 8  -1783079.50823
 91  4 30 22 32 14.9950000  0  5G13G15G 6G19G 2
  21391440.702    -7913941.858 6  -5054272.71521
  22665612.179    -1272154.673 5   -874676.76421
  19603835.921   -25023952.385 7 -19337118.24323
  22077863.155     6363436.106 5   4958504.26921
  19405394.038    -2328434.621 8  -1787100.87323
